[[{"header":{"parameterUnit":"m.s-1","parameterCategory":1,"la1":31.0,"la2":29.5877,"lo1":-88.7671,"lo2":-86.6584,"dy":0.0162,"dx":0.0185,"nx":115,"ny":88,"refTime":"2024-03-31T12:00:00:Z","depth":0,"parameterNumber":2,"parameterNumberName":"U-component_of_WINDS"},"data":[0.0,0.0,0.0,0.0,0.0,0.0,0.0,0.0,0.0,0.0,0.0,0.0,0.0,0.0,0.0,0.0,0.0,0.0,0.0,0.0,0.0,0.0,0.0,0.0,0.0,0.0,0.0,0.0,0.0,0.0,0.0,0.0,0.0,0.0,0.0,0.0,0.0,0.0,0.0,0.0,0.0,0.0,0.0,0.0,0.0,0.0,0.0,0.0,0.0,0.0,0.0,0.0,0.0,0.0,0.0,0.0,0.0,0.0,0.0,0.0,0.0,0.0,0.0,0.0,0.0,0.0,0.0,0.0,0.0,0.0,0.0,0.0,0.0,0.0,0.0,0.0,0.0,0.0,0.0,0.0,0.0,0.0,0.0,0.0,0.0,0.0,0.0,0.0,0.0,0.0,0.0,0.0,0.0,0.0,0.0,0.0,0.0,0.0,0.0,0.0,0.0,0.0,0.0,0.0,0.0,0.0,0.0,0.0,0.0,0.0,0.0,0.0,0.0,0.0,0.0,0.0,0.0,0.0,0.0,0.0,0.0,0.0,0.0,0.0,0.0,0.0,0.0,0.0,0.0,0.0,0.0,0.0,0.0,0.0,0.0,0.0,0.0,0.0,0.0,0.0,0.0,0.0,0.0,0.0,0.0,0.0,0.0,0.0,0.0,0.0,0.0,0.0,0.0,0.0,0.0,0.0,0.0,0.0,0.0,0.0,0.0,0.0,0.0,0.0,0.0,0.0,0.0,0.0,0.0,0.0,0.0,0.0,0.0,0.0,0.0,0.0,0.0,0.0,0.0,0.0,0.0,0.0,0.0,0.0,0.0,0.0,0.0,0.0,0.0,0.0,0.0,0.0,0.0,0.0,0.0,0.0,0.0,0.0,0.0,0.0,0.0,0.0,0.0,0.0,0.0,0.0,0.0,0.0,0.0,0.0,0.0,0.0,0.0,0.0,0.0,0.0,0.0,0.0,0.0,0.0,0.0,0.0,0.0,0.0,0.0,0.0,0.0,0.0,0.0,0.0,0.0,0.0,0.0,0.0,0.0,0.0,0.0,0.0,0.0,0.0,0.0,0.0,0.0,0.0,0.0,0.0,0.0,0.0,0.0,0.0,0.0,0.0,0.0,0.0,0.0,0.0,0.0,0.0,0.0,0.0,0.0,0.0,0.0,0.0,0.0,0.0,0.0,0.0,0.0,0.0,0.0,0.0,0.0,0.0,0.0,0.0,0.0,0.0,0.0,0.0,0.0,0.0,0.0,0.0,0.0,0.0,0.0,0.0,0.0,0.0,0.0,0.0,0.0,0.0,0.0,0.0,0.0,0.0,0.0,0.0,0.0,0.0,0.0,0.0,0.0,0.0,0.0,0.0,0.0,0.0,0.0,0.0,0.0,0.0,0.0,0.0,0.0,0.0,0.0,0.0,0.0,0.0,0.0,0.0,0.0,0.0,0.0,0.0,0.0,0.0,0.0,0.0,0.0,0.0,0.0,0.0,0.0,0.0,0.0,0.0,0.0,0.0,0.0,0.0,0.0,0.0,0.0,0.0,0.0,0.0,0.0,0.0,0.0,0.0,0.0,0.0,0.0,0.0,0.0,0.0,0.0,0.0,0.0,0.0,0.0,0.0,0.0,0.0,0.0,0.0,0.0,0.0,0.0,0.0,0.0,0.0,0.0,0.0,0.0,0.0,0.0,0.0,0.0,0.0,0.0,0.0,0.0,0.0,0.0,0.0,0.0,0.0,0.0,0.0,0.0,0.0,0.0,0.0,0.0,0.0,0.0,0.0,0.0,0.0,0.0,0.0,0.0,0.0,0.0,0.0,0.0,0.0,0.0,0.0,0.0,0.0,0.0,0.0,0.0,0.0,0.0,0.0,0.0,0.0,0.0,0.0,0.0,0.0,0.0,0.0,0.0,0.0,0.0,0.0,0.0,0.0,0.0,0.0,0.0,0.0,0.0,0.0,0.0,0.0,0.0,0.0,0.0,0.0,0.0,0.0,0.0,0.0,0.0,0.0,0.0,0.0,0.0,0.0,0.0,0.0,0.0,0.0,0.0,0.0,0.0,0.0,0.0,0.0,0.0,0.0,0.0,0.0,0.0,0.0,0.0,0.0,0.0,0.0,0.0,0.0,0.0,0.0,0.0,0.0,0.0,0.0,0.0,0.0,0.0,0.0,0.0,0.0,0.0,0.0,0.0,0.0,0.0,0.0,0.0,0.0,0.0,0.0,0.0,0.0,0.0,0.0,0.0,0.0,0.0,0.0,0.0,0.0,0.0,0.0,0.0,0.0,0.0,0.0,0.0,0.0,0.0,0.0,0.0,0.0,0.0,0.0,0.0,0.0,0.0,0.0,0.0,0.0,0.0,0.0,0.0,0.0,0.0,0.0,0.0,0.0,0.0,0.0,0.0,0.0,0.0,0.0,0.0,0.0,0.0,0.0,0.0,0.0,0.0,0.0,0.0,0.0,0.0,0.0,0.0,0.0,0.0,0.0,0.0,0.0,0.0,0.0,0.0,0.0,0.0,0.0,0.0,0.0,0.0,0.0,0.0,0.0,0.0,0.0,0.0,0.0,0.0,0.0,0.0,0.0,0.0,0.0,0.0,0.0,0.0,0.0,0.0,0.0,0.0,0.0,0.0,0.0,0.0,0.0,0.0,0.0,0.0,0.0,0.0,0.0,0.0,0.0,0.0,0.0,0.0,0.0,0.0,0.0,0.0,0.0,0.0,0.0,0.0,0.0,0.0,0.0,0.0,0.0,0.0,0.0,0.0,0.0,0.0,0.0,0.0,0.0,0.0,0.0,0.0,0.0,0.0,0.0,0.0,0.0,0.0,0.0,0.0,0.0,0.0,0.0,0.0,0.0,0.0,0.0,0.0,0.0,0.0,0.0,0.0,0.0,0.0,0.0,0.0,0.0,0.0,0.0,0.0,0.0,0.0,0.0,0.0,0.0,0.0,0.0,0.0,0.0,0.0,0.0,0.0,0.0,0.0,0.0,0.0,0.0,0.0,0.0,0.0,0.0,0.0,0.0,0.0,0.0,0.0,0.0,0.0,0.0,0.0,0.0,0.0,0.0,0.0,0.0,0.0,0.0,0.0,0.0,0.0,0.0,0.0,0.0,0.0,0.0,0.0,0.0,0.0,0.0,0.0,0.0,0.0,0.0,0.0,0.0,0.0,0.0,0.0,0.0,0.0,0.0,0.0,0.0,0.0,0.0,0.0,0.0,0.0,0.0,0.0,0.0,0.0,0.0,0.0,0.0,0.0,0.0,0.0,0.0,0.0,0.0,0.0,0.0,0.0,0.0,0.0,0.0,0.0,0.0,0.0,0.0,0.0,0.0,0.0,0.0,0.0,0.0,0.0,0.0,0.0,0.0,0.0,0.0,0.0,0.0,0.0,0.0,0.0,0.0,0.0,0.0,0.0,0.0,0.0,0.0,0.0,0.0,0.0,0.0,0.0,0.0,0.0,0.0,0.0,0.0,0.0,0.0,0.0,0.0,0.0,0.0,0.0,0.0,0.0,0.0,0.0,0.0,0.0,0.0,0.0,0.0,0.0,0.0,0.0,0.0,0.0,0.0,0.0,0.0,0.0,0.0,0.0,0.0,0.0,0.0,0.0,0.0,0.0,0.0,0.0,0.0,0.0,0.0,0.0,0.0,0.0,0.0,0.0,0.0,0.0,0.0,0.0,0.0,0.0,0.0,0.0,0.0,0.0,0.0,0.0,0.0,0.0,0.0,0.0,0.0,0.0,0.0,0.0,0.0,0.0,0.0,0.0,0.0,0.0,0.0,0.0,0.0,0.0,0.0,0.0,0.0,0.0,0.0,0.0,0.0,0.0,0.0,0.0,0.0,0.0,0.0,0.0,0.0,0.0,0.0,0.0,0.0,0.0,0.0,0.0,0.0,0.0,0.0,0.0,0.0,0.0,0.0,0.0,0.0,0.0,0.0,0.0,0.0,0.0,0.0,0.0,0.0,0.0,0.0,0.0,0.0,0.0,0.0,0.0,0.0,0.0,0.0,0.0,0.0,0.0,0.0,0.0,0.0,0.0,0.0,0.0,0.0,0.0,0.0,0.0,0.0,0.0,0.0,0.0,0.0,0.0,0.0,0.0,0.0,0.0,0.0,0.0,0.0,0.0,0.0,0.0,0.0,0.0,0.0,0.0,0.0,0.0,0.0,0.0,0.0,0.0,0.0,0.0,0.0,0.0,0.0,0.0,0.0,0.0,0.0,0.0,0.0,0.0,0.0,0.0,0.0,0.0,0.0,0.0,0.0,-3.4666,0.0,0.0,0.0,0.0,0.0,0.0,0.0,0.0,0.0,0.0,0.0,0.0,0.0,0.0,0.0,0.0,0.0,0.0,0.0,0.0,0.0,0.0,0.0,0.0,0.0,0.0,0.0,0.0,0.0,0.0,0.0,0.0,0.0,0.0,0.0,0.0,0.0,0.0,0.0,0.0,0.0,0.0,0.0,0.0,0.0,0.0,0.0,0.0,0.0,0.0,0.0,0.0,0.0,0.0,0.0,0.0,0.0,0.0,0.0,0.0,0.0,0.0,0.0,0.0,0.0,0.0,0.0,0.0,0.0,0.0,0.0,0.0,0.0,0.0,0.0,0.0,0.0,0.0,0.0,0.0,0.0,0.0,0.0,0.0,0.0,0.0,0.0,0.0,0.0,0.0,0.0,0.0,0.0,0.0,0.0,0.0,0.0,0.0,0.0,0.0,0.0,0.0,0.0,0.0,0.0,0.0,0.0,0.0,0.0,0.0,-3.3306,-3.3333,-3.4925,-3.5387,-3.4523,0.0,0.0,0.0,0.0,0.0,0.0,0.0,0.0,0.0,0.0,0.0,0.0,0.0,0.0,0.0,0.0,0.0,0.0,0.0,0.0,0.0,0.0,0.0,0.0,0.0,0.0,0.0,0.0,0.0,0.0,0.0,0.0,0.0,0.0,0.0,0.0,0.0,0.0,0.0,0.0,0.0,0.0,0.0,0.0,0.0,0.0,0.0,0.0,0.0,0.0,0.0,0.0,0.0,0.0,0.0,0.0,0.0,0.0,0.0,0.0,0.0,0.0,0.0,0.0,0.0,0.0,0.0,0.0,0.0,0.0,0.0,0.0,0.0,0.0,0.0,0.0,0.0,0.0,0.0,0.0,0.0,0.0,0.0,0.0,0.0,0.0,0.0,0.0,0.0,0.0,0.0,0.0,0.0,0.0,0.0,0.0,0.0,0.0,0.0,0.0,0.0,0.0,0.0,0.0,0.0,0.0,0.0,0.0,0.0,0.0,0.0,0.0,-3.5026,-3.5321,-3.4222,0.0,0.0,0.0,0.0,0.0,0.0,0.0,0.0,0.0,0.0,0.0,0.0,0.0,0.0,0.0,0.0,0.0,0.0,0.0,0.0,0.0,0.0,0.0,0.0,0.0,0.0,0.0,0.0,0.0,0.0,0.0,0.0,0.0,0.0,0.0,0.0,0.0,0.0,0.0,0.0,0.0,0.0,0.0,0.0,0.0,0.0,0.0,0.0,0.0,0.0,0.0,0.0,0.0,0.0,0.0,0.0,0.0,0.0,0.0,0.0,0.0,0.0,0.0,0.0,0.0,0.0,0.0,0.0,0.0,0.0,0.0,0.0,0.0,0.0,0.0,0.0,0.0,0.0,0.0,0.0,0.0,0.0,0.0,0.0,0.0,0.0,0.0,0.0,0.0,0.0,0.0,0.0,0.0,0.0,0.0,0.0,0.0,0.0,0.0,0.0,0.0,0.0,0.0,0.0,0.0,0.0,0.0,0.0,0.0,0.0,-3.3729,-3.4461,-3.5379,0.0,-3.3378,0.0,0.0,0.0,0.0,0.0,0.0,0.0,0.0,0.0,0.0,0.0,0.0,0.0,0.0,0.0,0.0,0.0,0.0,0.0,0.0,0.0,0.0,0.0,0.0,0.0,0.0,0.0,0.0,0.0,0.0,0.0,0.0,0.0,0.0,0.0,0.0,0.0,0.0,0.0,0.0,0.0,0.0,0.0,0.0,0.0,0.0,0.0,0.0,0.0,0.0,0.0,0.0,0.0,0.0,0.0,0.0,0.0,0.0,0.0,0.0,0.0,0.0,0.0,0.0,0.0,0.0,0.0,0.0,0.0,0.0,0.0,0.0,0.0,0.0,0.0,0.0,0.0,0.0,0.0,0.0,0.0,0.0,0.0,0.0,0.0,0.0,0.0,0.0,0.0,0.0,0.0,0.0,0.0,0.0,0.0,0.0,0.0,0.0,0.0,0.0,0.0,0.0,0.0,0.0,0.0,0.0,0.0,0.0,0.0,0.0,-3.378,-3.4586,-3.5392,-3.4784,0.0,0.0,0.0,0.0,0.0,0.0,0.0,0.0,0.0,0.0,0.0,0.0,0.0,0.0,0.0,0.0,0.0,0.0,0.0,0.0,0.0,0.0,0.0,0.0,0.0,0.0,0.0,0.0,0.0,0.0,0.0,0.0,0.0,0.0,0.0,0.0,0.0,0.0,0.0,0.0,0.0,0.0,0.0,0.0,0.0,0.0,0.0,0.0,0.0,0.0,0.0,0.0,0.0,0.0,0.0,0.0,0.0,0.0,0.0,0.0,0.0,0.0,0.0,0.0,0.0,0.0,0.0,0.0,0.0,0.0,0.0,0.0,0.0,0.0,0.0,0.0,0.0,0.0,0.0,0.0,0.0,0.0,0.0,0.0,0.0,0.0,0.0,0.0,0.0,0.0,0.0,0.0,0.0,0.0,0.0,0.0,0.0,0.0,0.0,0.0,0.0,0.0,0.0,0.0,0.0,0.0,0.0,0.0,0.0,0.0,-3.2751,-3.3906,-3.492,-3.5495,-3.4715,-3.2415,0.0,0.0,0.0,0.0,0.0,0.0,0.0,0.0,0.0,0.0,0.0,0.0,0.0,0.0,0.0,0.0,0.0,0.0,0.0,0.0,0.0,0.0,0.0,0.0,0.0,0.0,0.0,0.0,0.0,0.0,0.0,0.0,0.0,0.0,0.0,0.0,0.0,0.0,0.0,0.0,0.0,0.0,0.0,0.0,0.0,0.0,0.0,0.0,0.0,0.0,0.0,0.0,0.0,0.0,0.0,0.0,0.0,0.0,0.0,0.0,0.0,0.0,0.0,0.0,0.0,0.0,0.0,0.0,0.0,0.0,0.0,0.0,0.0,0.0,0.0,0.0,0.0,0.0,0.0,0.0,0.0,0.0,0.0,0.0,0.0,0.0,0.0,0.0,0.0,0.0,0.0,0.0,0.0,0.0,0.0,0.0,0.0,0.0,0.0,0.0,0.0,0.0,0.0,0.0,0.0,0.0,0.0,0.0,-3.3163,-3.3347,-3.4185,-3.5771,-3.5811,-3.4999,0.0,0.0,0.0,0.0,0.0,0.0,0.0,0.0,0.0,0.0,0.0,0.0,0.0,0.0,0.0,0.0,0.0,0.0,0.0,0.0,0.0,0.0,0.0,0.0,0.0,0.0,0.0,0.0,0.0,0.0,0.0,0.0,0.0,0.0,0.0,0.0,0.0,0.0,0.0,0.0,0.0,0.0,0.0,0.0,0.0,0.0,0.0,0.0,0.0,0.0,0.0,0.0,0.0,0.0,0.0,0.0,0.0,0.0,0.0,0.0,0.0,0.0,0.0,0.0,0.0,0.0,0.0,0.0,0.0,0.0,0.0,0.0,0.0,0.0,0.0,0.0,0.0,0.0,0.0,0.0,0.0,0.0,0.0,0.0,0.0,0.0,0.0,0.0,0.0,0.0,0.0,0.0,0.0,0.0,0.0,0.0,0.0,0.0,0.0,0.0,0.0,0.0,0.0,0.0,0.0,0.0,0.0,0.0,0.0,-3.1835,-3.3345,-3.4989,-3.6654,-3.6653,-3.5601,0.0,0.0,0.0,0.0,0.0,0.0,0.0,0.0,0.0,0.0,0.0,0.0,0.0,0.0,0.0,0.0,0.0,0.0,0.0,0.0,0.0,0.0,0.0,0.0,0.0,0.0,0.0,0.0,0.0,0.0,0.0,0.0,0.0,0.0,0.0,0.0,0.0,0.0,0.0,0.0,0.0,0.0,0.0,0.0,0.0,0.0,0.0,0.0,0.0,0.0,0.0,0.0,0.0,0.0,0.0,0.0,0.0,0.0,0.0,0.0,0.0,0.0,0.0,0.0,0.0,0.0,0.0,0.0,0.0,0.0,0.0,0.0,0.0,0.0,0.0,0.0,0.0,0.0,0.0,0.0,0.0,0.0,0.0,0.0,0.0,0.0,0.0,0.0,0.0,0.0,0.0,0.0,0.0,0.0,0.0,0.0,0.0,0.0,0.0,0.0,0.0,0.0,0.0,0.0,0.0,0.0,0.0,0.0,0.0,-3.2168,0.0,-3.615,-3.7527,-3.7306,-3.6064,0.0,0.0,0.0,0.0,0.0,0.0,0.0,0.0,0.0,0.0,0.0,0.0,0.0,0.0,0.0,0.0,0.0,0.0,0.0,0.0,0.0,0.0,0.0,0.0,0.0,0.0,0.0,0.0,0.0,0.0,0.0,0.0,0.0,0.0,0.0,0.0,0.0,0.0,0.0,0.0,0.0,0.0,0.0,0.0,0.0,0.0,0.0,0.0,0.0,0.0,0.0,0.0,0.0,0.0,0.0,0.0,0.0,0.0,0.0,0.0,0.0,0.0,0.0,0.0,0.0,0.0,0.0,0.0,0.0,0.0,0.0,0.0,0.0,0.0,0.0,0.0,0.0,0.0,0.0,0.0,0.0,0.0,0.0,0.0,0.0,0.0,0.0,0.0,0.0,0.0,0.0,0.0,0.0,0.0,0.0,0.0,0.0,0.0,0.0,0.0,0.0,0.0,0.0,0.0,0.0,0.0,0.0,0.0,-3.2148,-3.4584,-3.6239,-3.7513,-3.8449,-3.7712,-3.6415,0.0,0.0,0.0,0.0,0.0,0.0,0.0,0.0,0.0,0.0,0.0,0.0,0.0,0.0,0.0,0.0,0.0,0.0,0.0,0.0,0.0,0.0,0.0,0.0,0.0,0.0,0.0,0.0,0.0,0.0,0.0,0.0,0.0,0.0,0.0,0.0,0.0,0.0,0.0,0.0,0.0,0.0,0.0,0.0,0.0,0.0,0.0,0.0,0.0,0.0,0.0,0.0,0.0,0.0,0.0,0.0,0.0,0.0,0.0,0.0,0.0,0.0,0.0,0.0,0.0,0.0,0.0,0.0,0.0,0.0,0.0,0.0,0.0,0.0,0.0,0.0,0.0,0.0,0.0,0.0,0.0,0.0,0.0,0.0,0.0,0.0,0.0,0.0,0.0,0.0,0.0,0.0,0.0,0.0,0.0,0.0,0.0,0.0,0.0,0.0,0.0,0.0,0.0,0.0,0.0,0.0,0.0,0.0,0.0,-3.4667,-3.58,-3.7633,-4.0106,-3.8873,-3.7843,0.0,0.0,0.0,0.0,0.0,0.0,0.0,0.0,0.0,0.0,0.0,0.0,0.0,0.0,0.0,0.0,0.0,0.0,0.0,0.0,0.0,0.0,0.0,0.0,0.0,0.0,0.0,0.0,0.0,0.0,0.0,0.0,0.0,0.0,0.0,0.0,0.0,0.0,0.0,0.0,0.0,0.0,0.0,0.0,0.0,0.0,0.0,0.0,0.0,0.0,0.0,0.0,0.0,0.0,0.0,0.0,0.0,0.0,0.0,0.0,0.0,0.0,0.0,0.0,0.0,0.0,0.0,0.0,0.0,0.0,0.0,0.0,0.0,0.0,0.0,0.0,0.0,0.0,0.0,0.0,0.0,0.0,0.0,0.0,0.0,0.0,0.0,0.0,0.0,0.0,0.0,0.0,0.0,0.0,0.0,0.0,0.0,0.0,0.0,0.0,0.0,0.0,0.0,0.0,0.0,0.0,0.0,0.0,0.0,-3.5638,-3.6815,-3.8906,-4.1991,-4.0365,-3.9321,-3.8961,0.0,0.0,0.0,0.0,0.0,0.0,0.0,0.0,0.0,0.0,0.0,0.0,0.0,0.0,0.0,0.0,0.0,0.0,0.0,0.0,0.0,0.0,0.0,0.0,0.0,0.0,0.0,0.0,0.0,0.0,0.0,0.0,0.0,0.0,0.0,0.0,0.0,0.0,0.0,0.0,0.0,0.0,0.0,0.0,0.0,0.0,0.0,0.0,0.0,0.0,0.0,0.0,0.0,0.0,0.0,0.0,0.0,0.0,0.0,0.0,0.0,0.0,0.0,0.0,0.0,0.0,0.0,0.0,0.0,0.0,0.0,0.0,0.0,0.0,0.0,0.0,0.0,0.0,0.0,0.0,0.0,0.0,0.0,0.0,0.0,0.0,0.0,0.0,0.0,0.0,0.0,0.0,0.0,0.0,0.0,0.0,0.0,0.0,0.0,0.0,0.0,0.0,0.0,0.0,0.0,0.0,0.0,0.0,-3.7392,-3.9135,-4.1209,-4.3652,-4.205,-4.0781,0.0,0.0,0.0,0.0,0.0,0.0,0.0,0.0,0.0,0.0,0.0,0.0,0.0,0.0,0.0,0.0,0.0,0.0,0.0,0.0,0.0,0.0,0.0,0.0,0.0,0.0,0.0,0.0,0.0,0.0,0.0,0.0,0.0,0.0,0.0,0.0,0.0,0.0,0.0,0.0,0.0,0.0,0.0,0.0,0.0,0.0,0.0,0.0,0.0,0.0,0.0,0.0,0.0,0.0,0.0,0.0,0.0,0.0,0.0,0.0,0.0,0.0,0.0,0.0,0.0,0.0,0.0,0.0,0.0,0.0,0.0,0.0,0.0,0.0,0.0,0.0,0.0,0.0,0.0,0.0,0.0,0.0,0.0,0.0,0.0,0.0,0.0,0.0,0.0,0.0,0.0,0.0,0.0,0.0,0.0,0.0,0.0,0.0,0.0,0.0,0.0,0.0,0.0,0.0,0.0,0.0,0.0,0.0,0.0,-3.9099,-4.1452,-4.331,-4.4573,-4.2972,-4.1964,0.0,0.0,0.0,0.0,0.0,0.0,0.0,0.0,0.0,0.0,0.0,0.0,0.0,0.0,0.0,0.0,0.0,0.0,0.0,0.0,0.0,0.0,0.0,0.0,0.0,0.0,0.0,0.0,0.0,0.0,0.0,0.0,0.0,0.0,0.0,0.0,0.0,0.0,0.0,0.0,0.0,0.0,0.0,0.0,0.0,0.0,0.0,0.0,0.0,0.0,0.0,0.0,0.0,0.0,0.0,0.0,0.0,0.0,0.0,0.0,0.0,0.0,0.0,0.0,0.0,0.0,0.0,0.0,0.0,0.0,0.0,0.0,0.0,0.0,0.0,0.0,0.0,0.0,0.0,0.0,0.0,0.0,0.0,0.0,0.0,0.0,0.0,0.0,0.0,0.0,0.0,0.0,0.0,0.0,0.0,0.0,0.0,0.0,0.0,0.0,0.0,0.0,0.0,0.0,0.0,0.0,0.0,0.0,-3.7219,-3.9776,-4.2325,-4.4245,-4.547,-4.4168,-4.3289,0.0,0.0,0.0,0.0,0.0,0.0,0.0,0.0,0.0,0.0,0.0,0.0,0.0,0.0,0.0,0.0,0.0,0.0,0.0,0.0,0.0,0.0,0.0,0.0,0.0,0.0,0.0,0.0,0.0,0.0,0.0,0.0,0.0,0.0,0.0,0.0,0.0,0.0,0.0,0.0,0.0,0.0,0.0,0.0,0.0,0.0,0.0,0.0,0.0,0.0,0.0,0.0,0.0,0.0,0.0,0.0,0.0,0.0,0.0,0.0,0.0,0.0,0.0,0.0,0.0,0.0,0.0,0.0,0.0,0.0,0.0,0.0,0.0,0.0,0.0,0.0,0.0,0.0,0.0,0.0,0.0,0.0,0.0,0.0,0.0,0.0,0.0,0.0,0.0,0.0,0.0,0.0,0.0,0.0,0.0,0.0,0.0,0.0,0.0,0.0,0.0,0.0,0.0,0.0,0.0,0.0,0.0,0.0,-3.757,-4.0026,-4.2554,-4.4607,-4.6091,-4.5326,-4.4523,0.0,0.0,0.0,0.0,0.0,0.0,0.0,0.0,0.0,0.0,0.0,0.0,0.0,0.0,0.0,0.0,0.0,0.0,0.0,0.0,0.0,0.0,0.0,0.0,0.0,0.0,0.0,0.0,0.0,0.0,0.0,0.0,0.0,0.0,0.0,0.0,0.0,0.0,0.0,0.0,0.0,0.0,0.0,0.0,0.0,0.0,0.0,0.0,0.0,0.0,0.0,0.0,0.0,0.0,0.0,0.0,0.0,0.0,0.0,0.0,0.0,0.0,0.0,0.0,0.0,0.0,0.0,0.0,0.0,0.0,0.0,0.0,0.0,0.0,0.0,0.0,0.0,0.0,0.0,0.0,0.0,0.0,0.0,0.0,0.0,0.0,0.0,0.0,0.0,0.0,0.0,0.0,0.0,0.0,0.0,0.0,0.0,0.0,0.0,0.0,0.0,0.0,0.0,0.0,0.0,0.0,0.0,0.0,-3.9893,-4.1744,-4.4269,-4.5752,-4.6104,-4.5289,-4.4442,0.0,0.0,0.0,0.0,0.0,0.0,0.0,0.0,0.0,0.0,0.0,0.0,0.0,0.0,0.0,0.0,0.0,0.0,0.0,0.0,0.0,0.0,0.0,0.0,0.0,0.0,0.0,0.0,0.0,0.0,0.0,0.0,0.0,0.0,0.0,0.0,0.0,0.0,0.0,0.0,0.0,0.0,0.0,0.0,0.0,0.0,0.0,0.0,-3.1419,0.0,0.0,0.0,0.0,0.0,0.0,0.0,0.0,0.0,0.0,0.0,0.0,0.0,0.0,0.0,0.0,0.0,0.0,0.0,0.0,0.0,0.0,0.0,0.0,0.0,0.0,0.0,0.0,0.0,0.0,0.0,0.0,0.0,0.0,0.0,0.0,0.0,0.0,0.0,0.0,0.0,0.0,0.0,0.0,0.0,0.0,0.0,0.0,0.0,0.0,0.0,0.0,0.0,0.0,0.0,0.0,0.0,0.0,0.0,-4.0184,-4.2275,-4.4382,-4.5682,-4.6022,-4.5614,-4.4794,0.0,0.0,0.0,0.0,0.0,0.0,0.0,0.0,0.0,0.0,0.0,0.0,0.0,0.0,0.0,0.0,0.0,0.0,0.0,0.0,0.0,0.0,0.0,0.0,0.0,0.0,0.0,0.0,0.0,0.0,0.0,0.0,0.0,0.0,0.0,0.0,0.0,0.0,0.0,0.0,0.0,0.0,0.0,0.0,0.0,0.0,0.0,0.0,0.0,0.0,0.0,0.0,0.0,0.0,0.0,0.0,0.0,0.0,0.0,0.0,0.0,0.0,0.0,0.0,0.0,0.0,0.0,0.0,0.0,0.0,0.0,0.0,0.0,0.0,0.0,0.0,0.0,0.0,0.0,0.0,0.0,0.0,0.0,0.0,0.0,0.0,0.0,0.0,0.0,0.0,0.0,0.0,0.0,0.0,0.0,0.0,0.0,0.0,0.0,0.0,0.0,0.0,0.0,0.0,0.0,0.0,0.0,-3.7165,-4.0049,-4.2448,-4.4132,-4.5381,-4.6171,-4.6061,-4.5351,-4.4031,0.0,0.0,0.0,0.0,0.0,0.0,0.0,0.0,0.0,0.0,0.0,0.0,0.0,0.0,0.0,0.0,0.0,0.0,0.0,0.0,0.0,0.0,0.0,0.0,0.0,0.0,0.0,0.0,0.0,0.0,0.0,0.0,0.0,0.0,0.0,0.0,0.0,0.0,-3.1188,-3.2416,0.0,0.0,0.0,0.0,0.0,0.0,0.0,0.0,-3.1835,0.0,0.0,0.0,0.0,0.0,0.0,0.0,0.0,0.0,0.0,0.0,0.0,0.0,0.0,0.0,0.0,0.0,0.0,0.0,0.0,0.0,0.0,0.0,0.0,0.0,0.0,0.0,0.0,0.0,0.0,0.0,0.0,0.0,0.0,0.0,0.0,0.0,0.0,0.0,0.0,0.0,0.0,0.0,0.0,0.0,0.0,0.0,0.0,0.0,0.0,0.0,0.0,0.0,0.0,0.0,0.0,-3.5579,-3.8951,-4.1571,-4.3351,-4.4967,-4.6205,-4.7026,-4.6323,-4.5847,-4.5638,0.0,0.0,0.0,0.0,0.0,0.0,0.0,0.0,0.0,0.0,0.0,0.0,0.0,0.0,0.0,0.0,0.0,0.0,0.0,0.0,0.0,0.0,0.0,0.0,0.0,0.0,0.0,0.0,0.0,0.0,0.0,0.0,0.0,0.0,0.0,0.0,0.0,0.0,0.0,-3.3228,-3.3417,0.0,0.0,0.0,0.0,0.0,0.0,0.0,0.0,-3.1571,0.0,0.0,0.0,0.0,0.0,0.0,0.0,0.0,0.0,0.0,0.0,0.0,0.0,0.0,0.0,0.0,0.0,0.0,0.0,0.0,0.0,0.0,0.0,0.0,0.0,0.0,0.0,0.0,0.0,0.0,0.0,0.0,0.0,0.0,0.0,0.0,0.0,0.0,0.0,0.0,0.0,0.0,0.0,0.0,0.0,0.0,0.0,0.0,0.0,0.0,0.0,0.0,0.0,0.0,0.0,-3.6047,-3.9362,-4.19,-4.3509,-4.5167,-4.6183,-4.6551,-4.6144,-4.5927,0.0,0.0,0.0,0.0,0.0,0.0,0.0,0.0,0.0,0.0,0.0,0.0,0.0,0.0,0.0,0.0,0.0,0.0,0.0,0.0,0.0,0.0,0.0,0.0,0.0,0.0,0.0,0.0,0.0,0.0,0.0,0.0,0.0,0.0,0.0,0.0,0.0,0.0,0.0,0.0,-3.3737,-3.4016,-3.3986,0.0,0.0,0.0,0.0,0.0,0.0,-3.2853,-3.2551,0.0,0.0,0.0,0.0,0.0,0.0,0.0,0.0,0.0,0.0,0.0,0.0,0.0,0.0,0.0,0.0,0.0,0.0,0.0,0.0,0.0,0.0,0.0,0.0,0.0,0.0,0.0,0.0,0.0,0.0,0.0,0.0,0.0,0.0,0.0,0.0,0.0,0.0,0.0,0.0,0.0,0.0,0.0,0.0,0.0,0.0,0.0,0.0,0.0,0.0,0.0,0.0,0.0,0.0,0.0,-3.6281,-3.946,-4.1858,-4.3467,-4.5153,-4.6044,-4.6145,-4.5996,-4.6007,0.0,0.0,0.0,0.0,0.0,0.0,0.0,0.0,0.0,0.0,0.0,0.0,0.0,0.0,0.0,0.0,0.0,0.0,0.0,0.0,0.0,0.0,0.0,0.0,0.0,0.0,0.0,0.0,0.0,0.0,0.0,0.0,0.0,0.0,0.0,0.0,0.0,0.0,0.0,0.0,0.0,-3.4779,-3.4603,-3.3994,0.0,0.0,0.0,0.0,-3.4377,-3.404,0.0,0.0,0.0,0.0,0.0,0.0,0.0,0.0,0.0,0.0,0.0,0.0,0.0,0.0,0.0,0.0,0.0,0.0,0.0,0.0,0.0,0.0,0.0,0.0,0.0,0.0,0.0,0.0,0.0,0.0,0.0,0.0,0.0,0.0,0.0,0.0,0.0,0.0,0.0,0.0,0.0,0.0,0.0,0.0,0.0,0.0,0.0,0.0,0.0,0.0,0.0,0.0,0.0,0.0,0.0,0.0,-3.714,-3.9759,-4.1887,-4.3463,-4.5147,-4.6305,-4.6936,-4.6274,-4.6267,0.0,0.0,0.0,0.0,0.0,0.0,0.0,0.0,0.0,0.0,0.0,0.0,0.0,0.0,0.0,0.0,0.0,0.0,0.0,0.0,0.0,0.0,0.0,0.0,0.0,0.0,0.0,0.0,0.0,0.0,0.0,0.0,0.0,0.0,0.0,0.0,0.0,0.0,0.0,0.0,0.0,-3.5398,-3.4694,-3.4523,-3.42,0.0,0.0,-3.3571,-3.4546,-3.4597,0.0,0.0,0.0,0.0,0.0,0.0,0.0,0.0,0.0,0.0,0.0,0.0,0.0,0.0,0.0,0.0,0.0,0.0,0.0,0.0,0.0,0.0,0.0,0.0,0.0,0.0,0.0,0.0,0.0,0.0,0.0,0.0,0.0,0.0,0.0,0.0,0.0,0.0,0.0,0.0,0.0,0.0,0.0,0.0,0.0,0.0,0.0,0.0,0.0,0.0,0.0,0.0,0.0,0.0,0.0,-3.4662,-3.7227,-3.975,-4.1828,-4.3418,-4.5074,-4.6074,-4.6358,-4.6025,-4.5808,0.0,0.0,0.0,0.0,0.0,0.0,0.0,0.0,0.0,0.0,0.0,0.0,0.0,0.0,0.0,0.0,0.0,0.0,0.0,0.0,0.0,0.0,0.0,0.0,0.0,0.0,0.0,0.0,0.0,0.0,0.0,0.0,0.0,0.0,0.0,0.0,0.0,0.0,0.0,0.0,0.0,0.0,-3.5376,-3.495,0.0,0.0,0.0,-3.5328,-3.6657,0.0,0.0,0.0,0.0,0.0,0.0,0.0,0.0,0.0,0.0,0.0,0.0,0.0,0.0,0.0,0.0,0.0,0.0,0.0,0.0,0.0,0.0,0.0,0.0,0.0,0.0,0.0,0.0,0.0,0.0,0.0,0.0,0.0,0.0,0.0,0.0,0.0,0.0,0.0,0.0,0.0,0.0,0.0,0.0,0.0,0.0,0.0,0.0,0.0,0.0,0.0,0.0,0.0,0.0,0.0,0.0,0.0,-3.7508,-4.0036,-4.1987,-4.3373,-4.5021,-4.5845,-4.5758,-4.5572,0.0,0.0,0.0,0.0,0.0,0.0,0.0,0.0,0.0,0.0,0.0,0.0,0.0,0.0,0.0,0.0,0.0,0.0,0.0,0.0,0.0,0.0,0.0,0.0,0.0,0.0,0.0,-2.9295,0.0,0.0,0.0,0.0,0.0,0.0,0.0,0.0,0.0,0.0,0.0,0.0,0.0,0.0,-3.6128,-3.6214,-3.5903,-3.6139,0.0,0.0,-3.709,-3.8339,-3.8747,-3.8512,0.0,0.0,0.0,0.0,0.0,0.0,0.0,0.0,0.0,0.0,0.0,0.0,0.0,0.0,0.0,0.0,0.0,0.0,0.0,0.0,0.0,0.0,0.0,0.0,0.0,0.0,0.0,0.0,0.0,0.0,0.0,0.0,0.0,0.0,0.0,0.0,0.0,0.0,0.0,0.0,0.0,0.0,0.0,0.0,0.0,0.0,0.0,0.0,0.0,0.0,0.0,0.0,0.0,0.0,0.0,-3.8376,-4.0857,-4.2524,-4.3405,-4.4989,-4.5757,-4.5613,-4.494,-4.4519,0.0,0.0,0.0,0.0,0.0,0.0,0.0,0.0,0.0,0.0,0.0,0.0,0.0,0.0,0.0,0.0,0.0,0.0,0.0,0.0,0.0,0.0,0.0,0.0,0.0,0.0,0.0,0.0,0.0,0.0,0.0,0.0,0.0,0.0,0.0,0.0,0.0,0.0,0.0,0.0,0.0,-3.6973,-3.7074,-3.7764,-3.8294,0.0,0.0,-3.847,-3.8584,-3.9221,-3.918,-3.7547,0.0,0.0,0.0,0.0,0.0,0.0,0.0,0.0,0.0,0.0,0.0,0.0,0.0,0.0,0.0,0.0,0.0,0.0,0.0,0.0,0.0,0.0,0.0,0.0,0.0,0.0,0.0,0.0,0.0,0.0,0.0,0.0,0.0,0.0,0.0,0.0,0.0,0.0,0.0,0.0,0.0,0.0,0.0,0.0,0.0,0.0,0.0,0.0,0.0,0.0,0.0,0.0,0.0,-3.6747,-3.9229,-4.1186,-4.2825,-4.4104,-4.5193,-4.5688,-4.5601,-4.4823,-4.4122,0.0,0.0,0.0,0.0,0.0,0.0,0.0,0.0,0.0,0.0,0.0,0.0,0.0,0.0,0.0,0.0,0.0,0.0,0.0,0.0,0.0,0.0,0.0,0.0,0.0,0.0,0.0,0.0,-3.0454,-3.0695,-3.1864,0.0,0.0,0.0,0.0,0.0,0.0,0.0,0.0,0.0,0.0,-3.7091,-3.7184,-3.7994,0.0,0.0,-3.9413,-3.9568,-4.0071,-3.9948,-3.9397,-3.8224,-3.7895,0.0,0.0,0.0,0.0,0.0,0.0,0.0,0.0,0.0,0.0,0.0,0.0,0.0,0.0,0.0,0.0,0.0,0.0,0.0,0.0,0.0,0.0,0.0,0.0,0.0,0.0,0.0,0.0,0.0,0.0,0.0,0.0,0.0,0.0,0.0,0.0,0.0,0.0,0.0,0.0,0.0,0.0,0.0,0.0,0.0,0.0,0.0,0.0,0.0,0.0,0.0,0.0,-3.7468,-3.9701,-4.1567,-4.3228,-4.4596,-4.5329,-4.5662,-4.5538,-4.4504,-4.3595,0.0,0.0,0.0,0.0,0.0,0.0,0.0,0.0,0.0,0.0,0.0,0.0,0.0,0.0,0.0,0.0,0.0,0.0,0.0,0.0,0.0,0.0,0.0,0.0,0.0,0.0,0.0,0.0,-3.1373,-3.1644,-3.1988,0.0,0.0,0.0,0.0,0.0,0.0,0.0,0.0,0.0,0.0,-3.7639,-3.7927,-3.8764,-3.957,-4.0173,-4.0271,-4.0465,-4.1023,-4.0373,-3.9507,-3.8644,0.0,0.0,0.0,0.0,0.0,0.0,0.0,0.0,0.0,0.0,0.0,0.0,0.0,0.0,0.0,0.0,0.0,0.0,0.0,0.0,0.0,0.0,0.0,0.0,0.0,0.0,0.0,0.0,0.0,0.0,-3.4616,0.0,0.0,0.0,0.0,0.0,0.0,0.0,0.0,0.0,0.0,0.0,0.0,0.0,0.0,0.0,0.0,0.0,0.0,0.0,0.0,0.0,0.0,-3.8021,-3.9711,-4.2101,-4.3768,-4.4608,-4.5318,-4.564,-4.5465,-4.389,-4.2964,-4.2775,0.0,0.0,0.0,0.0,0.0,0.0,0.0,0.0,0.0,0.0,0.0,0.0,0.0,0.0,0.0,0.0,0.0,0.0,0.0,0.0,0.0,0.0,0.0,0.0,0.0,0.0,-3.2051,-3.2822,-3.2981,0.0,0.0,0.0,0.0,0.0,0.0,0.0,0.0,0.0,0.0,-3.7374,-3.8772,-3.9614,-4.0486,-4.0996,-4.1031,-4.106,-4.1069,-4.1078,-4.0364,-3.9496,0.0,0.0,0.0,0.0,0.0,0.0,0.0,0.0,0.0,0.0,0.0,0.0,0.0,0.0,0.0,0.0,0.0,0.0,0.0,0.0,0.0,0.0,0.0,0.0,0.0,0.0,0.0,-3.744,-3.744,0.0,0.0,0.0,0.0,0.0,0.0,0.0,0.0,0.0,0.0,0.0,-3.8458,-3.9268,0.0,0.0,0.0,0.0,0.0,0.0,0.0,0.0,0.0,0.0,0.0,0.0,-3.8871,-4.0516,-4.2415,-4.404,-4.5341,-4.5603,-4.5622,-4.5419,-4.3817,-4.238,-4.1262,0.0,0.0,0.0,0.0,0.0,0.0,0.0,0.0,0.0,0.0,0.0,0.0,0.0,0.0,0.0,0.0,0.0,0.0,0.0,0.0,0.0,0.0,0.0,0.0,0.0,-3.2283,0.0,0.0,0.0,0.0,0.0,0.0,0.0,0.0,0.0,0.0,0.0,-3.5229,-3.5873,-3.7913,-3.9494,-3.9816,-4.0585,-4.1112,0.0,0.0,0.0,0.0,0.0,0.0,0.0,0.0,0.0,0.0,0.0,0.0,0.0,0.0,-3.8429,-3.5585,-3.5051,-3.5062,-3.5067,0.0,0.0,0.0,0.0,0.0,0.0,0.0,0.0,0.0,0.0,0.0,0.0,0.0,0.0,-3.8185,0.0,-3.7667,0.0,0.0,0.0,0.0,0.0,0.0,0.0,0.0,-3.8796,-3.9304,-4.0088,-4.0891,-4.0863,0.0,-4.0446,-3.9071,0.0,0.0,0.0,0.0,0.0,0.0,0.0,0.0,-3.9381,-4.1286,-4.265,-4.4124,-4.5669,-4.5706,-4.5423,-4.4969,-4.3283,-4.1752,-4.041,-4.0386,-4.0454,0.0,0.0,0.0,0.0,0.0,0.0,0.0,0.0,0.0,0.0,0.0,0.0,0.0,0.0,0.0,0.0,0.0,0.0,0.0,0.0,0.0,0.0,0.0,-3.334,0.0,0.0,0.0,0.0,0.0,0.0,0.0,0.0,0.0,-3.3072,-3.4698,-3.6171,-3.6803,-3.8618,-3.9935,-4.0269,0.0,0.0,0.0,0.0,0.0,0.0,0.0,-3.9596,-3.9036,-3.8967,-3.9154,-3.9719,-4.0552,-4.1279,-4.1809,0.0,0.0,-3.8134,-3.7433,-3.7214,-3.7227,-3.7671,-3.7977,-3.7675,-3.8321,-3.8824,0.0,0.0,0.0,0.0,0.0,0.0,0.0,0.0,-3.8312,-3.835,0.0,-3.8326,0.0,0.0,0.0,0.0,0.0,-3.7812,0.0,0.0,-4.0115,-4.0861,-4.1619,-4.242,-4.2373,-4.1771,-4.2488,-4.1656,-3.9379,-3.8657,0.0,0.0,0.0,0.0,0.0,0.0,-3.9573,-4.1995,-4.2814,-4.402,-4.5623,-4.5618,-4.5166,-4.4211,-4.2441,-4.1141,-4.0396,-4.0272,-4.0279,-4.0406,-3.98,0.0,0.0,0.0,0.0,0.0,0.0,0.0,0.0,0.0,0.0,0.0,0.0,0.0,0.0,0.0,0.0,0.0,0.0,0.0,0.0,-3.373,0.0,0.0,0.0,0.0,0.0,0.0,0.0,0.0,0.0,0.0,-3.4803,-3.5566,-3.6743,-3.8463,0.0,0.0,0.0,0.0,-4.1171,-4.1108,-4.1102,-4.1091,-4.1025,-4.0365,-3.9845,-3.9789,0.0,0.0,-4.2078,-4.3019,-4.3545,-4.3665,-4.2881,-4.1993,-4.1291,-4.0287,-3.9669,-3.9653,-3.9657,-3.9423,-3.8757,-3.9188,-3.9528,-4.1915,0.0,0.0,0.0,0.0,-4.0562,-4.0899,-4.1377,-4.1421,-4.1483,-4.1448,-4.0327,0.0,0.0,0.0,0.0,0.0,0.0,-3.9755,-4.1014,-4.1813,-4.2613,-4.3369,-4.4138,-4.409,-4.3339,-4.3627,-4.2813,-4.1061,-4.0796,-3.9583,-3.7452,0.0,0.0,0.0,0.0,-4.0074,-4.1886,-4.2785,-4.4014,-4.566,-4.562,-4.5138,-4.4231,-4.3024,-4.201,-4.1189,-4.0596,-4.0314,-4.0397,-4.0308,0.0,0.0,0.0,0.0,0.0,0.0,0.0,0.0,0.0,0.0,0.0,0.0,0.0,0.0,0.0,0.0,0.0,0.0,0.0,-3.3883,-3.4952,-3.5987,0.0,0.0,0.0,0.0,0.0,0.0,0.0,0.0,0.0,-3.664,-3.7302,-3.8468,0.0,0.0,-4.1073,-4.1914,-4.1504,-4.1131,-4.1108,-4.1099,0.0,-4.0264,-4.0474,-4.051,-3.99,-4.0776,-4.2151,-4.3797,-4.3785,-4.3927,-4.5055,-4.4127,-4.3404,-4.4249,-4.2344,-4.0721,-4.0621,-4.0625,-4.0571,-4.0354,-4.0474,-4.0564,-4.3878,-4.2995,-4.2336,-4.2077,-4.2115,-4.2141,-4.2382,-4.2766,-4.2824,-4.2889,-4.2886,-4.1948,-4.1551,-4.1554,-4.0589,0.0,0.0,0.0,-4.152,-4.2721,-4.3167,-4.379,-4.4573,-4.5006,-4.4957,-4.4532,-4.4563,-4.3905,-4.2697,-4.2705,-4.1621,-3.9595,0.0,0.0,-3.86,-3.9155,-4.0429,-4.229,-4.2876,-4.3932,-4.5565,-4.5215,-4.4575,-4.3666,-4.2776,-4.1906,-4.1065,-4.0594,-4.0368,-4.0444,-4.0516,-4.0374,0.0,0.0,0.0,0.0,0.0,0.0,0.0,0.0,0.0,0.0,0.0,-3.317,0.0,0.0,0.0,0.0,-3.4511,-3.5124,-3.5633,-3.6458,0.0,0.0,0.0,0.0,0.0,0.0,0.0,-3.6316,-3.7563,-3.8462,-3.835,-3.8789,-3.9491,-4.0487,-4.0898,-4.1289,-4.1816,0.0,-4.111,-4.1105,-4.11,-4.092,-4.0423,-4.0752,-4.102,-4.0824,-4.2208,-4.3565,-4.4563,-4.4627,-4.4905,-4.5595,-4.4924,-4.4341,-4.5356,-4.3277,-4.1562,-4.1883,-4.1712,-4.1386,-4.1064,-4.1224,-4.1468,-4.5211,-4.5173,-4.3771,-4.3242,-4.3277,-4.3277,-4.3251,-4.3167,-4.3138,-4.3127,-4.3171,-4.3175,-4.3159,-4.3084,-4.3154,0.0,-4.3,-4.3118,-4.3522,-4.4173,-4.4173,-4.4582,-4.5248,-4.5233,-4.5224,-4.5277,-4.5277,-4.4919,-4.4202,-4.4173,-4.3375,-4.178,-4.025,-3.9499,-3.9496,-3.9632,-4.0838,-4.3162,-4.3135,-4.3887,-4.5437,-4.4643,-4.379,-4.2929,-4.2116,-4.1312,-4.046,-4.0381,-4.0405,-4.0502,-4.0492,-4.0569,-4.0661,0.0,0.0,0.0,0.0,0.0,0.0,0.0,0.0,0.0,0.0,0.0,0.0,0.0,0.0,0.0,-3.6399,0.0,-3.7288,-3.7962,0.0,0.0,0.0,-3.8508,-3.8582,-3.8594,-3.8569,-3.851,0.0,0.0,-3.9789,-3.9955,-3.9998,-3.9998,-4.0623,-4.1131,-4.1189,-4.117,-4.1109,-4.11,-4.1103,-4.1101,-4.1021,-4.1159,-4.156,-4.2392,-4.3825,-4.4772,-4.4961,-4.5507,-4.6018,-4.6076,-4.5376,-4.4851,-4.489,-4.3471,-4.2455,-4.3263,-4.2675,-4.1825,-4.1106,-4.1548,-4.2107,-4.5275,-4.5337,-4.5668,-4.5773,-4.5675,-4.5724,-4.5695,-4.5607,-4.5063,-4.4815,-4.4796,-4.4202,-4.3595,-4.3024,-4.3052,-4.3032,-4.3026,-4.3661,-4.3991,-4.4085,-4.4622,-4.4968,-4.5148,-4.5136,-4.52,-4.5297,-4.5277,-4.4898,-4.4154,-4.4193,-4.3357,-4.1777,-4.1377,-4.1184,-4.1163,-4.1854,-4.2797,-4.3995,-4.3995,-4.4449,-4.5362,-4.5208,-4.4671,-4.3809,-4.2967,-4.2116,-4.1312,-4.068,-4.0379,-4.0502,-4.0492,-4.0539,-4.061,-3.9277,0.0,0.0,0.0,0.0,0.0,0.0,0.0,0.0,0.0,-3.5391,-3.5391,0.0,-3.6008,0.0,-3.7951,-3.8188,-3.8114,-3.8286,0.0,0.0,-3.8851,-3.8738,-3.9354,-3.9451,-3.9226,-3.8566,-3.9663,-4.0296,-3.9887,-4.0411,-4.0811,-4.0815,-4.0993,-4.1326,-4.1949,-4.1499,-4.1105,-4.1115,-4.1117,-4.1115,-4.1213,-4.1632,-4.2529,-4.3965,-4.4571,-4.5021,-4.5595,-4.5881,-4.6026,-4.5993,-4.5347,-4.508,-4.5565,-4.3831,-4.2665,-4.3185,-4.2287,-4.116,-4.0946,-4.1592,-4.2198,-4.5599,-4.6041,-4.6944,-4.751,-4.7767,-4.7384,-4.7211,-4.7173,-4.6781,-4.6407,-4.6004,-4.5188,-4.4545,-4.4095,-4.414,-4.414,-4.4095,-4.4528,-4.47,-4.4659,-4.4993,-4.5148,-4.5148,-4.5148,-4.5211,-4.5277,-4.5277,-4.5079,-4.469,-4.4729,-4.4086,-4.2893,-4.3272,-4.3263,-4.2809,-4.2247,-4.2516,-4.3663,-4.4411,-4.4969,-4.5341,-4.535,-4.4775,-4.356,-4.3082,-4.2288,-4.1107,-4.0652,-4.0471,-4.0538,-4.0543,-4.0558,-4.0546,-3.9718,-3.9064,0.0,0.0,0.0,0.0,0.0,0.0,0.0,0.0,0.0,0.0,0.0,-3.7665,-3.897,-3.9412,-3.9609,-3.9552,-3.9536,-3.9727,-4.0217,-3.9871,-3.9797,-4.0232,-4.0321,-4.014,-3.9678,-4.0485,-4.093,-4.0465,-4.08,-4.1103,-4.1103,-4.1108,-4.1265,-4.1654,-4.138,-4.1101,-4.1111,-4.1427,-4.1834,-4.2184,-4.2927,-4.3746,-4.4604,-4.5142,-4.5527,-4.5929,-4.5982,-4.5982,-4.5963,-4.5653,-4.5352,-4.5381,-4.4064,-4.2883,-4.2655,-4.1835,-4.101,-4.0908,-4.1256,-4.1662,-4.5899,-4.6695,-4.7665,-4.8462,-4.9019,-4.8414,-4.8212,-4.8259,-4.8029,-4.749,-4.6673,-4.5913,-4.5532,-4.541,-4.5513,-4.5504,-4.5419,-4.539,-4.538,-4.5369,-4.5246,-4.5192,-4.5192,-4.5192,-4.5254,-4.5307,-4.5307,-4.5347,-4.5408,-4.5409,-4.4978,-4.4199,-4.4974,-4.4898,-4.3847,-4.1812,-4.1601,-4.3195,-4.4576,-4.5227,-4.5165,-4.505,-4.4237,-4.2746,-4.2709,-4.1987,-4.0485,-4.0516,-4.058,-4.0588,-4.0588,-4.0561,-4.0496,-4.04,-4.0023,0.0,-3.9243,0.0,0.0,0.0,0.0,0.0,0.0,0.0,0.0,-3.8321,-3.9078,-3.973,-4.0536,-4.0982,-4.0993,-4.0941,-4.0921,-4.0978,-4.0991,-4.098,-4.0992,-4.0902,-4.0898,-4.1007,-4.097,-4.095,-4.107,-4.1115,-4.1104,-4.1101,-4.1105,-4.1127,-4.1127,-4.1122,-4.1154,-4.1207,-4.201,-4.2842,-4.3614,-4.4358,-4.4849,-4.5012,-4.5546,-4.6047,-4.5988,-4.5982,-4.5982,-4.6002,-4.6022,-4.5784,-4.4968,-4.4108,-4.3199,-4.2431,-4.1539,-4.0927,-4.0941,-4.1191,-4.1338,-4.5544,-4.5803,-4.7357,-4.7751,-4.7386,-4.8567,-4.9106,-4.9067,-4.7721,-4.6644,-4.5836,-4.5627,-4.5466,-4.541,-4.5429,-4.5419,-4.5399,-4.5359,-4.5309,-4.5317,-4.5181,-4.5129,-4.5192,-4.5192,-4.5246,-4.5388,-4.5328,-4.5328,-4.5408,-4.5418,-4.4633,-4.3224,-4.4038,-4.3673,-4.2251,0.0,0.0,0.0,-4.4595,-4.4394,-4.4316,-4.3637,-4.2814,-4.1877,-4.1838,0.0,-4.0481,-4.0476,-4.0539,-4.0588,-4.0579,0.0,0.0,0.0,0.0,0.0,0.0,0.0,0.0,0.0,0.0,0.0,-3.8821,-3.9178,-3.925,-4.0033,-4.0308,-3.9797,-4.0485,-4.0978,-4.0917,-4.095,-4.0954,-4.0921,-4.0968,-4.0991,-4.098,-4.0457,-4.0283,-4.099,-4.0482,-4.0343,-4.0981,-4.1106,-4.1101,-4.1104,-4.1107,-4.1108,-4.111,-4.1101,-4.1364,-4.2045,-4.2795,-4.3695,-4.4551,-4.4743,-4.5079,-4.5665,-4.5881,-4.6012,-4.6021,-4.6002,-4.5982,-4.5982,-4.6042,-4.5799,-4.4924,-4.4098,-4.3185,-4.2349,-4.1494,-4.0902,-4.0921,-4.1931,-4.2691,-4.6002,0.0,-4.7693,-4.8068,0.0,-4.901,-4.9115,-4.8721,-4.7875,-4.701,-4.6165,-4.5751,-4.5495,-4.541,-4.5429,-4.5438,-4.54,-4.5319,-4.5317,-4.5338,-4.5203,-4.5162,-4.5254,-4.5254,-4.5286,-4.5348,-4.5317,-4.5317,-4.5348,-4.538,-4.4959,-4.4145,-4.4642,-4.4429,-4.3577,-4.3867,-4.4267,-4.4688,-4.4767,-4.4748,-4.4679,-4.4297,-4.3666,-4.2833,-4.2843,0.0,0.0,0.0,0.0,0.0,0.0,0.0,0.0,-4.071,0.0,-3.9763,-3.9391,-3.9227,-3.928,-3.9308,-3.9361,-3.9507,-4.0352,-4.0737,-4.0369,-4.11,-4.1414,-4.1003,-4.1689,-4.201,-4.1612,-4.1573,-4.1416,-4.1027,-4.0968,-4.0988,-4.0961,-4.0652,-4.0572,-4.0926,-4.0691,-4.0613,-4.1033,-4.1108,-4.1101,-4.11,-4.1105,-4.1106,-4.1103,-4.1116,-4.1402,-4.2238,-4.2731,-4.3512,-4.4629,-4.4883,-4.5137,-4.5892,-4.6095,-4.6047,-4.6042,-4.6026,-4.5982,-4.5963,-4.5721,-4.5177,-4.4312,-4.3447,-4.2588,-4.1771,-4.1193,-4.0897,-4.0867,-4.1507,-4.211,-4.6586,-4.8077,-4.8096,-4.8432,-4.8952,-4.9106,-4.8586,-4.7682,0.0,0.0,0.0,-4.5867,-4.5532,-4.541,-4.5467,-4.5457,-4.5371,-4.5329,-4.5317,-4.5348,-4.5256,-4.5235,-4.5297,-4.547,-4.5451,-4.5317,-4.547,-4.5451,-4.5319,-4.537,-4.5323,-4.5227,-4.5436,-4.5504,-4.541,-4.5473,-4.5116,-4.4303,-4.4873,-4.515,-4.5109,-4.5025,-4.4604,-4.3847,-4.3934,-4.3691,-4.3066,-4.3135,-4.3219,-4.3219,-4.3219,-4.2822,-4.2003,-4.1794,-4.1346,-4.0631,-4.0466,-4.0432,-4.0482,-4.0561,-4.064,-4.0713,-4.1762,-4.2015,-4.1071,-4.1733,-4.2126,-4.1966,-4.2567,-4.2668,-4.2052,-4.1985,-4.1723,-4.1036,-4.098,-4.0996,-4.0976,-4.0839,-4.0756,-4.0958,-4.0908,-4.0947,-4.1074,-4.1109,-4.1103,-4.1115,-4.1101,-4.1103,-4.1132,-4.1285,-4.1633,-4.2272,-4.267,-4.3244,-4.4457,-4.4897,-4.5239,-4.6029,-4.6132,-4.612,-4.6095,-4.6056,-4.6002,-4.5982,-4.5336,-4.4559,-4.3685,-4.3025,-4.2083,-4.1096,-4.1018,-4.111,-4.1025,-4.0926,-4.1094,-4.6567,-4.8096,-4.8096,-4.7778,-4.7317,-4.799,-4.7394,-4.6028,-4.6694,-4.6483,-4.5677,-4.5561,-4.5476,-4.541,-4.541,-4.538,-4.5328,-4.5288,-4.5256,-4.5224,-4.5256,-4.5297,-4.5326,-4.6075,-4.6058,-4.5484,-4.6096,-4.6059,-4.5448,-4.539,-4.5074,-4.4631,-4.5112,-4.5419,-4.5456,-4.6087,-4.5999,-4.5135,-4.4604,-4.4355,-4.4346,-4.3692,-4.3277,-4.3153,-4.3201,-4.3158,-4.3102,-4.3173,-4.3219,-4.3219,-4.3219,-4.3096,-4.2904,-4.217,-4.1648,-4.1461,-4.0809,-4.0432,-4.0502,-4.0569,-4.0653,-4.0848,-4.2288,-4.2579,-4.1106,-4.1714,-4.1883,-4.1139,-4.1299,-4.1212,-4.1101,-4.1184,-4.1187,-4.0941,-4.0952,-4.0996,-4.0976,-4.0411,-4.0273,-4.0968,-4.0432,-4.035,-4.0981,-4.1104,-4.11,-4.1117,-4.1098,-4.1117,-4.1208,-4.1752,-4.2194,-4.2475,-4.3038,-4.3848,-4.4585,-4.4894,-4.5269,-4.6053,-4.6152,-4.612,-4.6124,-4.6037,-4.6002,-4.5982,-4.5341,-4.454,-4.3719,-4.3428,-4.2558,-4.1318,-4.1396,-4.1789,-4.1729,-4.1283,-4.092,-4.7278,-4.874,-4.8798,-4.8586,-4.8221,-4.7682,-4.7028,-4.6297,-4.6147,-4.5869,-4.5477,-4.5485,-4.5457,-4.541,-4.5438,-4.541,-4.5348,-4.5348,-4.5277,-4.5203,-4.5256,-4.5277,-4.5345,-4.576,-4.5732,-4.5406,-4.5751,-4.5753,-4.5438,-4.54,-4.5237,-4.5015,-4.5717,-4.6119,-4.6166,-4.687,-4.6849,-4.6037,-4.5706,-4.5333,-4.4863,-4.4517,-4.4342,-4.4315,-4.4333,-4.4387,-4.4454,-4.4538,-4.455,-4.4569,-4.4569,-4.433,-4.3771,-4.29,-4.2192,-4.1743,-4.1332,-4.1146,-4.1207,-4.1713,-4.1872,-4.1601,-4.3115,-4.3379,-4.1668,-4.2307,-4.2443,-4.1631,-4.1895,-4.2009,-4.1599,-4.1602,-4.1464,-4.0989,-4.098,-4.0996,-4.0957,-4.0673,-4.059,-4.0942,-4.0736,-4.0677,-4.1035,-4.1103,-4.1116,-4.1114,-4.1114,-4.1112,-4.1148,-4.1849,-4.2236,-4.1878,-4.2442,-4.329,-4.4125,-4.4637,-4.5209,-4.6052,-4.6149,-4.6123,-4.6099,-4.6052,-4.6007,-4.5944,-4.5361,-4.4734,-4.421,-4.3394,-4.25,-4.1914,-4.1377,-4.1512,-4.1366,-4.107,-4.0881,-4.8125,-4.9663,-4.9452,-4.9375,-4.924,-4.7808,-4.7058,-4.6809,-4.6108,-4.5764,-4.5697,-4.5581,-4.5448,-4.541,-4.5448,-4.5438,-4.5389,-4.5359,-4.5297,-4.5192,-4.5235,-4.5267,-4.5324,-4.5521,-4.555,-4.5375,-4.556,-4.5609,-4.5428,-4.5419,-4.5553,-4.5812,-4.6397,-4.679,-4.698,-4.7728,-4.7687,-4.6948,-4.6961,-4.6473,-4.5467,-4.5495,-4.5495,-4.5448,-4.5475,-4.5558,-4.5616,-4.5676,-4.5692,-4.5692,-4.5692,-4.5346,-4.4608,-4.36,-4.2736,-4.2093,-4.1824,-4.1849,-4.2148,-4.298,-4.3174,-4.2479,-4.3975,-4.4227,-4.2666,-4.2925,-4.286,-4.2079,-4.2466,-4.2625,-4.1937,-4.2044,-4.1857,-4.1123,-4.1198,-4.1229,-4.1023,-4.0984,-4.1011,-4.1013,-4.1084,-4.1083,-4.1118,-4.1101,-4.1114,-4.1111,-4.1246,-4.1381,-4.1477,-4.2121,-4.2337,-4.2061,-4.227,-4.3077,-4.3826,-4.4476,-4.5222,-4.6063,-4.615,-4.6126,-4.6093,-4.6061,-4.6026,-4.5944,-4.5336,-4.4851,-4.4676,-4.3627,-4.2694,-4.236,-4.189,-4.1202,-4.095,-4.0865,-4.0823,-4.8894,-5.0238,-4.9662,-4.9297,-4.9249,-4.8366,-4.7558,-4.6906,-4.6704,-4.6676,-4.6541,-4.586,-4.5515,-4.541,-4.5429,-4.5419,-4.5398,-4.5286,-4.5181,-4.5125,-4.5181,-4.5203,-4.529,-4.6054,-4.6075,-4.5489,-4.6088,-4.6061,-4.5419,-4.5467,-4.5879,-4.658,-4.6704,-4.7076,-4.779,-4.8578,-4.8578,-4.782,-4.7862,-4.7097,-4.5601,-4.5559,-4.5605,-4.5586,-4.5586,-4.5612,-4.5682,-4.569,-4.569,-4.569,-4.569,-4.5627,-4.5325,-4.3942,-4.3038,-4.2942,-4.2231,-4.2148,-4.3007,-4.3885,-4.4037,-4.3401,-4.4776,-4.5015,-4.3389,-4.3201,-4.2563,-4.1512,-4.1755,-4.1823,-4.1103,-4.1699,-4.19,-4.1282,-4.1688,-4.1899,-4.1255,-4.0986,-4.1032,-4.1104,-4.1131,-4.1111,-4.1115,-4.1117,-4.1127,-4.1246,-4.177,-4.2178,-4.2348,-4.3015,-4.3564,-4.3441,-4.3572,-4.3914,-4.4577,-4.4818,-4.5355,-4.6043,-4.6201,-4.6158,-4.6117,-4.6095,-4.6066,-4.5929,-4.5458,-4.4967,-4.4715,-4.401,-4.3412,-4.32,-4.2607,-4.1798,-4.115,-4.0997,-4.1056,-4.9469,-5.0493,-5.0179,-5.0074,-4.995,-4.9163,-4.8616,-4.8308,-4.7732,-4.7242,-4.681,-4.6906,-4.6724,-4.6206,-4.5649,-4.538,-4.5357,-4.5286,-4.5181,-4.5049,-4.5114,-4.5159,-4.526,-4.5602,-4.5644,-4.5397,-4.5754,-4.5765,-4.5515,-4.5522,-4.5983,-4.6772,-4.7222,-4.7862,-4.8613,-4.9441,-4.9253,-4.8015,-4.7979,-4.7213,-4.5771,-4.5596,-4.5594,-4.5594,-4.5594,-4.5631,-4.5693,-4.5682,-4.5682,-4.5682,-4.5682,-4.5415,-4.4863,-4.372,-4.3094,-4.3099,-4.328,-4.3481,-4.3898,-4.4712,-4.4839,-4.4001,-4.5114,-4.5302,-4.416,-4.4032,-4.333,-4.1841,-4.1414,-4.1346,-4.1549,-4.2005,-4.2131,-4.1863,-4.2093,-4.2346,-4.2539,-4.1617,-4.1188,-4.1653,-4.1401,-4.1122,-4.1108,-4.1107,-4.1335,-4.1729,-4.2254,-4.2621,-4.3092,-4.3911,-4.4397,-4.4516,-4.484,-4.5021,-4.5067,-4.539,-4.5768,-4.6082,-4.6201,-4.6181,-4.6117,-4.6114,-4.6071,-4.6007,-4.5672,-4.5477,-4.5555,-4.487,-4.4233,-4.3968,-4.3493,-4.2737,-4.2444,-4.2363,-4.223,-4.9935,-5.0432,-5.0551,-5.0582,-5.0525,-4.9921,-4.9537,-4.9288,-4.8635,-4.8,-4.7491,-4.7815,-4.7797,-4.7319,-4.6234,-4.5685,-4.5623,-4.535,-4.5148,-4.5045,-4.5049,-4.5114,-4.517,-4.5235,-4.5307,-4.5369,-4.54,-4.5458,-4.5495,-4.5587,-4.6126,-4.706,-4.7721,-4.8494,-4.9439,-5.0136,-4.9726,-4.8478,-4.8144,-4.7319,-4.6124,-4.5729,-4.5594,-4.5594,-4.5594,-4.5612,-4.5657,-4.5684,-4.5665,-4.5665,-4.5684,-4.5359,-4.469,-4.3874,-4.3429,-4.3473,-4.402,-4.4482,-4.4705,-4.5335,-4.5436,-4.4909,-4.5425,-4.5551,-4.4933,-4.4483,-4.3704,-4.255,-4.1408,-4.1114,-4.1651,-4.2305,-4.2572,-4.2389,-4.2622,-4.3221,-4.3422,-4.2364,-4.1993,-4.2491,-4.2236,-4.1783,-4.183,-4.1905,-4.2171,-4.2646,-4.2996,-4.3281,-4.3991,-4.4768,-4.5334,-4.5334,-4.5848,-4.5877,-4.5423,-4.5699,-4.6154,-4.6199,-4.6201,-4.6181,-4.6117,-4.6114,-4.609,-4.6007,-4.6002,-4.5944,-4.5769,-4.5297,-4.4646,-4.4361,-4.4015,-4.361,-4.3236,-4.3371,-4.3012,-5.0374,-5.0424,-5.0478,-5.05,-5.0511,-5.0495,-5.0055,-4.9412,-4.9268,-4.9191,-4.8941,-4.835,-4.8348,-4.8841,-4.7184,-4.6475,-4.6371,-4.5479,-4.5038,-4.508,-4.5026,-4.5045,-4.5114,-4.517,-4.5254,-4.5328,-4.5369,-4.5429,-4.5495,-4.5587,-4.6395,-4.7857,-4.797,-4.8832,-5.0144,-5.0388,-4.9997,-4.9171,-4.8452,-4.7636,-4.6827,-4.6028,-4.571,-4.5691,-4.5633,-4.5652,-4.5614,-4.5614,-4.5614,-4.5594,-4.5603,-4.5556,-4.5421,-4.4662,-4.419,-4.4229,-4.4306,-4.469,-4.54,-4.5613,-4.5642,-4.5619,-4.5691,-4.578,-4.5561,-4.4284,-4.3401,-4.3208,-4.1774,-4.0987,-4.1256,-4.2533,-4.3144,-4.2677,-4.3828,-4.4244,-4.3757,-4.352,-4.3481,-4.3526,-4.3383,-4.3228,-4.3448,-4.3591,-4.348,-4.3739,-4.4327,-4.485,-4.5,-4.5689,-4.6115,-4.6084,-4.6133,-4.617,-4.6125,-4.6125,-4.6167,-4.6215,-4.6201,-4.6162,-4.6141,-4.6099,-4.6052,-4.6012,-4.6007,-4.5944,-4.5846,-4.5409,-4.4694,-4.4425,-4.4633,-4.437,-4.4145,-4.3613,-4.3349,-5.0382,-5.0382,-5.0371,-5.0393,-5.0446,-5.0476,-5.0319,-5.0151,-5.0082,-4.9766,-4.9392,-4.9422,-4.936,-4.9056,-4.7826,-4.6991,-4.6399,-4.5441,-4.5022,-4.5045,-4.5022,-4.5049,-4.514,-4.5192,-4.5246,-4.5367,-4.5379,-4.5438,-4.5495,-4.5522,-4.6358,-4.7742,-4.801,-4.8844,-5.0204,-5.0511,-5.012,-4.9364,-4.9,-4.826,-4.7077,-4.7105,-4.6971,-4.6471,-4.6432,-4.6163,-4.5614,-4.6124,-4.6182,-4.5633,-4.5594,-4.5344,-4.4825,-4.4523,-4.4366,-4.4397,-4.4886,-4.5329,-4.5618,-4.5657,-4.5651,-4.568,-4.5731,-4.5769,-4.5493,-4.4264,-4.3253,-4.3079,-4.233,-4.1704,-4.1922,-4.2862,-4.3712,-4.4024,-4.449,-4.5023,-4.4993,-4.4343,-4.3817,-4.4194,-4.4001,-4.3638,-4.3848,-4.3723,-4.3927,-4.4501,-4.5299,-4.5765,-4.5941,-4.6526,-4.6876,-4.6386,-4.6264,-4.6258,-4.626,-4.6206,-4.6196,-4.6212,-4.6201,-4.6162,-4.6137,-4.6114,-4.6066,-4.6007,-4.6002,-4.5982,-4.5905,-4.5822,-4.5087,-4.5165,-4.532,-4.5165,-4.5154,-4.4748,-4.4433,-5.0359,-5.0367,-5.0314,-5.0337,-5.0401,-5.0435,-5.0478,-5.0572,-5.0521,-5.0195,-4.9852,-5.0208,-5.0057,-4.9422,-4.8529,-4.7812,-4.7029,-4.571,-4.5155,-4.5406,-4.5155,-4.508,-4.5238,-4.5497,-4.5532,-4.5406,-4.5398,-4.5429,-4.5467,-4.5485,-4.6387,-4.7953,-4.801,-4.8865,-5.0294,-5.0573,-5.018,-4.9509,-4.9375,-4.8682,-4.7528,-4.7808,-4.7855,-4.7432,-4.7567,-4.7298,-4.646,-4.674,-4.6654,-4.6067,-4.5768,-4.5325,-4.4806,-4.5043,-4.5079,-4.4925,-4.5841,-4.6358,-4.6125,-4.6061,-4.6095,-4.6121,-4.5893,-4.5754,-4.5691,-4.4455,-4.3761,-4.3505,-4.2963,-4.2577,-4.3044,-4.3631,-4.4249,-4.4826,-4.5152,-4.5526,-4.6041,-4.5157,-4.4846,-4.5149,-4.5193,-4.4961,-4.4952,-4.5241,-4.5701,-4.6195,-4.6778,-4.7036,-4.6882,-4.7114,-4.7244,-4.6489,-4.6308,-4.6279,-4.6253,-4.6225,-4.6203,-4.6196,-4.617,-4.6154,-4.6132,-4.6105,-4.6066,-4.6007,-4.5982,-4.5982,-4.6002,-4.6002,-4.6002,-4.6002,-4.5901,-4.5716,-4.5794,-4.594,-4.5385,-5.0302,-5.0302,-5.0302,-5.0337,-5.0401,-5.0457,-5.05,-5.05,-5.0481,-5.0423,-5.0347,-5.0416,-5.0321,-5.0084,-4.9289,-4.891,-4.8339,-4.6345,-4.5646,-4.6157,-4.5558,-4.5243,-4.5374,-4.6137,-4.6102,-4.5441,-4.5397,-4.5427,-4.5524,-4.5659,-4.6512,-4.7857,-4.8155,-4.9019,-5.0683,-5.0614,-5.023,-4.9663,-4.9548,-4.9048,-4.824,-4.8259,-4.8279,-4.8221,-4.8817,-4.8836,-4.8048,-4.7375,-4.6904,-4.6682,-4.6018,-4.5614,-4.571,-4.6268,-4.6451,-4.6065,-4.7153,-4.7556,-4.703,-4.691,-4.6857,-4.6824,-4.6262,-4.5791,-4.5672,-4.4931,-4.437,-4.4264,-4.3802,-4.3639,-4.4367,-4.4691,-4.4883,-4.4993,-4.5613,-4.6076,-4.6142,-4.6177,-4.6193,-4.6251,-4.6641,-4.7372,-4.7612,-4.7752,-4.8118,-4.8259,-4.8517,-4.8367,-4.7744,-4.7701,-4.727,-4.672,-4.6425,-4.6323,-4.6267,-4.6203,-4.6213,-4.6199,-4.6146,-4.6113,-4.6114,-4.6071,-4.6061,-4.6007,-4.6002,-4.6002,-4.6002,-4.6007,-4.6037,-4.6042,-4.6061,-4.6104,-4.6108,-4.6054,-4.5786,-5.0302,-5.0302,-5.0302,-5.0314,-5.0344,-5.0367,-5.0382,-5.0435,-5.0435,-5.0438,-5.0489,-5.0435,-5.039,-5.0176,-4.9484,-4.9358,-4.9548,-4.7765,-4.6725,-4.6523,-4.6686,-4.6542,-4.6323,-4.6983,-4.6937,-4.6137,-4.5566,-4.5694,-4.6195,-4.633,-4.7242,-4.8645,-4.8971,-4.9577,-5.0635,-5.0673,-5.05,-5.0337,-5.0279,-4.9856,-4.9163,-4.9586,-4.9586,-4.9086,-4.9279,-4.924,-4.8971,-4.8182,-4.7182,-4.6124,-4.5748,-4.5853,-4.641,-4.673,-4.7046,-4.7419,-4.7833,-4.8148,-4.7844,-4.7339,-4.7082,-4.6924,-4.63,-4.5861,-4.5711,-4.5024,-4.4583,-4.4594,-4.4337,-4.4382,-4.4762,-4.5366,-4.5667,-4.5725,-4.5974,-4.616,-4.6219,-4.6184,-4.643,-4.6937,-4.7297,-4.7726,-4.8245,-4.8772,-4.894,-4.9005,-4.936,-4.9384,-4.8662,-4.8369,-4.8388,-4.8033,-4.7329,-4.6542,-4.6701,-4.6641,-4.6447,-4.6465,-4.6407,-4.6372,-4.6295,-4.644,-4.6348,-4.6162,-4.6124,-4.6041,-4.6041,-4.6032,-4.6066,-4.609,-4.6113,-4.613,-4.6138,-4.6006,-4.5815,-5.0302,-5.0302,-5.0302,-5.0302,-5.0302,-5.0325,-5.0356,-5.0379,-5.0382,-5.0404,-5.0457,-5.0424,-5.039,-5.0264,-4.9813,-4.982,-5.0049,-4.9063,-4.8185,-4.7453,-4.7476,-4.7407,-4.6986,-4.7131,-4.7513,-4.7264,-4.633,-4.6268,-4.7115,-4.7251,-4.7962,-4.9144,-4.9385,-4.9837,-5.0606,-5.0683,-5.0683,-5.0683,-5.0664,-5.0423,-5.0106,-5.0423,-5.0298,-4.9529,-4.9413,-4.9086,-4.8548,-4.7932,-4.7182,-4.6278,-4.6086,-4.6373,-4.6891,-4.7441,-4.7951,-4.8207,-4.8764,-4.9052,-4.8764,-4.8337,-4.7812,-4.7492,-4.6761,-4.6121,-4.5789,-4.5171,-4.4997,-4.5039,-4.5059,-4.5112,-4.534,-4.6037,-4.6499,-4.6552,-4.6255,-4.6274,-4.6464,-4.658,-4.6995,-4.7724,-4.8279,-4.8727,-4.9123,-4.9655,-4.9723,-4.9866,-5.0221,-5.028,-4.9501,-4.8974,-4.8896,-4.8465,-4.7309,-4.7008,-4.7331,-4.7137,-4.6742,-4.6727,-4.6744,-4.6751,-4.6746,-4.7198,-4.7349,-4.6892,-4.6712,-4.6332,-4.6274,-4.6139,-4.61,-4.6128,-4.6154,-4.6166,-4.6174,-4.6185,-4.6052,-5.0302,-5.0302,-5.0302,-5.0302,-5.0302,-5.0348,-5.0348,-5.0314,-5.0379,-5.0401,-5.0401,-5.0401,-5.0367,-5.0325,-5.0233,-5.0221,-5.012,-5.0128,-4.9656,-4.8922,-4.8445,-4.8067,-4.8017,-4.7455,-4.7742,-4.8479,-4.7357,-4.7178,-4.7966,-4.8095,-4.8577,-4.9413,-4.9606,-4.9875,-5.0577,-5.0683,-5.0683,-5.0683,-5.0683,-5.0654,-5.0596,-5.0673,-5.0289,-4.9452,-4.926,-4.8567,-4.7375,-4.7058,-4.6923,-4.6788,-4.6692,-4.6855,-4.7259,-4.8529,-4.8922,-4.8601,-4.9873,-5.01,-4.9812,-4.9404,-4.9006,-4.8203,-4.7403,-4.6696,-4.5861,-4.561,-4.5584,-4.5648,-4.5696,-4.5757,-4.6024,-4.6685,-4.7162,-4.7284,-4.6897,-4.6844,-4.7358,-4.7477,-4.7903,-4.8725,-4.9559,-5.0121,-5.0128,-5.0786,-5.1072,-5.1191,-5.1215,-5.0826,-5.0299,-4.9677,-4.9091,-4.8484,-4.7953,-4.7806,-4.8223,-4.7914,-4.7577,-4.7587,-4.7611,-4.7685,-4.7494,-4.7869,-4.8093,-4.766,-4.7247,-4.6842,-4.6498,-4.6363,-4.6211,-4.6141,-4.6162,-4.6197,-4.6208,-4.6199,-4.6203,-5.0302,-5.0302,-5.0302,-5.0302,-5.0302,-5.0314,-5.0314,-5.0302,-5.0333,-5.0382,-5.0344,-5.0344,-5.0352,-5.0302,-5.0314,-5.029,-5.0267,-5.0278,-5.0233,-4.9973,-4.9763,-4.9629,-4.948,-4.8793,-4.8602,-4.8919,-4.8133,-4.7994,-4.8802,-4.8951,-4.9423,-5.0308,-5.0279,-5.0423,-5.0683,-5.0683,-5.0683,-5.0683,-5.0683,-5.0683,-5.0683,-5.0683,-5.0269,-4.9452,-4.8798,-4.799,-4.7009,-4.6904,-4.6567,-4.6028,-4.6577,-4.7192,-4.7836,-4.8836,-4.9596,-4.9998,-5.038,-5.0724,-5.0477,-4.9972,-4.9238,-4.8369,-4.7611,-4.6656,-4.5786,-4.5714,-4.575,-4.5798,-4.5847,-4.5945,-4.6125,-4.6846,-4.755,-4.8133,-4.8066,-4.8049,-4.8263,-4.8394,-4.8704,-4.9524,-4.9958,-5.0384,-5.0884,-5.1174,-5.1386,-5.139,-5.1373,-5.1316,-5.0789,-5.0221,-4.9599,-4.9926,-4.9627,-4.9245,-4.8998,-4.871,-4.8525,-4.8528,-4.8691,-4.8993,-4.869,-4.8513,-4.8529,-4.8282,-4.7913,-4.7533,-4.7024,-4.6693,-4.6482,-4.6333,-4.6197,-4.6215,-4.6203,-4.6213,-4.6213,-5.0302,-5.0302,-5.0302,-5.0302,-5.0302,-5.0302,-5.0302,-5.0378,-5.0703,-5.0627,-5.0436,-5.0703,-5.0646,-5.0321,-5.0302,-5.0302,-5.0302,-5.0259,-5.0259,-5.029,-5.0221,-5.0221,-5.0061,-4.948,-4.9263,-4.9492,-4.8835,-4.8984,-4.962,-4.9836,-5.0221,-5.0558,-5.0693,-5.0683,-5.0683,-5.0683,-5.0683,-5.0683,-5.0683,-5.0683,-5.0683,-5.0683,-4.9952,-4.9086,-4.8298,-4.7721,-4.7048,-4.7221,-4.7009,-4.6605,-4.7259,-4.8182,-4.8644,-4.9471,-5.0173,-5.0673,-5.0775,-5.081,-5.0778,-5.0378,-4.976,-4.8897,-4.8023,-4.7158,-4.6362,-4.5962,-4.5769,-4.5859,-4.619,-4.6441,-4.6732,-4.7628,-4.8708,-4.9549,-4.9693,-4.9554,-4.9318,-4.9245,-4.9666,-5.0268,-5.0628,-5.0781,-5.1364,-5.1377,-5.1386,-5.1392,-5.1394,-5.1375,-5.1238,-5.0651,-5.0317,-5.0605,-5.0323,-4.9644,-4.9591,-4.9435,-4.9344,-4.937,-4.963,-4.9985,-4.9803,-4.9407,-4.934,-4.9195,-4.869,-4.8214,-4.7801,-4.7334,-4.6995,-4.6781,-4.6488,-4.6264,-4.6274,-4.6391,-4.6372,-5.0302,-5.0302,-5.029,-5.029,-5.0302,-5.029,-5.029,-5.0455,-5.0978,-5.092,-5.0538,-5.1092,-5.0832,-5.0298,-5.0267,-5.029,-5.0278,-5.02,-5.0243,-5.0255,-5.0255,-5.0255,-5.0183,-4.966,-4.966,-5.0008,-4.9584,-4.9791,-5.0235,-5.0519,-5.0644,-5.0693,-5.0692,-5.0683,-5.0693,-5.0683,-5.0683,-5.0683,-5.0683,-5.0683,-5.0683,-5.0644,-4.9971,-4.8759,-4.824,-4.7827,-4.7509,-4.774,-4.7913,-4.7212,-4.8625,-4.9163,-4.9452,-5.0192,-5.0616,-5.0701,-5.0766,-5.0821,-5.081,-5.0764,-5.0436,-4.9491,-4.8657,-4.7893,-4.6946,-4.6221,-4.5831,-4.588,-4.6707,-4.7216,-4.7845,-4.9007,-4.9951,-5.0662,-5.1039,-5.0784,-5.034,-5.0126,-5.0426,-5.1147,-5.1327,-5.138,-5.1396,-5.1388,-5.1394,-5.1392,-5.1394,-5.1394,-5.1314,-5.0941,-5.0859,-5.1128,-5.0547,-4.9689,-4.9907,-5.0182,-5.0166,-5.0196,-5.05,-5.0773,-5.0786,-5.0531,-5.0453,-5.0187,-4.9531,-4.9099,-4.8784,-4.8306,-4.765,-4.7377,-4.7157,-4.6742,-4.642,-4.6651,-4.6706,-5.0302,-5.0302,-5.0236,-5.0255,-5.029,-5.0236,-5.0236,-5.0321,-5.0512,-5.0565,-5.0331,-5.0508,-5.0453,-5.0139,-5.0188,-5.0212,-5.02,-5.0151,-5.0158,-5.0212,-5.0278,-5.0255,-5.0224,-4.9995,-5.0083,-5.0237,-5.0273,-5.0327,-5.0523,-5.0606,-5.0692,-5.0683,-5.0692,-5.0692,-5.0693,-5.0683,-5.0683,-5.0683,-5.0683,-5.0683,-5.0683,-5.0673,-5.0164,-4.9086,-4.849,-4.8086,-4.8086,-4.8663,-4.899,-4.9009,-4.9202,-4.951,-4.9644,-5.025,-5.0654,-5.0711,-5.0766,-5.0821,-5.0829,-5.0805,-5.0505,-4.9586,-4.8847,-4.7917,-4.7067,-4.6392,-4.599,-4.6067,-4.6725,-4.7938,-4.9099,-4.9615,-5.032,-5.0981,-5.1208,-5.1136,-5.0961,-5.0909,-5.1029,-5.1222,-5.1366,-5.14,-5.1396,-5.1388,-5.1392,-5.1394,-5.1394,-5.1394,-5.1273,-5.1132,-5.1223,-5.1391,-5.1046,-5.0342,-5.0435,-5.0716,-5.0689,-5.07,-5.0995,-5.1201,-5.1215,-5.12,-5.0952,-5.0655,-5.0275,-4.9921,-4.9654,-4.8647,-4.7856,-4.7841,-4.7843,-4.746,-4.7194,-4.7213,-4.6999,-5.0267,-5.0207,-5.0207,-5.0188,-5.0207,-5.0182,-5.0194,-5.0331,-5.0713,-5.0605,-5.0371,-5.0624,-5.0588,-5.0108,-5.0145,-5.0158,-5.017,-5.0175,-5.0182,-5.0194,-5.0243,-5.0278,-5.0388,-5.0574,-5.0689,-5.0386,-5.0416,-5.05,-5.0542,-5.0606,-5.0692,-5.0693,-5.0702,-5.0692,-5.0693,-5.0693,-5.0683,-5.0683,-5.0683,-5.0683,-5.0683,-5.0673,-5.0289,-4.9548,-4.8952,-4.8702,-4.8779,-4.9529,-4.9942,-4.999,-4.999,-5.0,-5.0038,-5.0442,-5.0664,-5.0712,-5.0766,-5.0784,-5.0784,-5.0822,-5.0534,-4.965,-4.9181,-4.8314,-4.762,-4.7049,-4.6952,-4.6963,-4.7763,-4.9107,-5.0309,-5.0503,-5.082,-5.1025,-5.1208,-5.12,-5.1219,-5.1201,-5.1219,-5.1277,-5.1366,-5.1386,-5.1401,-5.139,-5.1392,-5.1394,-5.1394,-5.1392,-5.1386,-5.1282,-5.1291,-5.1358,-5.1327,-5.1147,-5.116,-5.1187,-5.1133,-5.1117,-5.116,-5.1272,-5.1269,-5.1259,-5.122,-5.0967,-5.0777,-5.0734,-5.0344,-4.9244,-4.8559,-4.881,-4.8787,-4.8343,-4.8064,-4.8087,-4.7713,-5.0207,-5.0108,-5.0158,-5.0145,-5.0108,-5.0095,-5.0133,-5.0321,-5.0969,-5.076,-5.0404,-5.1008,-5.0665,-5.0196,-5.0082,-5.0082,-5.012,-5.0188,-5.0219,-5.017,-5.0255,-5.0431,-5.0668,-5.1063,-5.1127,-5.0491,-5.0692,-5.0738,-5.0581,-5.0625,-5.0692,-5.0683,-5.0711,-5.0856,-5.0875,-5.0731,-5.0808,-5.0971,-5.0808,-5.0683,-5.0683,-5.0683,-5.0308,-4.9856,-4.9644,-4.9586,-4.9702,-5.0183,-5.0625,-5.0731,-5.0808,-5.0885,-5.0875,-5.0894,-5.102,-5.1087,-5.1355,-5.1304,-5.1187,-5.1145,-5.089,-4.9911,-4.972,-4.9142,-4.8192,-4.805,-4.7951,-4.8177,-4.8757,-5.0037,-5.1053,-5.1086,-5.1122,-5.1211,-5.12,-5.1211,-5.121,-5.1206,-5.1228,-5.128,-5.1346,-5.1386,-5.1403,-5.1394,-5.1394,-5.1394,-5.1392,-5.139,-5.1384,-5.1372,-5.1358,-5.1343,-5.133,-5.1261,-5.1272,-5.1295,-5.13,-5.13,-5.1316,-5.13,-5.13,-5.1284,-5.1295,-5.1449,-5.1361,-5.1254,-5.0967,-5.015,-4.978,-4.9975,-4.9642,-4.9087,-4.8927,-4.8957,-4.8463,-5.012,-5.0095,-5.0038,-5.0057,-5.0095,-5.0044,-5.0095,-5.0194,-5.0435,-5.0322,-5.019,-5.0335,-5.0355,-5.0005,-4.9986,-4.9999,-5.0057,-5.017,-5.02,-5.0194,-5.0343,-5.0653,-5.1209,-5.1679,-5.1553,-5.1393,-5.1408,-5.1198,-5.0657,-5.0635,-5.0692,-5.0721,-5.0816,-5.1066,-5.1328,-5.1145,-5.1126,-5.1366,-5.102,-5.0702,-5.0683,-5.0664,-5.0625,-5.0356,-5.0394,-5.0471,-5.05,-5.0596,-5.0683,-5.0741,-5.1337,-5.1625,-5.1741,-5.1741,-5.2107,-5.2464,-5.2617,-5.2345,-5.1848,-5.1912,-5.159,-5.0889,-5.0248,-4.9821,-4.9239,-4.8934,-4.8815,-4.8866,-4.9337,-5.0287,-5.1106,-5.12,-5.12,-5.1211,-5.1206,-5.1214,-5.1208,-5.1201,-5.1297,-5.1456,-5.146,-5.1483,-5.1598,-5.155,-5.1394,-5.1392,-5.139,-5.139,-5.1388,-5.1369,-5.1349,-5.133,-5.1331,-5.128,-5.122,-5.1282,-5.1295,-5.1328,-5.1319,-5.1323,-5.1312,-5.13,-5.1402,-5.1954,-5.1853,-5.1512,-5.1157,-5.0782,-5.0646,-5.0568,-5.0183,-4.9776,-4.9812,-4.9784,-4.936,-5.0038,-4.9986,-4.9986,-5.0005,-4.9986,-4.9978,-4.9986,-5.0152,-5.0545,-5.0501,-5.0311,-5.0539,-5.0475,-5.0087,-4.9973,-4.9986,-5.0038,-5.0182,-5.0231,-5.0281,-5.076,-5.1154,-5.1756,-5.2353,-5.2212,-5.2,-5.2016,-5.1631,-5.0636,-5.0644,-5.0721,-5.0846,-5.1171,-5.1662,-5.1847,-5.1645,-5.1597,-5.1742,-5.1164,-5.0683,-5.0683,-5.0663,-5.0653,-5.075,-5.1067,-5.1259,-5.1318,-5.1318,-5.1318,-5.1395,-5.1673,-5.2115,-5.2538,-5.2991,-5.3242,-5.334,-5.3359,-5.3008,-5.2343,-5.221,-5.168,-5.0558,-5.0371,-5.0007,-4.9664,-4.952,-4.9848,-5.002,-5.0162,-5.0717,-5.1166,-5.1222,-5.1217,-5.1203,-5.1239,-5.1253,-5.125,-5.1244,-5.1535,-5.1803,-5.1593,-5.1695,-5.2052,-5.1882,-5.1511,-5.1392,-5.1388,-5.1388,-5.1388,-5.1369,-5.132,-5.1296,-5.1292,-5.1263,-5.1269,-5.1405,-5.1338,-5.1331,-5.1622,-5.1603,-5.1615,-5.1732,-5.2325,-5.2996,-5.2621,-5.1935,-5.1711,-5.1463,-5.1317,-5.1108,-5.0773,-5.0538,-5.0637,-5.0548,-5.0107,-4.9986,-4.9893,-4.9946,-4.9933,-4.9893,-4.9893,-5.0066,-5.0347,-5.0764,-5.0721,-5.0417,-5.076,-5.0627,-5.0151,-4.9999,-5.0012,-5.0038,-5.02,-5.0255,-5.0462,-5.117,-5.1653,-5.205,-5.2784,-5.303,-5.1878,-5.2176,-5.1979,-5.0823,-5.0635,-5.0797,-5.1172,-5.1834,-5.2229,-5.2316,-5.2068,-5.2088,-5.1751,-5.1154,-5.0712,-5.0673,-5.0643,-5.0643,-5.076,-5.1412,-5.1797,-5.1808,-5.2077,-5.2154,-5.2231,-5.2452,-5.2799,-5.3472,-5.428,-5.4445,-5.3947,-5.3841,-5.3421,-5.2991,-5.2589,-5.2103,-5.092,-5.0951,-5.0322,-5.005,-5.0561,-5.1369,-5.1456,-5.1461,-5.1477,-5.158,-5.1312,-5.136,-5.1525,-5.1567,-5.1564,-5.1781,-5.1993,-5.2358,-5.2321,-5.1882,-5.1907,-5.2321,-5.1896,-5.1445,-5.1399,-5.1394,-5.1401,-5.1379,-5.1361,-5.1317,-5.1265,-5.1252,-5.1225,-5.1327,-5.159,-5.1475,-5.1319,-5.1938,-5.2373,-5.232,-5.2329,-5.3072,-5.3799,-5.3088,-5.246,-5.2288,-5.1972,-5.1436,-5.1169,-5.1196,-5.1157,-5.1025,-5.0979,-5.0765,-4.9925,-4.9893,-4.9893,-4.9893,-4.9893,-4.9893,-5.0356,-5.0954,-5.0537,-5.0575,-5.0897,-5.055,-5.0303,-5.0037,-5.007,-5.012,-5.0151,-5.0212,-5.029,-5.049,-5.1243,-5.1679,-5.1809,-5.2625,-5.2633,-5.1869,-5.1924,-5.1449,-5.0942,-5.0817,-5.1172,-5.1757,-5.2159,-5.2477,-5.3115,-5.2567,-5.2077,-5.1895,-5.1154,-5.0683,-5.0683,-5.0692,-5.0692,-5.0894,-5.1481,-5.2009,-5.2192,-5.2635,-5.3029,-5.3126,-5.376,-5.4164,-5.4472,-5.5107,-5.5535,-5.5576,-5.5528,-5.5284,-5.4433,-5.3691,-5.2931,-5.1813,-5.1507,-5.1144,-5.0969,-5.1377,-5.2146,-5.2355,-5.2297,-5.2246,-5.2101,-5.1668,-5.1736,-5.2013,-5.2288,-5.2716,-5.3019,-5.2601,-5.3005,-5.3116,-5.274,-5.2522,-5.262,-5.196,-5.1396,-5.1386,-5.14,-5.1389,-5.1386,-5.1349,-5.13,-5.1241,-5.1302,-5.1293,-5.1639,-5.1862,-5.2005,-5.1677,-5.2308,-5.3075,-5.3038,-5.3116,-5.3879,-5.4237,-5.3565,-5.3277,-5.3321,-5.278,-5.1692,-5.1206,-5.1205,-5.1201,-5.1191,-5.1191,-5.1189,-4.9893,-4.9893,-4.9893,-4.9893,-4.9893,-4.9893,-5.0115,-5.0559,-5.1133,-5.1033,-5.0781,-5.1264,-5.0935,-5.017,-5.0101,-5.0139,-5.0163,-5.0236,-5.0337,-5.0585,-5.1231,-5.1675,-5.1908,-5.2494,-5.2524,-5.1896,-5.1794,-5.1875,-5.1453,-5.147,-5.1776,-5.2206,-5.3099,-5.3812,-5.3846,-5.3221,-5.2934,-5.2434,-5.1549,-5.075,-5.0702,-5.0682,-5.0673,-5.076,-5.1941,-5.248,-5.2827,-5.3472,-5.3895,-5.3991,-5.4374,-5.4419,-5.4611,-5.5141,-5.5654,-5.5747,-5.5827,-5.5525,-5.4882,-5.4098,-5.3275,-5.2466,-5.1707,-5.1202,-5.1377,-5.1979,-5.2496,-5.2466,-5.2488,-5.2572,-5.266,-5.2232,-5.2266,-5.2529,-5.3054,-5.3423,-5.3764,-5.3565,-5.3472,-5.3565,-5.3591,-5.3254,-5.2854,-5.2275,-5.1693,-5.1378,-5.1391,-5.1397,-5.1372,-5.1333,-5.1296,-5.1225,-5.1313,-5.14,-5.1896,-5.23,-5.2812,-5.2769,-5.3089,-5.3658,-5.3685,-5.3981,-5.4688,-5.4962,-5.4562,-5.4401,-5.4378,-5.3374,-5.208,-5.1586,-5.12,-5.1259,-5.1313,-5.1254,-5.1243,-4.9893,-4.9893,-4.9893,-4.9893,-4.9893,-4.9893,-5.0063,-5.0391,-5.1206,-5.113,-5.074,-5.1269,-5.103,-5.0291,-5.0114,-5.0163,-5.0145,-5.0314,-5.0382,-5.0714,-5.1198,-5.1538,-5.1694,-5.2165,-5.2263,-5.1545,-5.1421,-5.1443,-5.1741,-5.2162,-5.2556,-5.2782,-5.3975,-5.4409,-5.4218,-5.3674,-5.3175,-5.2647,-5.1684,-5.1125,-5.1068,-5.1028,-5.1019,-5.1509,-5.2422,-5.3469,-5.3635,-5.4337,-5.478,-5.4808,-5.4806,-5.4842,-5.4935,-5.5322,-5.5673,-5.5756,-5.5836,-5.5748,-5.5083,-5.4292,-5.3307,-5.2518,-5.2037,-5.1746,-5.2076,-5.2542,-5.3079,-5.3322,-5.33,-5.3292,-5.3166,-5.3117,-5.3151,-5.3439,-5.3838,-5.4125,-5.4314,-5.4247,-5.4368,-5.4679,-5.448,-5.3619,-5.3182,-5.2643,-5.2081,-5.1518,-5.1366,-5.1427,-5.1473,-5.1514,-5.1596,-5.1624,-5.176,-5.2018,-5.2616,-5.3069,-5.3483,-5.3853,-5.4157,-5.4297,-5.4381,-5.4766,-5.5424,-5.5483,-5.5365,-5.5142,-5.4923,-5.3691,-5.2519,-5.2122,-5.1749,-5.1497,-5.142,-5.1336,-5.1278,-4.9893,-4.9893,-4.9893,-4.9893,-4.9893,-4.9893,-5.0334,-5.0808,-5.0391,-5.0618,-5.0897,-5.0553,-5.0295,-5.005,-5.0133,-5.0175,-5.0207,-5.0325,-5.0416,-5.0749,-5.1263,-5.1285,-5.1325,-5.1461,-5.1663,-5.1096,-5.1135,-5.1087,-5.1346,-5.2886,-5.3683,-5.4583,-5.4824,-5.4276,-5.3864,-5.3579,-5.3041,-5.2579,-5.1933,-5.1875,-5.1818,-5.1817,-5.1827,-5.2173,-5.3346,-5.4414,-5.4453,-5.5068,-5.5338,-5.5338,-5.5374,-5.5226,-5.5154,-5.5476,-5.5673,-5.5745,-5.5836,-5.5787,-5.5357,-5.4478,-5.3365,-5.2693,-5.2426,-5.2581,-5.3054,-5.4155,-5.4678,-5.4521,-5.4325,-5.4527,-5.4441,-5.4344,-5.409,-5.4368,-5.4738,-5.5142,-5.5264,-5.5117,-5.5298,-5.5766,-5.5326,-5.4344,-5.3822,-5.3342,-5.2219,-5.1596,-5.1736,-5.1798,-5.1908,-5.1986,-5.2156,-5.2252,-5.2396,-5.2824,-5.3604,-5.4042,-5.4366,-5.4757,-5.5108,-5.516,-5.5152,-5.5638,-5.6017,-5.6067,-5.5935,-5.5707,-5.5428,-5.4621,-5.3774,-5.2883,-5.228,-5.1872,-5.1497,-5.1317,-5.1269,-4.983,-4.983,-4.9885,-4.9893,-4.9893,-4.9893,-5.0101,-5.0429,-5.0599,-5.0846,-5.113,-5.0342,-4.9939,-4.9973,-5.0082,-5.0145,-5.017,-5.0371,-5.0457,-5.0589,-5.0833,-5.0913,-5.0875,-5.101,-5.1221,-5.1318,-5.1433,-5.2213,-5.332,-5.3725,-5.4572,-5.5244,-5.5415,-5.4991,-5.4396,-5.3648,-5.3109,-5.2877,-5.2683,-5.2692,-5.2692,-5.2692,-5.2692,-5.2837,-5.3741,-5.4453,-5.4607,-5.528,-5.5299,-5.5241,-5.5459,-5.5338,-5.5151,-5.5434,-5.5632,-5.5695,-5.5816,-5.5739,-5.5435,-5.4703,-5.4056,-5.3417,-5.3248,-5.3403,-5.3908,-5.4543,-5.4912,-5.497,-5.5046,-5.5158,-5.499,-5.4801,-5.4757,-5.5199,-5.5589,-5.6013,-5.6057,-5.5828,-5.5809,-5.6095,-5.5593,-5.4786,-5.4425,-5.4121,-5.284,-5.1694,-5.1951,-5.2228,-5.2395,-5.2598,-5.2825,-5.3054,-5.3238,-5.3699,-5.4474,-5.4869,-5.5205,-5.5574,-5.5965,-5.5851,-5.575,-5.6026,-5.6336,-5.6441,-5.6442,-5.6173,-5.5909,-5.5706,-5.4947,-5.3755,-5.283,-5.211,-5.1736,-5.138,-5.1249,-4.9802,-4.983,-4.9866,-4.9906,-4.992,-4.9939,-4.9939,-5.0052,-5.0545,-5.0854,-5.0797,-5.0199,-4.9965,-5.0005,-5.0082,-5.0145,-5.0283,-5.0597,-5.064,-5.0762,-5.0882,-5.0836,-5.076,-5.0779,-5.101,-5.1529,-5.1952,-5.2618,-5.335,-5.4246,-5.4823,-5.5342,-5.5814,-5.539,-5.4631,-5.4044,-5.3512,-5.329,-5.3491,-5.3356,-5.328,-5.3453,-5.3299,-5.3453,-5.428,-5.4895,-5.5049,-5.5434,-5.5415,-5.5308,-5.5305,-5.5258,-5.5159,-5.5178,-5.555,-5.5662,-5.5719,-5.5614,-5.5283,-5.4648,-5.4465,-5.411,-5.4077,-5.4232,-5.4563,-5.5029,-5.5476,-5.5476,-5.5442,-5.5388,-5.5441,-5.5463,-5.5497,-5.5819,-5.6026,-5.6357,-5.6315,-5.6179,-5.6217,-5.6325,-5.5775,-5.5366,-5.4742,-5.4405,-5.3747,-5.2738,-5.284,-5.3077,-5.3245,-5.3446,-5.3672,-5.3925,-5.4138,-5.4702,-5.5335,-5.5556,-5.577,-5.5909,-5.6219,-5.6281,-5.6301,-5.6473,-5.6469,-5.6435,-5.6431,-5.6468,-5.6327,-5.6061,-5.5351,-5.446,-5.3419,-5.2281,-5.2028,-5.1667,-5.1341,-4.9811,-4.9898,-4.9898,-4.9952,-4.9992,-4.9986,-4.9973,-4.9992,-5.01,-5.0157,-5.0176,-5.0044,-5.0063,-5.0095,-5.0145,-5.0163,-5.039,-5.1075,-5.1204,-5.0779,-5.1207,-5.122,-5.0904,-5.0721,-5.0894,-5.0952,-5.1664,-5.2328,-5.2579,-5.414,-5.4805,-5.5103,-5.5605,-5.5576,-5.4622,-5.4484,-5.403,-5.3491,-5.4164,-5.3991,-5.3818,-5.4164,-5.4049,-5.4087,-5.478,-5.5434,-5.5491,-5.5549,-5.5511,-5.5338,-5.5491,-5.5445,-5.5232,-5.5445,-5.5651,-5.564,-5.5806,-5.5885,-5.5857,-5.458,-5.4472,-5.4912,-5.4971,-5.5184,-5.5883,-5.6194,-5.6097,-5.5961,-5.6065,-5.6142,-5.623,-5.6258,-5.6197,-5.6242,-5.6411,-5.6474,-5.6432,-5.6106,-5.6028,-5.6212,-5.6246,-5.6013,-5.5215,-5.461,-5.4327,-5.3942,-5.3868,-5.3985,-5.4171,-5.4411,-5.4694,-5.483,-5.5068,-5.533,-5.5827,-5.612,-5.632,-5.6416,-5.6437,-5.6449,-5.6461,-5.6471,-5.6457,-5.6409,-5.6425,-5.6472,-5.644,-5.6368,-5.5385,-5.4387,-5.3375,-5.247,-5.2212,-5.1896,-5.1472,-4.9249,-4.9848,-4.9885,-4.9952,-4.9992,-4.9946,-4.9946,-4.9986,-5.0025,-5.0044,-5.0031,-5.007,-5.007,-5.0082,-5.0139,-5.0238,-5.0434,-5.1178,-5.125,-5.073,-5.1455,-5.1229,-5.0904,-5.075,-5.0952,-5.1606,-5.2299,-5.3002,-5.3822,-5.4699,-5.5229,-5.5567,-5.5605,-5.5623,-5.5256,-5.4965,-5.4453,-5.4838,-5.5164,-5.5145,-5.4895,-5.5049,-5.5088,-5.4741,-5.5357,-5.5684,-5.5684,-5.5684,-5.553,-5.5241,-5.5395,-5.5448,-5.5182,-5.5305,-5.5695,-5.5724,-5.5875,-5.596,-5.6051,-5.5597,-5.5586,-5.5767,-5.5825,-5.5922,-5.6272,-5.6311,-5.6291,-5.6311,-5.6311,-5.6323,-5.6331,-5.6342,-5.6338,-5.6344,-5.6441,-5.6437,-5.6305,-5.5741,-5.5502,-5.5876,-5.6061,-5.6168,-5.5697,-5.5419,-5.5117,-5.498,-5.4903,-5.5141,-5.537,-5.5604,-5.5837,-5.5872,-5.6003,-5.6085,-5.6285,-5.6427,-5.645,-5.6429,-5.6453,-5.6471,-5.6482,-5.6482,-5.6461,-5.6425,-5.6429,-5.6448,-5.6202,-5.5857,-5.5108,-5.4188,-5.3195,-5.2383,-5.196,-5.1668,-5.1366,-4.8852,-4.9432,-4.9771,-4.9939,-4.9965,-4.9952,-4.9946,-5.0018,-5.007,-5.005,-5.007,-5.0133,-5.0158,-5.0158,-5.0194,-5.0529,-5.0751,-5.1606,-5.1676,-5.113,-5.1817,-5.1506,-5.0989,-5.0712,-5.0914,-5.1674,-5.2376,-5.3137,-5.3841,-5.4843,-5.5392,-5.5633,-5.5737,-5.5717,-5.5544,-5.5263,-5.4953,-5.5203,-5.5241,-5.5415,-5.5299,-5.5376,-5.5472,-5.5318,-5.5472,-5.5684,-5.5684,-5.5607,-5.5491,-5.5203,-5.5222,-5.5412,-5.5179,-5.5286,-5.5714,-5.5745,-5.5866,-5.6005,-5.6118,-5.6193,-5.611,-5.6194,-5.6311,-5.6311,-5.6311,-5.6311,-5.6311,-5.6311,-5.6311,-5.6317,-5.6353,-5.6364,-5.6386,-5.6393,-5.6407,-5.6398,-5.6305,-5.5765,-5.5668,-5.5979,-5.6101,-5.6184,-5.6227,-5.6247,-5.6047,-5.5979,-5.5935,-5.615,-5.6291,-5.6354,-5.6504,-5.6578,-5.6539,-5.6524,-5.6514,-5.6567,-5.6565,-5.648,-5.6464,-5.6488,-5.6498,-5.6498,-5.6453,-5.6429,-5.642,-5.6279,-5.5779,-5.5244,-5.4538,-5.3813,-5.3006,-5.2291,-5.1726,-5.1512,-5.1366,-4.8656,-4.8837,-4.957,-4.9893,-4.9906,-4.9965,-4.9973,-4.9986,-5.0082,-5.0108,-5.0108,-5.0231,-5.0267,-5.0278,-5.029,-5.0729,-5.1493,-5.2308,-5.2088,-5.2012,-5.2387,-5.1713,-5.1065,-5.0673,-5.0798,-5.1058,-5.1665,-5.2589,-5.3292,-5.4052,-5.4833,-5.5372,-5.5439,-5.5476,-5.5416,-5.5464,-5.5222,-5.5241,-5.5395,-5.5415,-5.5241,-5.5415,-5.5357,-5.528,-5.5395,-5.5645,-5.5684,-5.5665,-5.5645,-5.5607,-5.5645,-5.5632,-5.5621,-5.5662,-5.564,-5.5705,-5.5875,-5.6037,-5.6172,-5.6251,-5.6285,-5.6311,-5.6311,-5.6311,-5.6291,-5.6291,-5.6285,-5.6285,-5.6285,-5.6291,-5.6304,-5.6309,-5.6314,-5.6342,-5.6373,-5.6378,-5.6369,-5.6218,-5.6183,-5.6281,-5.6305,-5.6353,-5.6381,-5.644,-5.6403,-5.6305,-5.6163,-5.6202,-5.6324,-5.6363,-5.6563,-5.6923,-5.688,-5.6821,-5.6782,-5.6678,-5.6593,-5.6469,-5.6482,-5.6497,-5.6488,-5.6491,-5.6453,-5.6433,-5.6411,-5.6125,-5.5555,-5.4816,-5.3993,-5.3337,-5.302,-5.2596,-5.2161,-5.1763,-5.1633,-4.8973,-4.957,-4.9798,-4.9893,-4.9912,-4.9925,-4.9965,-5.0018,-5.0133,-5.0139,-5.0108,-5.0243,-5.0278,-5.0243,-5.0278,-5.0844,-5.162,-5.2244,-5.2184,-5.2269,-5.246,-5.1749,-5.1151,-5.0654,-5.0693,-5.0972,-5.1472,-5.204,-5.2453,-5.3184,-5.3646,-5.3916,-5.4657,-5.482,-5.5156,-5.5415,-5.5357,-5.5415,-5.5588,-5.5453,-5.5357,-5.5549,-5.5434,-5.5472,-5.5491,-5.5684,-5.5684,-5.5684,-5.5684,-5.5684,-5.5684,-5.5673,-5.5692,-5.5703,-5.5714,-5.5807,-5.5959,-5.6106,-5.6199,-5.6271,-5.6291,-5.6291,-5.6311,-5.6311,-5.6285,-5.6278,-5.6272,-5.6272,-5.6252,-5.6252,-5.6298,-5.6303,-5.6327,-5.6361,-5.6388,-5.6403,-5.6354,-5.6173,-5.6173,-5.6396,-5.6425,-5.642,-5.6453,-5.6426,-5.6388,-5.6361,-5.635,-5.6389,-5.6453,-5.6511,-5.6694,-5.7074,-5.7099,-5.6982,-5.6757,-5.6613,-5.6539,-5.6492,-5.6482,-5.6494,-5.6482,-5.6484,-5.6473,-5.6453,-5.6435,-5.5954,-5.5283,-5.4636,-5.4203,-5.3807,-5.3483,-5.3038,-5.2624,-5.2344,-5.2219,-4.8943,-4.9457,-4.9779,-4.9898,-4.9871,-4.9898,-4.9912,-4.9952,-5.005,-5.0089,-5.012,-5.0219,-5.0255,-5.0255,-5.0328,-5.076,-5.1608,-5.1964,-5.2007,-5.1966,-5.2257,-5.1527,-5.0928,-5.0682,-5.0683,-5.0933,-5.1183,-5.1559,-5.1991,-5.2741,-5.3318,-5.3857,-5.4126,-5.4414,-5.4876,-5.5184,-5.5357,-5.553,-5.5684,-5.5684,-5.5684,-5.5684,-5.5684,-5.5684,-5.5684,-5.5684,-5.5684,-5.5684,-5.5684,-5.5684,-5.5684,-5.5684,-5.5703,-5.5714,-5.5756,-5.5866,-5.5941,-5.6073,-5.6172,-5.6238,-5.6272,-5.6285,-5.6278,-5.6252,-5.6246,-5.6232,-5.6239,-5.6239,-5.6232,-5.6219,-5.6272,-5.6309,-5.6358,-5.6406,-5.6402,-5.6422,-5.6222,-5.6007,-5.6152,-5.6414,-5.6472,-5.6464,-5.645,-5.6442,-5.6441,-5.6489,-5.6584,-5.6691,-5.6755,-5.6833,-5.7009,-5.7323,-5.7245,-5.7103,-5.6844,-5.6617,-5.6523,-5.6488,-5.648,-5.6491,-5.6503,-5.6515,-5.6539,-5.6507,-5.6455,-5.592,-5.538,-5.5137,-5.4753,-5.4355,-5.4146,-5.4029,-5.3674,-5.326,-5.3227,-4.8717,-4.8812,-4.9538,-4.9857,-4.9816,-4.989,-4.9857,-4.9835,-4.9952,-5.0044,-5.0108,-5.0163,-5.0243,-5.0278,-5.0321,-5.0799,-5.141,-5.1754,-5.1811,-5.1601,-5.1802,-5.1333,-5.0841,-5.0702,-5.0837,-5.0779,-5.0981,-5.151,-5.1991,-5.2577,-5.326,-5.4299,-5.3865,-5.4105,-5.5009,-5.5047,-5.525,-5.5607,-5.5684,-5.5684,-5.5684,-5.5684,-5.5684,-5.5684,-5.5684,-5.5684,-5.5684,-5.5684,-5.5684,-5.5684,-5.5684,-5.5684,-5.5684,-5.5695,-5.5766,-5.5847,-5.5923,-5.602,-5.6122,-5.6209,-5.6251,-5.6239,-5.6239,-5.6218,-5.6211,-5.6197,-5.619,-5.6223,-5.6197,-5.6211,-5.6246,-5.6272,-5.6297,-5.6353,-5.6381,-5.6402,-5.633,-5.6188,-5.627,-5.6533,-5.6781,-5.6777,-5.6913,-5.6982,-5.7403,-5.7097,-5.712,-5.7287,-5.7139,-5.7242,-5.7192,-5.7376,-5.7128,-5.6981,-5.697,-5.6738,-5.6543,-5.6488,-5.657,-5.6742,-5.6913,-5.6812,-5.6608,-5.6546,-5.6444,-5.6076,-5.5633,-5.5502,-5.5321,-5.4908,-5.4807,-5.5032,-5.4768,-5.429,-5.4134,-4.8698,-4.878,-4.9503,-4.983,-4.9871,-4.983,-4.9843,-4.9885,-4.9893,-4.9973,-5.0095,-5.0163,-5.0224,-5.029,-5.0302,-5.076,-5.136,-5.141,-5.1582,-5.1536,-5.1568,-5.1291,-5.0818,-5.1132,-5.1134,-5.1068,-5.125,-5.1635,-5.1942,-5.2259,-5.2672,-5.3486,-5.3563,-5.4323,-5.4949,-5.4938,-5.5314,-5.5665,-5.5673,-5.5684,-5.5684,-5.5684,-5.5684,-5.5684,-5.5684,-5.5684,-5.5684,-5.5684,-5.5684,-5.5684,-5.5684,-5.5684,-5.5684,-5.5684,-5.5766,-5.5866,-5.5904,-5.5995,-5.607,-5.6172,-5.6209,-5.6204,-5.6204,-5.6221,-5.6206,-5.6137,-5.6137,-5.6172,-5.6187,-5.619,-5.6218,-5.6239,-5.6259,-5.6303,-5.6339,-5.6386,-5.6432,-5.6417,-5.6427,-5.6738,-5.7026,-5.722,-5.7381,-5.7677,-5.8157,-5.8354,-5.842,-5.837,-5.7871,-5.7703,-5.7139,-5.7152,-5.6835,-5.671,-5.6788,-5.68,-5.6566,-5.6757,-5.6956,-5.7143,-5.7325,-5.726,-5.7092,-5.6675,-5.6394,-5.6147,-5.6071,-5.6154,-5.5908,-5.5466,-5.5423,-5.5617,-5.5714,-5.5352,-5.517,-4.8698,-4.8799,-4.9535,-4.9843,-4.9862,-4.9843,-4.9862,-4.9857,-4.9879,-4.9965,-5.0057,-5.0133,-5.0219,-5.029,-5.0321,-5.0474,-5.1028,-5.099,-5.0951,-5.1001,-5.1239,-5.1212,-5.1267,-5.1589,-5.1517,-5.1462,-5.1635,-5.1865,-5.2008,-5.242,-5.2937,-5.355,-5.406,-5.4282,-5.4735,-5.5176,-5.536,-5.5665,-5.5662,-5.5662,-5.5684,-5.5684,-5.5684,-5.5684,-5.5684,-5.5684,-5.5684,-5.5684,-5.5684,-5.5684,-5.5684,-5.5684,-5.5684,-5.5684,-5.5766,-5.5856,-5.5914,-5.5979,-5.6065,-5.6141,-5.6172,-5.6168,-5.6153,-5.6149,-5.609,-5.6046,-5.6082,-5.6117,-5.607,-5.6086,-5.6197,-5.6232,-5.6246,-5.629,-5.6308,-5.635,-5.6386,-5.6402,-5.6694,-5.7161,-5.7453,-5.7725,-5.7778,-5.7684,-5.8147,-5.8511,-5.8732,-5.8389,-5.8066,-5.7909,-5.7403,-5.6982,-5.6722,-5.6549,-5.6608,-5.662,-5.6535,-5.6823,-5.7205,-5.7439,-5.7572,-5.7669,-5.7579,-5.6905,-5.6488,-5.6445,-5.6425,-5.6422,-5.6372,-5.6,-5.6043,-5.6201,-5.622,-5.609,-5.5578,-4.8642,-4.8945,-4.9595,-4.9871,-4.9835,-4.9857,-4.9843,-4.9821,-4.9876,-4.992,-5.0005,-5.007,-5.017,-5.0255,-5.0302,-5.0302,-5.0359,-5.0531,-5.0436,-5.0677,-5.073,-5.1293,-5.1782,-5.199,-5.2033,-5.1949,-5.194,-5.2207,-5.2474,-5.2982,-5.3596,-5.4172,-5.4271,-5.4186,-5.5006,-5.5149,-5.5031,-5.5517,-5.5651,-5.564,-5.5662,-5.5684,-5.5684,-5.5684,-5.5684,-5.5684,-5.5684,-5.5684,-5.5684,-5.5684,-5.5684,-5.5684,-5.5684,-5.5695,-5.5776,-5.5856,-5.5905,-5.596,-5.6048,-5.6082,-5.6133,-5.6149,-5.6106,-5.6073,-5.6012,-5.6014,-5.6042,-5.6031,-5.6012,-5.6046,-5.6153,-5.6218,-5.6239,-5.6278,-5.629,-5.6308,-5.6345,-5.6395,-5.6842,-5.7381,-5.777,-5.8042,-5.8031,-5.7916,-5.824,-5.859,-5.8409,-5.7955,-5.7651,-5.762,-5.7376,-5.7039,-5.6761,-5.6624,-5.6501,-5.6553,-5.6565,-5.6765,-5.7151,-5.7502,-5.7779,-5.7774,-5.7489,-5.6799,-5.6484,-5.65,-5.6461,-5.6426,-5.6378,-5.6308,-5.6302,-5.6298,-5.6226,-5.6019,-5.5493,-4.8452,-4.9684,-4.9855,-4.9879,-4.9871,-4.9848,-4.9807,-4.9807,-4.9802,-4.9885,-4.9992,-5.0018,-5.0095,-5.0231,-5.0278,-5.0302,-5.0321,-5.0359,-5.0863,-5.1295,-5.1154,-5.1851,-5.228,-5.2253,-5.2636,-5.2535,-5.2346,-5.2612,-5.3176,-5.379,-5.4442,-5.5105,-5.5182,-5.5167,-5.5327,-5.5354,-5.5324,-5.5649,-5.5756,-5.5772,-5.5788,-5.578,-5.5703,-5.5684,-5.5684,-5.5684,-5.5684,-5.5684,-5.5684,-5.5684,-5.5684,-5.5684,-5.5714,-5.5724,-5.5776,-5.5856,-5.5905,-5.5951,-5.6023,-5.6029,-5.6082,-5.6098,-5.6073,-5.6057,-5.6005,-5.5951,-5.5979,-5.6005,-5.5995,-5.6031,-5.6125,-5.618,-5.6211,-5.6246,-5.6253,-5.6297,-5.6321,-5.6354,-5.6543,-5.7184,-5.7787,-5.7981,-5.8111,-5.8312,-5.8895,-5.8953,-5.8487,-5.804,-5.7616,-5.7472,-5.7322,-5.7041,-5.6753,-5.6638,-5.65,-5.6664,-5.6732,-5.6893,-5.712,-5.7533,-5.779,-5.7797,-5.7411,-5.6725,-5.6491,-5.6487,-5.6465,-5.6435,-5.6383,-5.6328,-5.6315,-5.6278,-5.6226,-5.5961,-5.5429]},{"header":{"parameterUnit":"m.s-1","parameterCategory":1,"la1":31.0,"la2":29.5877,"lo1":-88.7671,"lo2":-86.6584,"dy":0.0162,"dx":0.0185,"nx":115,"ny":88,"refTime":"2024-03-31T12:00:00:Z","depth":0,"parameterNumber":3,"parameterNumberName":"V-component_of_WINDS"},"data":[0.0,0.0,0.0,0.0,0.0,0.0,0.0,0.0,0.0,0.0,0.0,0.0,0.0,0.0,0.0,0.0,0.0,0.0,0.0,0.0,0.0,0.0,0.0,0.0,0.0,0.0,0.0,0.0,0.0,0.0,0.0,0.0,0.0,0.0,0.0,0.0,0.0,0.0,0.0,0.0,0.0,0.0,0.0,0.0,0.0,0.0,0.0,0.0,0.0,0.0,0.0,0.0,0.0,0.0,0.0,0.0,0.0,0.0,0.0,0.0,0.0,0.0,0.0,0.0,0.0,0.0,0.0,0.0,0.0,0.0,0.0,0.0,0.0,0.0,0.0,0.0,0.0,0.0,0.0,0.0,0.0,0.0,0.0,0.0,0.0,0.0,0.0,0.0,0.0,0.0,0.0,0.0,0.0,0.0,0.0,0.0,0.0,0.0,0.0,0.0,0.0,0.0,0.0,0.0,0.0,0.0,0.0,0.0,0.0,0.0,0.0,0.0,0.0,0.0,0.0,0.0,0.0,0.0,0.0,0.0,0.0,0.0,0.0,0.0,0.0,0.0,0.0,0.0,0.0,0.0,0.0,0.0,0.0,0.0,0.0,0.0,0.0,0.0,0.0,0.0,0.0,0.0,0.0,0.0,0.0,0.0,0.0,0.0,0.0,0.0,0.0,0.0,0.0,0.0,0.0,0.0,0.0,0.0,0.0,0.0,0.0,0.0,0.0,0.0,0.0,0.0,0.0,0.0,0.0,0.0,0.0,0.0,0.0,0.0,0.0,0.0,0.0,0.0,0.0,0.0,0.0,0.0,0.0,0.0,0.0,0.0,0.0,0.0,0.0,0.0,0.0,0.0,0.0,0.0,0.0,0.0,0.0,0.0,0.0,0.0,0.0,0.0,0.0,0.0,0.0,0.0,0.0,0.0,0.0,0.0,0.0,0.0,0.0,0.0,0.0,0.0,0.0,0.0,0.0,0.0,0.0,0.0,0.0,0.0,0.0,0.0,0.0,0.0,0.0,0.0,0.0,0.0,0.0,0.0,0.0,0.0,0.0,0.0,0.0,0.0,0.0,0.0,0.0,0.0,0.0,0.0,0.0,0.0,0.0,0.0,0.0,0.0,0.0,0.0,0.0,0.0,0.0,0.0,0.0,0.0,0.0,0.0,0.0,0.0,0.0,0.0,0.0,0.0,0.0,0.0,0.0,0.0,0.0,0.0,0.0,0.0,0.0,0.0,0.0,0.0,0.0,0.0,0.0,0.0,0.0,0.0,0.0,0.0,0.0,0.0,0.0,0.0,0.0,0.0,0.0,0.0,0.0,0.0,0.0,0.0,0.0,0.0,0.0,0.0,0.0,0.0,0.0,0.0,0.0,0.0,0.0,0.0,0.0,0.0,0.0,0.0,0.0,0.0,0.0,0.0,0.0,0.0,0.0,0.0,0.0,0.0,0.0,0.0,0.0,0.0,0.0,0.0,0.0,0.0,0.0,0.0,0.0,0.0,0.0,0.0,0.0,0.0,0.0,0.0,0.0,0.0,0.0,0.0,0.0,0.0,0.0,0.0,0.0,0.0,0.0,0.0,0.0,0.0,0.0,0.0,0.0,0.0,0.0,0.0,0.0,0.0,0.0,0.0,0.0,0.0,0.0,0.0,0.0,0.0,0.0,0.0,0.0,0.0,0.0,0.0,0.0,0.0,0.0,0.0,0.0,0.0,0.0,0.0,0.0,0.0,0.0,0.0,0.0,0.0,0.0,0.0,0.0,0.0,0.0,0.0,0.0,0.0,0.0,0.0,0.0,0.0,0.0,0.0,0.0,0.0,0.0,0.0,0.0,0.0,0.0,0.0,0.0,0.0,0.0,0.0,0.0,0.0,0.0,0.0,0.0,0.0,0.0,0.0,0.0,0.0,0.0,0.0,0.0,0.0,0.0,0.0,0.0,0.0,0.0,0.0,0.0,0.0,0.0,0.0,0.0,0.0,0.0,0.0,0.0,0.0,0.0,0.0,0.0,0.0,0.0,0.0,0.0,0.0,0.0,0.0,0.0,0.0,0.0,0.0,0.0,0.0,0.0,0.0,0.0,0.0,0.0,0.0,0.0,0.0,0.0,0.0,0.0,0.0,0.0,0.0,0.0,0.0,0.0,0.0,0.0,0.0,0.0,0.0,0.0,0.0,0.0,0.0,0.0,0.0,0.0,0.0,0.0,0.0,0.0,0.0,0.0,0.0,0.0,0.0,0.0,0.0,0.0,0.0,0.0,0.0,0.0,0.0,0.0,0.0,0.0,0.0,0.0,0.0,0.0,0.0,0.0,0.0,0.0,0.0,0.0,0.0,0.0,0.0,0.0,0.0,0.0,0.0,0.0,0.0,0.0,0.0,0.0,0.0,0.0,0.0,0.0,0.0,0.0,0.0,0.0,0.0,0.0,0.0,0.0,0.0,0.0,0.0,0.0,0.0,0.0,0.0,0.0,0.0,0.0,0.0,0.0,0.0,0.0,0.0,0.0,0.0,0.0,0.0,0.0,0.0,0.0,0.0,0.0,0.0,0.0,0.0,0.0,0.0,0.0,0.0,0.0,0.0,0.0,0.0,0.0,0.0,0.0,0.0,0.0,0.0,0.0,0.0,0.0,0.0,0.0,0.0,0.0,0.0,0.0,0.0,0.0,0.0,0.0,0.0,0.0,0.0,0.0,0.0,0.0,0.0,0.0,0.0,0.0,0.0,0.0,0.0,0.0,0.0,0.0,0.0,0.0,0.0,0.0,0.0,0.0,0.0,0.0,0.0,0.0,0.0,0.0,0.0,0.0,0.0,0.0,0.0,0.0,0.0,0.0,0.0,0.0,0.0,0.0,0.0,0.0,0.0,0.0,0.0,0.0,0.0,0.0,0.0,0.0,0.0,0.0,0.0,0.0,0.0,0.0,0.0,0.0,0.0,0.0,0.0,0.0,0.0,0.0,0.0,0.0,0.0,0.0,0.0,0.0,0.0,0.0,0.0,0.0,0.0,0.0,0.0,0.0,0.0,0.0,0.0,0.0,0.0,0.0,0.0,0.0,0.0,0.0,0.0,0.0,0.0,0.0,0.0,0.0,0.0,0.0,0.0,0.0,0.0,0.0,0.0,0.0,0.0,0.0,0.0,0.0,0.0,0.0,0.0,0.0,0.0,0.0,0.0,0.0,0.0,0.0,0.0,0.0,0.0,0.0,0.0,0.0,0.0,0.0,0.0,0.0,0.0,0.0,0.0,0.0,0.0,0.0,0.0,0.0,0.0,0.0,0.0,0.0,0.0,0.0,0.0,0.0,0.0,0.0,0.0,0.0,0.0,0.0,0.0,0.0,0.0,0.0,0.0,0.0,0.0,0.0,0.0,0.0,0.0,0.0,0.0,0.0,0.0,0.0,0.0,0.0,0.0,0.0,0.0,0.0,0.0,0.0,0.0,0.0,0.0,0.0,0.0,0.0,0.0,0.0,0.0,0.0,0.0,0.0,0.0,0.0,0.0,0.0,0.0,0.0,0.0,0.0,0.0,0.0,0.0,0.0,0.0,0.0,0.0,0.0,0.0,0.0,0.0,0.0,0.0,0.0,0.0,0.0,0.0,0.0,0.0,0.0,0.0,0.0,0.0,0.0,0.0,0.0,0.0,0.0,0.0,0.0,0.0,0.0,0.0,0.0,0.0,0.0,0.0,0.0,0.0,0.0,0.0,0.0,0.0,0.0,0.0,0.0,0.0,0.0,0.0,0.0,0.0,0.0,0.0,0.0,0.0,0.0,0.0,0.0,0.0,0.0,0.0,0.0,0.0,0.0,0.0,0.0,0.0,0.0,0.0,0.0,0.0,0.0,0.0,0.0,0.0,0.0,0.0,0.0,0.0,0.0,0.0,0.0,0.0,0.0,0.0,0.0,0.0,0.0,0.0,0.0,0.0,0.0,0.0,0.0,0.0,0.0,0.0,0.0,0.0,0.0,0.0,0.0,0.0,0.0,0.0,0.0,0.0,0.0,0.0,0.0,0.0,0.0,0.0,0.0,0.0,0.0,0.0,0.0,0.0,0.0,0.0,0.0,0.0,0.0,0.0,0.0,0.0,0.0,0.0,0.0,0.0,0.0,0.0,0.0,0.0,0.0,0.0,0.0,0.0,0.0,0.0,0.0,0.0,0.0,0.0,0.0,0.0,0.0,0.0,0.0,0.0,0.0,0.0,0.0,0.0,0.0,0.0,0.0,0.0,0.0,0.0,0.0,0.0,0.0,0.0,0.0,0.0,0.0,0.0,0.0,0.0,-0.4218,0.0,0.0,0.0,0.0,0.0,0.0,0.0,0.0,0.0,0.0,0.0,0.0,0.0,0.0,0.0,0.0,0.0,0.0,0.0,0.0,0.0,0.0,0.0,0.0,0.0,0.0,0.0,0.0,0.0,0.0,0.0,0.0,0.0,0.0,0.0,0.0,0.0,0.0,0.0,0.0,0.0,0.0,0.0,0.0,0.0,0.0,0.0,0.0,0.0,0.0,0.0,0.0,0.0,0.0,0.0,0.0,0.0,0.0,0.0,0.0,0.0,0.0,0.0,0.0,0.0,0.0,0.0,0.0,0.0,0.0,0.0,0.0,0.0,0.0,0.0,0.0,0.0,0.0,0.0,0.0,0.0,0.0,0.0,0.0,0.0,0.0,0.0,0.0,0.0,0.0,0.0,0.0,0.0,0.0,0.0,0.0,0.0,0.0,0.0,0.0,0.0,0.0,0.0,0.0,0.0,0.0,0.0,0.0,0.0,0.0,-0.2731,-0.31,-0.3478,-0.3758,-0.3933,0.0,0.0,0.0,0.0,0.0,0.0,0.0,0.0,0.0,0.0,0.0,0.0,0.0,0.0,0.0,0.0,0.0,0.0,0.0,0.0,0.0,0.0,0.0,0.0,0.0,0.0,0.0,0.0,0.0,0.0,0.0,0.0,0.0,0.0,0.0,0.0,0.0,0.0,0.0,0.0,0.0,0.0,0.0,0.0,0.0,0.0,0.0,0.0,0.0,0.0,0.0,0.0,0.0,0.0,0.0,0.0,0.0,0.0,0.0,0.0,0.0,0.0,0.0,0.0,0.0,0.0,0.0,0.0,0.0,0.0,0.0,0.0,0.0,0.0,0.0,0.0,0.0,0.0,0.0,0.0,0.0,0.0,0.0,0.0,0.0,0.0,0.0,0.0,0.0,0.0,0.0,0.0,0.0,0.0,0.0,0.0,0.0,0.0,0.0,0.0,0.0,0.0,0.0,0.0,0.0,0.0,0.0,0.0,0.0,0.0,0.0,0.0,-0.345,-0.3635,-0.3635,0.0,0.0,0.0,0.0,0.0,0.0,0.0,0.0,0.0,0.0,0.0,0.0,0.0,0.0,0.0,0.0,0.0,0.0,0.0,0.0,0.0,0.0,0.0,0.0,0.0,0.0,0.0,0.0,0.0,0.0,0.0,0.0,0.0,0.0,0.0,0.0,0.0,0.0,0.0,0.0,0.0,0.0,0.0,0.0,0.0,0.0,0.0,0.0,0.0,0.0,0.0,0.0,0.0,0.0,0.0,0.0,0.0,0.0,0.0,0.0,0.0,0.0,0.0,0.0,0.0,0.0,0.0,0.0,0.0,0.0,0.0,0.0,0.0,0.0,0.0,0.0,0.0,0.0,0.0,0.0,0.0,0.0,0.0,0.0,0.0,0.0,0.0,0.0,0.0,0.0,0.0,0.0,0.0,0.0,0.0,0.0,0.0,0.0,0.0,0.0,0.0,0.0,0.0,0.0,0.0,0.0,0.0,0.0,0.0,0.0,-0.2322,-0.275,-0.3018,0.0,-0.3435,0.0,0.0,0.0,0.0,0.0,0.0,0.0,0.0,0.0,0.0,0.0,0.0,0.0,0.0,0.0,0.0,0.0,0.0,0.0,0.0,0.0,0.0,0.0,0.0,0.0,0.0,0.0,0.0,0.0,0.0,0.0,0.0,0.0,0.0,0.0,0.0,0.0,0.0,0.0,0.0,0.0,0.0,0.0,0.0,0.0,0.0,0.0,0.0,0.0,0.0,0.0,0.0,0.0,0.0,0.0,0.0,0.0,0.0,0.0,0.0,0.0,0.0,0.0,0.0,0.0,0.0,0.0,0.0,0.0,0.0,0.0,0.0,0.0,0.0,0.0,0.0,0.0,0.0,0.0,0.0,0.0,0.0,0.0,0.0,0.0,0.0,0.0,0.0,0.0,0.0,0.0,0.0,0.0,0.0,0.0,0.0,0.0,0.0,0.0,0.0,0.0,0.0,0.0,0.0,0.0,0.0,0.0,0.0,0.0,0.0,-0.214,-0.2646,-0.3096,-0.3311,0.0,0.0,0.0,0.0,0.0,0.0,0.0,0.0,0.0,0.0,0.0,0.0,0.0,0.0,0.0,0.0,0.0,0.0,0.0,0.0,0.0,0.0,0.0,0.0,0.0,0.0,0.0,0.0,0.0,0.0,0.0,0.0,0.0,0.0,0.0,0.0,0.0,0.0,0.0,0.0,0.0,0.0,0.0,0.0,0.0,0.0,0.0,0.0,0.0,0.0,0.0,0.0,0.0,0.0,0.0,0.0,0.0,0.0,0.0,0.0,0.0,0.0,0.0,0.0,0.0,0.0,0.0,0.0,0.0,0.0,0.0,0.0,0.0,0.0,0.0,0.0,0.0,0.0,0.0,0.0,0.0,0.0,0.0,0.0,0.0,0.0,0.0,0.0,0.0,0.0,0.0,0.0,0.0,0.0,0.0,0.0,0.0,0.0,0.0,0.0,0.0,0.0,0.0,0.0,0.0,0.0,0.0,0.0,0.0,0.0,-0.1215,-0.2,-0.2633,-0.3262,-0.3419,-0.305,0.0,0.0,0.0,0.0,0.0,0.0,0.0,0.0,0.0,0.0,0.0,0.0,0.0,0.0,0.0,0.0,0.0,0.0,0.0,0.0,0.0,0.0,0.0,0.0,0.0,0.0,0.0,0.0,0.0,0.0,0.0,0.0,0.0,0.0,0.0,0.0,0.0,0.0,0.0,0.0,0.0,0.0,0.0,0.0,0.0,0.0,0.0,0.0,0.0,0.0,0.0,0.0,0.0,0.0,0.0,0.0,0.0,0.0,0.0,0.0,0.0,0.0,0.0,0.0,0.0,0.0,0.0,0.0,0.0,0.0,0.0,0.0,0.0,0.0,0.0,0.0,0.0,0.0,0.0,0.0,0.0,0.0,0.0,0.0,0.0,0.0,0.0,0.0,0.0,0.0,0.0,0.0,0.0,0.0,0.0,0.0,0.0,0.0,0.0,0.0,0.0,0.0,0.0,0.0,0.0,0.0,0.0,0.0,0.0217,-0.091,-0.1904,-0.2776,-0.3448,-0.3524,0.0,0.0,0.0,0.0,0.0,0.0,0.0,0.0,0.0,0.0,0.0,0.0,0.0,0.0,0.0,0.0,0.0,0.0,0.0,0.0,0.0,0.0,0.0,0.0,0.0,0.0,0.0,0.0,0.0,0.0,0.0,0.0,0.0,0.0,0.0,0.0,0.0,0.0,0.0,0.0,0.0,0.0,0.0,0.0,0.0,0.0,0.0,0.0,0.0,0.0,0.0,0.0,0.0,0.0,0.0,0.0,0.0,0.0,0.0,0.0,0.0,0.0,0.0,0.0,0.0,0.0,0.0,0.0,0.0,0.0,0.0,0.0,0.0,0.0,0.0,0.0,0.0,0.0,0.0,0.0,0.0,0.0,0.0,0.0,0.0,0.0,0.0,0.0,0.0,0.0,0.0,0.0,0.0,0.0,0.0,0.0,0.0,0.0,0.0,0.0,0.0,0.0,0.0,0.0,0.0,0.0,0.0,0.0,0.0,0.0243,-0.0982,-0.1872,-0.2483,-0.3247,-0.3389,0.0,0.0,0.0,0.0,0.0,0.0,0.0,0.0,0.0,0.0,0.0,0.0,0.0,0.0,0.0,0.0,0.0,0.0,0.0,0.0,0.0,0.0,0.0,0.0,0.0,0.0,0.0,0.0,0.0,0.0,0.0,0.0,0.0,0.0,0.0,0.0,0.0,0.0,0.0,0.0,0.0,0.0,0.0,0.0,0.0,0.0,0.0,0.0,0.0,0.0,0.0,0.0,0.0,0.0,0.0,0.0,0.0,0.0,0.0,0.0,0.0,0.0,0.0,0.0,0.0,0.0,0.0,0.0,0.0,0.0,0.0,0.0,0.0,0.0,0.0,0.0,0.0,0.0,0.0,0.0,0.0,0.0,0.0,0.0,0.0,0.0,0.0,0.0,0.0,0.0,0.0,0.0,0.0,0.0,0.0,0.0,0.0,0.0,0.0,0.0,0.0,0.0,0.0,0.0,0.0,0.0,0.0,0.0,0.0,-0.0035,0.0,-0.1736,-0.2295,-0.2936,-0.3036,0.0,0.0,0.0,0.0,0.0,0.0,0.0,0.0,0.0,0.0,0.0,0.0,0.0,0.0,0.0,0.0,0.0,0.0,0.0,0.0,0.0,0.0,0.0,0.0,0.0,0.0,0.0,0.0,0.0,0.0,0.0,0.0,0.0,0.0,0.0,0.0,0.0,0.0,0.0,0.0,0.0,0.0,0.0,0.0,0.0,0.0,0.0,0.0,0.0,0.0,0.0,0.0,0.0,0.0,0.0,0.0,0.0,0.0,0.0,0.0,0.0,0.0,0.0,0.0,0.0,0.0,0.0,0.0,0.0,0.0,0.0,0.0,0.0,0.0,0.0,0.0,0.0,0.0,0.0,0.0,0.0,0.0,0.0,0.0,0.0,0.0,0.0,0.0,0.0,0.0,0.0,0.0,0.0,0.0,0.0,0.0,0.0,0.0,0.0,0.0,0.0,0.0,0.0,0.0,0.0,0.0,0.0,0.0,0.0,-0.0641,-0.087,-0.1392,-0.2267,-0.2472,-0.2546,0.0,0.0,0.0,0.0,0.0,0.0,0.0,0.0,0.0,0.0,0.0,0.0,0.0,0.0,0.0,0.0,0.0,0.0,0.0,0.0,0.0,0.0,0.0,0.0,0.0,0.0,0.0,0.0,0.0,0.0,0.0,0.0,0.0,0.0,0.0,0.0,0.0,0.0,0.0,0.0,0.0,0.0,0.0,0.0,0.0,0.0,0.0,0.0,0.0,0.0,0.0,0.0,0.0,0.0,0.0,0.0,0.0,0.0,0.0,0.0,0.0,0.0,0.0,0.0,0.0,0.0,0.0,0.0,0.0,0.0,0.0,0.0,0.0,0.0,0.0,0.0,0.0,0.0,0.0,0.0,0.0,0.0,0.0,0.0,0.0,0.0,0.0,0.0,0.0,0.0,0.0,0.0,0.0,0.0,0.0,0.0,0.0,0.0,0.0,0.0,0.0,0.0,0.0,0.0,0.0,0.0,0.0,0.0,0.0,0.0227,-0.0156,-0.0534,-0.0963,-0.1612,-0.19,0.0,0.0,0.0,0.0,0.0,0.0,0.0,0.0,0.0,0.0,0.0,0.0,0.0,0.0,0.0,0.0,0.0,0.0,0.0,0.0,0.0,0.0,0.0,0.0,0.0,0.0,0.0,0.0,0.0,0.0,0.0,0.0,0.0,0.0,0.0,0.0,0.0,0.0,0.0,0.0,0.0,0.0,0.0,0.0,0.0,0.0,0.0,0.0,0.0,0.0,0.0,0.0,0.0,0.0,0.0,0.0,0.0,0.0,0.0,0.0,0.0,0.0,0.0,0.0,0.0,0.0,0.0,0.0,0.0,0.0,0.0,0.0,0.0,0.0,0.0,0.0,0.0,0.0,0.0,0.0,0.0,0.0,0.0,0.0,0.0,0.0,0.0,0.0,0.0,0.0,0.0,0.0,0.0,0.0,0.0,0.0,0.0,0.0,0.0,0.0,0.0,0.0,0.0,0.0,0.0,0.0,0.0,0.0,0.0,0.0661,0.0321,0.0042,-0.0229,-0.0705,-0.1073,-0.1361,0.0,0.0,0.0,0.0,0.0,0.0,0.0,0.0,0.0,0.0,0.0,0.0,0.0,0.0,0.0,0.0,0.0,0.0,0.0,0.0,0.0,0.0,0.0,0.0,0.0,0.0,0.0,0.0,0.0,0.0,0.0,0.0,0.0,0.0,0.0,0.0,0.0,0.0,0.0,0.0,0.0,0.0,0.0,0.0,0.0,0.0,0.0,0.0,0.0,0.0,0.0,0.0,0.0,0.0,0.0,0.0,0.0,0.0,0.0,0.0,0.0,0.0,0.0,0.0,0.0,0.0,0.0,0.0,0.0,0.0,0.0,0.0,0.0,0.0,0.0,0.0,0.0,0.0,0.0,0.0,0.0,0.0,0.0,0.0,0.0,0.0,0.0,0.0,0.0,0.0,0.0,0.0,0.0,0.0,0.0,0.0,0.0,0.0,0.0,0.0,0.0,0.0,0.0,0.0,0.0,0.0,0.0,0.0,0.0857,0.064,0.0405,0.019,0.0183,-0.0133,0.0,0.0,0.0,0.0,0.0,0.0,0.0,0.0,0.0,0.0,0.0,0.0,0.0,0.0,0.0,0.0,0.0,0.0,0.0,0.0,0.0,0.0,0.0,0.0,0.0,0.0,0.0,0.0,0.0,0.0,0.0,0.0,0.0,0.0,0.0,0.0,0.0,0.0,0.0,0.0,0.0,0.0,0.0,0.0,0.0,0.0,0.0,0.0,0.0,0.0,0.0,0.0,0.0,0.0,0.0,0.0,0.0,0.0,0.0,0.0,0.0,0.0,0.0,0.0,0.0,0.0,0.0,0.0,0.0,0.0,0.0,0.0,0.0,0.0,0.0,0.0,0.0,0.0,0.0,0.0,0.0,0.0,0.0,0.0,0.0,0.0,0.0,0.0,0.0,0.0,0.0,0.0,0.0,0.0,0.0,0.0,0.0,0.0,0.0,0.0,0.0,0.0,0.0,0.0,0.0,0.0,0.0,0.0,0.0,0.1323,0.1629,0.1607,0.1216,0.1172,0.0824,0.0,0.0,0.0,0.0,0.0,0.0,0.0,0.0,0.0,0.0,0.0,0.0,0.0,0.0,0.0,0.0,0.0,0.0,0.0,0.0,0.0,0.0,0.0,0.0,0.0,0.0,0.0,0.0,0.0,0.0,0.0,0.0,0.0,0.0,0.0,0.0,0.0,0.0,0.0,0.0,0.0,0.0,0.0,0.0,0.0,0.0,0.0,0.0,0.0,0.0,0.0,0.0,0.0,0.0,0.0,0.0,0.0,0.0,0.0,0.0,0.0,0.0,0.0,0.0,0.0,0.0,0.0,0.0,0.0,0.0,0.0,0.0,0.0,0.0,0.0,0.0,0.0,0.0,0.0,0.0,0.0,0.0,0.0,0.0,0.0,0.0,0.0,0.0,0.0,0.0,0.0,0.0,0.0,0.0,0.0,0.0,0.0,0.0,0.0,0.0,0.0,0.0,0.0,0.0,0.0,0.0,0.0,0.0,0.1422,0.1519,0.2218,0.2512,0.2284,0.2122,0.1654,0.0,0.0,0.0,0.0,0.0,0.0,0.0,0.0,0.0,0.0,0.0,0.0,0.0,0.0,0.0,0.0,0.0,0.0,0.0,0.0,0.0,0.0,0.0,0.0,0.0,0.0,0.0,0.0,0.0,0.0,0.0,0.0,0.0,0.0,0.0,0.0,0.0,0.0,0.0,0.0,0.0,0.0,0.0,0.0,0.0,0.0,0.0,0.0,0.0,0.0,0.0,0.0,0.0,0.0,0.0,0.0,0.0,0.0,0.0,0.0,0.0,0.0,0.0,0.0,0.0,0.0,0.0,0.0,0.0,0.0,0.0,0.0,0.0,0.0,0.0,0.0,0.0,0.0,0.0,0.0,0.0,0.0,0.0,0.0,0.0,0.0,0.0,0.0,0.0,0.0,0.0,0.0,0.0,0.0,0.0,0.0,0.0,0.0,0.0,0.0,0.0,0.0,0.0,0.0,0.0,0.0,0.0,0.0,0.1435,0.1616,0.2649,0.3266,0.3324,0.307,0.2431,0.0,0.0,0.0,0.0,0.0,0.0,0.0,0.0,0.0,0.0,0.0,0.0,0.0,0.0,0.0,0.0,0.0,0.0,0.0,0.0,0.0,0.0,0.0,0.0,0.0,0.0,0.0,0.0,0.0,0.0,0.0,0.0,0.0,0.0,0.0,0.0,0.0,0.0,0.0,0.0,0.0,0.0,0.0,0.0,0.0,0.0,0.0,0.0,0.0,0.0,0.0,0.0,0.0,0.0,0.0,0.0,0.0,0.0,0.0,0.0,0.0,0.0,0.0,0.0,0.0,0.0,0.0,0.0,0.0,0.0,0.0,0.0,0.0,0.0,0.0,0.0,0.0,0.0,0.0,0.0,0.0,0.0,0.0,0.0,0.0,0.0,0.0,0.0,0.0,0.0,0.0,0.0,0.0,0.0,0.0,0.0,0.0,0.0,0.0,0.0,0.0,0.0,0.0,0.0,0.0,0.0,0.0,0.0,0.196,0.2462,0.3338,0.3902,0.4135,0.3813,0.3108,0.0,0.0,0.0,0.0,0.0,0.0,0.0,0.0,0.0,0.0,0.0,0.0,0.0,0.0,0.0,0.0,0.0,0.0,0.0,0.0,0.0,0.0,0.0,0.0,0.0,0.0,0.0,0.0,0.0,0.0,0.0,0.0,0.0,0.0,0.0,0.0,0.0,0.0,0.0,0.0,0.0,0.0,0.0,0.0,0.0,0.0,0.0,0.0,-0.5011,0.0,0.0,0.0,0.0,0.0,0.0,0.0,0.0,0.0,0.0,0.0,0.0,0.0,0.0,0.0,0.0,0.0,0.0,0.0,0.0,0.0,0.0,0.0,0.0,0.0,0.0,0.0,0.0,0.0,0.0,0.0,0.0,0.0,0.0,0.0,0.0,0.0,0.0,0.0,0.0,0.0,0.0,0.0,0.0,0.0,0.0,0.0,0.0,0.0,0.0,0.0,0.0,0.0,0.0,0.0,0.0,0.0,0.0,0.0,0.2018,0.2725,0.3639,0.4248,0.4583,0.4543,0.387,0.0,0.0,0.0,0.0,0.0,0.0,0.0,0.0,0.0,0.0,0.0,0.0,0.0,0.0,0.0,0.0,0.0,0.0,0.0,0.0,0.0,0.0,0.0,0.0,0.0,0.0,0.0,0.0,0.0,0.0,0.0,0.0,0.0,0.0,0.0,0.0,0.0,0.0,0.0,0.0,0.0,0.0,0.0,0.0,0.0,0.0,0.0,0.0,0.0,0.0,0.0,0.0,0.0,0.0,0.0,0.0,0.0,0.0,0.0,0.0,0.0,0.0,0.0,0.0,0.0,0.0,0.0,0.0,0.0,0.0,0.0,0.0,0.0,0.0,0.0,0.0,0.0,0.0,0.0,0.0,0.0,0.0,0.0,0.0,0.0,0.0,0.0,0.0,0.0,0.0,0.0,0.0,0.0,0.0,0.0,0.0,0.0,0.0,0.0,0.0,0.0,0.0,0.0,0.0,0.0,0.0,0.0,0.1298,0.1967,0.2782,0.3813,0.452,0.4853,0.5146,0.4617,0.3369,0.0,0.0,0.0,0.0,0.0,0.0,0.0,0.0,0.0,0.0,0.0,0.0,0.0,0.0,0.0,0.0,0.0,0.0,0.0,0.0,0.0,0.0,0.0,0.0,0.0,0.0,0.0,0.0,0.0,0.0,0.0,0.0,0.0,0.0,0.0,0.0,0.0,0.0,-0.1634,-0.1699,0.0,0.0,0.0,0.0,0.0,0.0,0.0,0.0,-0.4333,0.0,0.0,0.0,0.0,0.0,0.0,0.0,0.0,0.0,0.0,0.0,0.0,0.0,0.0,0.0,0.0,0.0,0.0,0.0,0.0,0.0,0.0,0.0,0.0,0.0,0.0,0.0,0.0,0.0,0.0,0.0,0.0,0.0,0.0,0.0,0.0,0.0,0.0,0.0,0.0,0.0,0.0,0.0,0.0,0.0,0.0,0.0,0.0,0.0,0.0,0.0,0.0,0.0,0.0,0.0,0.0,0.0699,0.1615,0.2406,0.3031,0.4132,0.4907,0.5306,0.5431,0.5122,0.4294,0.0,0.0,0.0,0.0,0.0,0.0,0.0,0.0,0.0,0.0,0.0,0.0,0.0,0.0,0.0,0.0,0.0,0.0,0.0,0.0,0.0,0.0,0.0,0.0,0.0,0.0,0.0,0.0,0.0,0.0,0.0,0.0,0.0,0.0,0.0,0.0,0.0,0.0,0.0,-0.1487,-0.1642,0.0,0.0,0.0,0.0,0.0,0.0,0.0,0.0,-0.3946,0.0,0.0,0.0,0.0,0.0,0.0,0.0,0.0,0.0,0.0,0.0,0.0,0.0,0.0,0.0,0.0,0.0,0.0,0.0,0.0,0.0,0.0,0.0,0.0,0.0,0.0,0.0,0.0,0.0,0.0,0.0,0.0,0.0,0.0,0.0,0.0,0.0,0.0,0.0,0.0,0.0,0.0,0.0,0.0,0.0,0.0,0.0,0.0,0.0,0.0,0.0,0.0,0.0,0.0,0.0,0.0747,0.159,0.2471,0.3281,0.4299,0.5109,0.5664,0.5615,0.5284,0.0,0.0,0.0,0.0,0.0,0.0,0.0,0.0,0.0,0.0,0.0,0.0,0.0,0.0,0.0,0.0,0.0,0.0,0.0,0.0,0.0,0.0,0.0,0.0,0.0,0.0,0.0,0.0,0.0,0.0,0.0,0.0,0.0,0.0,0.0,0.0,0.0,0.0,0.0,0.0,-0.1879,-0.1783,-0.1967,0.0,0.0,0.0,0.0,0.0,0.0,-0.2983,-0.3063,0.0,0.0,0.0,0.0,0.0,0.0,0.0,0.0,0.0,0.0,0.0,0.0,0.0,0.0,0.0,0.0,0.0,0.0,0.0,0.0,0.0,0.0,0.0,0.0,0.0,0.0,0.0,0.0,0.0,0.0,0.0,0.0,0.0,0.0,0.0,0.0,0.0,0.0,0.0,0.0,0.0,0.0,0.0,0.0,0.0,0.0,0.0,0.0,0.0,0.0,0.0,0.0,0.0,0.0,0.0,0.0752,0.1593,0.2514,0.3564,0.4447,0.5297,0.6075,0.5851,0.5445,0.0,0.0,0.0,0.0,0.0,0.0,0.0,0.0,0.0,0.0,0.0,0.0,0.0,0.0,0.0,0.0,0.0,0.0,0.0,0.0,0.0,0.0,0.0,0.0,0.0,0.0,0.0,0.0,0.0,0.0,0.0,0.0,0.0,0.0,0.0,0.0,0.0,0.0,0.0,0.0,0.0,-0.2127,-0.2116,-0.2154,0.0,0.0,0.0,0.0,-0.2291,-0.2045,0.0,0.0,0.0,0.0,0.0,0.0,0.0,0.0,0.0,0.0,0.0,0.0,0.0,0.0,0.0,0.0,0.0,0.0,0.0,0.0,0.0,0.0,0.0,0.0,0.0,0.0,0.0,0.0,0.0,0.0,0.0,0.0,0.0,0.0,0.0,0.0,0.0,0.0,0.0,0.0,0.0,0.0,0.0,0.0,0.0,0.0,0.0,0.0,0.0,0.0,0.0,0.0,0.0,0.0,0.0,0.0,0.081,0.191,0.2975,0.385,0.4695,0.5583,0.6492,0.6143,0.5732,0.0,0.0,0.0,0.0,0.0,0.0,0.0,0.0,0.0,0.0,0.0,0.0,0.0,0.0,0.0,0.0,0.0,0.0,0.0,0.0,0.0,0.0,0.0,0.0,0.0,0.0,0.0,0.0,0.0,0.0,0.0,0.0,0.0,0.0,0.0,0.0,0.0,0.0,0.0,0.0,0.0,-0.2786,-0.2236,-0.2149,-0.1979,0.0,0.0,-0.1246,-0.1282,-0.0906,0.0,0.0,0.0,0.0,0.0,0.0,0.0,0.0,0.0,0.0,0.0,0.0,0.0,0.0,0.0,0.0,0.0,0.0,0.0,0.0,0.0,0.0,0.0,0.0,0.0,0.0,0.0,0.0,0.0,0.0,0.0,0.0,0.0,0.0,0.0,0.0,0.0,0.0,0.0,0.0,0.0,0.0,0.0,0.0,0.0,0.0,0.0,0.0,0.0,0.0,0.0,0.0,0.0,0.0,0.0,0.0643,0.1178,0.2431,0.3476,0.4324,0.5185,0.6015,0.667,0.652,0.6234,0.0,0.0,0.0,0.0,0.0,0.0,0.0,0.0,0.0,0.0,0.0,0.0,0.0,0.0,0.0,0.0,0.0,0.0,0.0,0.0,0.0,0.0,0.0,0.0,0.0,0.0,0.0,0.0,0.0,0.0,0.0,0.0,0.0,0.0,0.0,0.0,0.0,0.0,0.0,0.0,0.0,0.0,-0.228,-0.187,0.0,0.0,0.0,-0.054,-0.044,0.0,0.0,0.0,0.0,0.0,0.0,0.0,0.0,0.0,0.0,0.0,0.0,0.0,0.0,0.0,0.0,0.0,0.0,0.0,0.0,0.0,0.0,0.0,0.0,0.0,0.0,0.0,0.0,0.0,0.0,0.0,0.0,0.0,0.0,0.0,0.0,0.0,0.0,0.0,0.0,0.0,0.0,0.0,0.0,0.0,0.0,0.0,0.0,0.0,0.0,0.0,0.0,0.0,0.0,0.0,0.0,0.0,0.1515,0.2843,0.3904,0.475,0.5628,0.6392,0.6992,0.6913,0.0,0.0,0.0,0.0,0.0,0.0,0.0,0.0,0.0,0.0,0.0,0.0,0.0,0.0,0.0,0.0,0.0,0.0,0.0,0.0,0.0,0.0,0.0,0.0,0.0,0.0,0.0,-0.2853,0.0,0.0,0.0,0.0,0.0,0.0,0.0,0.0,0.0,0.0,0.0,0.0,0.0,0.0,-0.3201,-0.2334,-0.1568,-0.0986,0.0,0.0,0.0081,0.0293,0.0507,0.0504,0.0,0.0,0.0,0.0,0.0,0.0,0.0,0.0,0.0,0.0,0.0,0.0,0.0,0.0,0.0,0.0,0.0,0.0,0.0,0.0,0.0,0.0,0.0,0.0,0.0,0.0,0.0,0.0,0.0,0.0,0.0,0.0,0.0,0.0,0.0,0.0,0.0,0.0,0.0,0.0,0.0,0.0,0.0,0.0,0.0,0.0,0.0,0.0,0.0,0.0,0.0,0.0,0.0,0.0,0.0,0.1801,0.3126,0.4235,0.4993,0.5873,0.6736,0.7531,0.7168,0.6952,0.0,0.0,0.0,0.0,0.0,0.0,0.0,0.0,0.0,0.0,0.0,0.0,0.0,0.0,0.0,0.0,0.0,0.0,0.0,0.0,0.0,0.0,0.0,0.0,0.0,0.0,0.0,0.0,0.0,0.0,0.0,0.0,0.0,0.0,0.0,0.0,0.0,0.0,0.0,0.0,0.0,-0.3397,-0.2349,-0.1484,-0.071,0.0,0.0,0.0713,0.0884,0.1155,0.124,0.0942,0.0,0.0,0.0,0.0,0.0,0.0,0.0,0.0,0.0,0.0,0.0,0.0,0.0,0.0,0.0,0.0,0.0,0.0,0.0,0.0,0.0,0.0,0.0,0.0,0.0,0.0,0.0,0.0,0.0,0.0,0.0,0.0,0.0,0.0,0.0,0.0,0.0,0.0,0.0,0.0,0.0,0.0,0.0,0.0,0.0,0.0,0.0,0.0,0.0,0.0,0.0,0.0,0.0,0.1484,0.2313,0.3649,0.4737,0.5562,0.6402,0.7185,0.7836,0.7752,0.7681,0.0,0.0,0.0,0.0,0.0,0.0,0.0,0.0,0.0,0.0,0.0,0.0,0.0,0.0,0.0,0.0,0.0,0.0,0.0,0.0,0.0,0.0,0.0,0.0,0.0,0.0,0.0,0.0,-0.2832,-0.2989,-0.3068,0.0,0.0,0.0,0.0,0.0,0.0,0.0,0.0,0.0,0.0,-0.2675,-0.1786,-0.1036,0.0,0.0,0.0258,0.0388,0.0743,0.1002,0.1161,0.1168,0.1075,0.0,0.0,0.0,0.0,0.0,0.0,0.0,0.0,0.0,0.0,0.0,0.0,0.0,0.0,0.0,0.0,0.0,0.0,0.0,0.0,0.0,0.0,0.0,0.0,0.0,0.0,0.0,0.0,0.0,0.0,0.0,0.0,0.0,0.0,0.0,0.0,0.0,0.0,0.0,0.0,0.0,0.0,0.0,0.0,0.0,0.0,0.0,0.0,0.0,0.0,0.0,0.0,0.1964,0.2863,0.4186,0.5164,0.5871,0.6825,0.759,0.8081,0.8098,0.8178,0.0,0.0,0.0,0.0,0.0,0.0,0.0,0.0,0.0,0.0,0.0,0.0,0.0,0.0,0.0,0.0,0.0,0.0,0.0,0.0,0.0,0.0,0.0,0.0,0.0,0.0,0.0,0.0,-0.2641,-0.2908,-0.301,0.0,0.0,0.0,0.0,0.0,0.0,0.0,0.0,0.0,0.0,-0.2055,-0.1283,-0.0634,-0.0043,0.0438,0.0439,0.0574,0.0985,0.1189,0.138,0.1476,0.0,0.0,0.0,0.0,0.0,0.0,0.0,0.0,0.0,0.0,0.0,0.0,0.0,0.0,0.0,0.0,0.0,0.0,0.0,0.0,0.0,0.0,0.0,0.0,0.0,0.0,0.0,0.0,0.0,0.0,0.2231,0.0,0.0,0.0,0.0,0.0,0.0,0.0,0.0,0.0,0.0,0.0,0.0,0.0,0.0,0.0,0.0,0.0,0.0,0.0,0.0,0.0,0.0,0.2534,0.3474,0.4704,0.5568,0.5922,0.7026,0.7842,0.8375,0.8085,0.8254,0.8995,0.0,0.0,0.0,0.0,0.0,0.0,0.0,0.0,0.0,0.0,0.0,0.0,0.0,0.0,0.0,0.0,0.0,0.0,0.0,0.0,0.0,0.0,0.0,0.0,0.0,0.0,-0.2241,-0.2115,-0.2089,0.0,0.0,0.0,0.0,0.0,0.0,0.0,0.0,0.0,0.0,-0.2245,-0.1693,-0.1081,-0.0442,0.0179,0.0582,0.1075,0.1434,0.1704,0.1939,0.207,0.0,0.0,0.0,0.0,0.0,0.0,0.0,0.0,0.0,0.0,0.0,0.0,0.0,0.0,0.0,0.0,0.0,0.0,0.0,0.0,0.0,0.0,0.0,0.0,0.0,0.0,0.0,0.344,0.344,0.0,0.0,0.0,0.0,0.0,0.0,0.0,0.0,0.0,0.0,0.0,0.6263,0.6748,0.0,0.0,0.0,0.0,0.0,0.0,0.0,0.0,0.0,0.0,0.0,0.0,0.2974,0.3901,0.488,0.5749,0.6473,0.7223,0.7942,0.8623,0.8369,0.819,0.8207,0.0,0.0,0.0,0.0,0.0,0.0,0.0,0.0,0.0,0.0,0.0,0.0,0.0,0.0,0.0,0.0,0.0,0.0,0.0,0.0,0.0,0.0,0.0,0.0,0.0,-0.1975,0.0,0.0,0.0,0.0,0.0,0.0,0.0,0.0,0.0,0.0,0.0,-0.2425,-0.2155,-0.1655,-0.1164,-0.0825,-0.0221,0.0269,0.0,0.0,0.0,0.0,0.0,0.0,0.0,0.0,0.0,0.0,0.0,0.0,0.0,0.0,0.2266,0.206,0.1799,0.1569,0.1454,0.0,0.0,0.0,0.0,0.0,0.0,0.0,0.0,0.0,0.0,0.0,0.0,0.0,0.0,0.4731,0.0,0.4458,0.0,0.0,0.0,0.0,0.0,0.0,0.0,0.0,0.6492,0.6886,0.7159,0.7763,0.7804,0.0,0.7041,0.6014,0.0,0.0,0.0,0.0,0.0,0.0,0.0,0.0,0.3662,0.4613,0.5379,0.6152,0.6927,0.7444,0.806,0.869,0.8659,0.8447,0.8084,0.7804,0.7224,0.0,0.0,0.0,0.0,0.0,0.0,0.0,0.0,0.0,0.0,0.0,0.0,0.0,0.0,0.0,0.0,0.0,0.0,0.0,0.0,0.0,0.0,0.0,-0.1128,0.0,0.0,0.0,0.0,0.0,0.0,0.0,0.0,0.0,-0.1878,-0.1818,-0.1698,-0.1567,-0.1053,-0.0697,-0.0615,0.0,0.0,0.0,0.0,0.0,0.0,0.0,0.2032,0.2259,0.2426,0.2566,0.2603,0.2747,0.2977,0.3474,0.0,0.0,0.3127,0.2823,0.2602,0.2399,0.218,0.1949,0.1727,0.1715,0.1822,0.0,0.0,0.0,0.0,0.0,0.0,0.0,0.0,0.594,0.5817,0.0,0.5301,0.0,0.0,0.0,0.0,0.0,0.5314,0.0,0.0,0.7661,0.822,0.8704,0.9162,0.9103,0.8546,0.8451,0.7815,0.6678,0.5476,0.0,0.0,0.0,0.0,0.0,0.0,0.464,0.5575,0.6208,0.6726,0.7226,0.7736,0.8167,0.8594,0.8973,0.898,0.8633,0.856,0.8241,0.7489,0.6526,0.0,0.0,0.0,0.0,0.0,0.0,0.0,0.0,0.0,0.0,0.0,0.0,0.0,0.0,0.0,0.0,0.0,0.0,0.0,0.0,-0.011,0.0,0.0,0.0,0.0,0.0,0.0,0.0,0.0,0.0,0.0,-0.1215,-0.1203,-0.1042,-0.1007,0.0,0.0,0.0,0.0,0.018,0.0628,0.0942,0.1345,0.2015,0.2292,0.2481,0.2739,0.0,0.0,0.3035,0.3291,0.3571,0.3772,0.3987,0.4043,0.3794,0.3613,0.3514,0.3469,0.3426,0.3406,0.3178,0.317,0.3328,0.8718,0.0,0.0,0.0,0.0,0.7609,0.7719,0.823,0.8005,0.7782,0.7542,0.6929,0.0,0.0,0.0,0.0,0.0,0.0,0.6564,0.7417,0.8033,0.8525,0.8922,0.9533,0.9573,0.9163,0.8926,0.8419,0.7703,0.7193,0.6402,0.5347,0.0,0.0,0.0,0.0,0.5498,0.6073,0.6537,0.702,0.7487,0.7839,0.8213,0.8598,0.8949,0.9025,0.8755,0.8444,0.8065,0.7533,0.6926,0.0,0.0,0.0,0.0,0.0,0.0,0.0,0.0,0.0,0.0,0.0,0.0,0.0,0.0,0.0,0.0,0.0,0.0,0.0,0.0517,0.0801,0.0825,0.0,0.0,0.0,0.0,0.0,0.0,0.0,0.0,0.0,0.012,-0.0448,-0.0797,0.0,0.0,-0.0314,-0.0137,0.0136,0.0359,0.0673,0.1076,0.0,0.1538,0.2077,0.2478,0.2528,0.2896,0.3364,0.3832,0.3975,0.4133,0.4438,0.4492,0.4466,0.4456,0.4264,0.4011,0.3822,0.3778,0.3728,0.353,0.3497,0.3593,0.9627,0.8992,0.8613,0.8513,0.8521,0.8191,0.8382,0.8847,0.8664,0.8434,0.8142,0.7633,0.7186,0.6814,0.6293,0.0,0.0,0.0,0.7134,0.7966,0.844,0.8909,0.9271,0.9772,0.9813,0.9466,0.932,0.8933,0.8299,0.8156,0.7573,0.6449,0.0,0.0,0.6243,0.5983,0.6177,0.6793,0.7079,0.7401,0.7932,0.8227,0.8463,0.8636,0.88,0.8764,0.8588,0.8259,0.7893,0.7496,0.7098,0.653,0.0,0.0,0.0,0.0,0.0,0.0,0.0,0.0,0.0,0.0,0.0,-0.0941,0.0,0.0,0.0,0.0,0.0226,0.0958,0.1478,0.1831,0.0,0.0,0.0,0.0,0.0,0.0,0.0,0.0951,0.1066,0.1049,0.0837,0.0169,-0.0258,-0.0265,-0.0178,-0.0045,0.0137,0.0,0.0493,0.0807,0.1031,0.1206,0.1456,0.2002,0.2464,0.2765,0.3137,0.3572,0.4046,0.4199,0.4373,0.4541,0.4573,0.4514,0.4567,0.4358,0.4231,0.4171,0.4108,0.4031,0.3909,0.3879,0.3993,1.0023,0.955,0.8707,0.8259,0.807,0.807,0.8211,0.844,0.8385,0.8237,0.8001,0.7759,0.7513,0.7258,0.7076,0.0,0.763,0.7409,0.7821,0.8687,0.8987,0.9324,0.9669,0.9924,0.9871,0.9624,0.9624,0.9241,0.8642,0.8586,0.8186,0.7461,0.6916,0.6787,0.692,0.6588,0.6834,0.7611,0.7654,0.7887,0.8421,0.8829,0.8909,0.8734,0.8616,0.8452,0.8232,0.8032,0.7808,0.7507,0.7231,0.6789,0.6213,0.0,0.0,0.0,0.0,0.0,0.0,0.0,0.0,0.0,0.0,0.0,0.0,0.0,0.0,0.0,0.139,0.0,0.2362,0.2821,0.0,0.0,0.0,0.2566,0.198,0.2445,0.2528,0.185,0.0,0.0,0.1129,0.0697,0.0436,0.0436,0.0399,0.0404,0.0404,0.0404,0.0583,0.1031,0.0897,0.0987,0.1657,0.2067,0.2587,0.329,0.3497,0.3671,0.3983,0.4232,0.4431,0.4437,0.4369,0.4319,0.4322,0.4186,0.4135,0.4499,0.4485,0.435,0.4275,0.4367,0.4472,0.9727,0.9533,0.9084,0.9053,0.9345,0.9199,0.9245,0.9383,0.9117,0.8965,0.886,0.8542,0.8178,0.7828,0.7785,0.7782,0.7926,0.8141,0.8601,0.922,0.979,1.0124,1.0216,1.0265,1.0072,0.9628,0.9624,0.9339,0.8883,0.869,0.8281,0.7696,0.7389,0.7355,0.7583,0.738,0.7546,0.8055,0.8055,0.8288,0.8715,0.8992,0.9088,0.8913,0.8937,0.8808,0.8452,0.823,0.794,0.7507,0.7231,0.6966,0.6659,0.5826,0.0,0.0,0.0,0.0,0.0,0.0,0.0,0.0,0.0,0.0,0.0039,0.0,0.0746,0.0,0.2072,0.267,0.2874,0.3181,0.0,0.0,0.2972,0.2921,0.2795,0.2802,0.2657,0.2274,0.2252,0.2112,0.1654,0.1235,0.0846,0.0668,0.0492,0.0451,0.0595,0.0634,0.0807,0.1211,0.1122,0.1211,0.1754,0.2364,0.3021,0.3702,0.3948,0.4186,0.4541,0.462,0.4736,0.4682,0.4466,0.439,0.4638,0.4317,0.4202,0.4491,0.4444,0.4326,0.4304,0.4509,0.4715,0.9226,0.921,0.9072,0.9127,0.9339,0.9264,0.923,0.9223,0.8987,0.8863,0.8786,0.8477,0.8306,0.8372,0.8131,0.8131,0.8372,0.8605,0.8942,0.934,0.9923,1.0216,1.0216,1.0216,1.0023,0.9624,0.9624,0.9428,0.9092,0.8796,0.842,0.7998,0.7776,0.7823,0.8128,0.7735,0.7784,0.824,0.8382,0.869,0.9122,0.9278,0.9262,0.906,0.8863,0.8555,0.8084,0.7764,0.7455,0.7194,0.7058,0.6969,0.6922,0.6424,0.6056,0.0,0.0,0.0,0.0,0.0,0.0,0.0,0.0,0.0,0.0,0.0,0.1521,0.2042,0.2799,0.3291,0.3504,0.3676,0.3738,0.3519,0.3444,0.3394,0.3343,0.3218,0.3027,0.2644,0.2565,0.2324,0.1855,0.1291,0.0897,0.0897,0.0673,0.0585,0.0682,0.0767,0.0987,0.1346,0.122,0.1324,0.1888,0.2626,0.3251,0.3804,0.4148,0.4434,0.4726,0.4782,0.4782,0.478,0.4547,0.4417,0.452,0.434,0.4176,0.4295,0.4443,0.4446,0.448,0.4701,0.4931,0.8714,0.8707,0.8834,0.8818,0.8699,0.8864,0.8773,0.8509,0.8469,0.8374,0.8282,0.8096,0.8336,0.8775,0.8333,0.8382,0.8829,0.8874,0.9027,0.9282,0.9772,1.0019,1.0019,1.0019,0.9826,0.9579,0.9579,0.9484,0.9187,0.8981,0.8641,0.8242,0.8133,0.822,0.8424,0.7938,0.7898,0.8396,0.8665,0.8996,0.9497,0.9473,0.9352,0.9037,0.8641,0.8162,0.7595,0.7098,0.6836,0.6792,0.6792,0.6833,0.7095,0.7078,0.6967,0.0,0.6303,0.0,0.0,0.0,0.0,0.0,0.0,0.0,0.0,0.1715,0.2219,0.2735,0.3457,0.3946,0.4037,0.4168,0.4166,0.3991,0.3857,0.3765,0.3631,0.3534,0.3353,0.2957,0.264,0.2325,0.1883,0.1211,0.0852,0.0987,0.0807,0.0673,0.0673,0.0942,0.1212,0.1394,0.1329,0.159,0.2238,0.2907,0.3431,0.3839,0.4235,0.4535,0.4732,0.4782,0.4782,0.4784,0.4583,0.4409,0.433,0.4296,0.416,0.4179,0.4458,0.4663,0.471,0.4921,0.5167,0.8595,0.88,0.8884,0.8796,0.8729,0.9001,0.899,0.8652,0.8414,0.8225,0.8082,0.8251,0.8478,0.8775,0.8676,0.8829,0.9133,0.9331,0.9476,0.9529,1.0068,1.0212,1.0019,1.0019,0.9772,0.9286,0.948,0.948,0.9187,0.9137,0.8878,0.8353,0.8461,0.8292,0.7926,0.0,0.0,0.0,0.8769,0.878,0.9067,0.8977,0.8808,0.8615,0.8512,0.0,0.7823,0.7319,0.6966,0.6792,0.6609,0.0,0.0,0.0,0.0,0.0,0.0,0.0,0.0,0.0,0.0,0.0,0.4337,0.3729,0.2874,0.2887,0.3128,0.3613,0.3809,0.3991,0.421,0.4078,0.4034,0.4166,0.3674,0.3406,0.354,0.3228,0.2949,0.2911,0.2609,0.2335,0.2103,0.148,0.0987,0.0852,0.0718,0.0628,0.0493,0.0987,0.1354,0.1468,0.1775,0.2194,0.2627,0.3276,0.3746,0.3995,0.4418,0.4684,0.4786,0.4784,0.4782,0.4782,0.4585,0.446,0.4573,0.4392,0.4301,0.4591,0.4682,0.4705,0.4708,0.5148,0.5526,0.837,0.0,0.8678,0.8692,0.0,0.8862,0.8826,0.8591,0.8442,0.8395,0.8348,0.8222,0.8432,0.8775,0.8676,0.873,0.9031,0.9426,0.9529,0.943,0.9969,1.0064,0.9826,0.9826,0.9677,0.9381,0.9529,0.9529,0.9381,0.913,0.8841,0.8631,0.8425,0.8285,0.8273,0.8825,0.9208,0.9295,0.8905,0.8901,0.9242,0.9063,0.8934,0.8909,0.8668,0.0,0.0,0.0,0.0,0.0,0.0,0.0,0.0,0.7453,0.0,0.7729,0.739,0.7093,0.6794,0.627,0.5795,0.5464,0.4865,0.4237,0.3576,0.3731,0.3942,0.4129,0.4336,0.4462,0.4511,0.4324,0.4125,0.4086,0.3674,0.3451,0.3539,0.3244,0.3015,0.2996,0.2712,0.2395,0.224,0.1436,0.0987,0.1031,0.0807,0.0762,0.0897,0.1166,0.1401,0.1521,0.1912,0.2328,0.2632,0.3237,0.3751,0.3864,0.4236,0.4535,0.4585,0.4736,0.4782,0.478,0.4654,0.4599,0.4608,0.4423,0.4382,0.4667,0.4739,0.475,0.4837,0.5234,0.545,0.8214,0.8531,0.8535,0.854,0.8632,0.8659,0.8567,0.8408,0.0,0.0,0.0,0.8242,0.8336,0.8775,0.8581,0.863,0.8973,0.9377,0.9529,0.9381,0.9723,0.9821,0.9628,0.9561,0.9557,0.9529,0.9561,0.9557,0.9426,0.9076,0.881,0.8689,0.8319,0.8382,0.8878,0.9355,0.9538,0.9417,0.8977,0.8981,0.9383,0.9109,0.9024,0.912,0.8689,0.8196,0.7594,0.7073,0.6797,0.6797,0.6797,0.7166,0.7975,0.8029,0.8084,0.8174,0.8003,0.7768,0.7503,0.6833,0.6346,0.5994,0.5082,0.4416,0.4045,0.4294,0.4474,0.4503,0.4756,0.4909,0.4791,0.4505,0.4201,0.3997,0.3765,0.3587,0.3585,0.3349,0.3163,0.3089,0.2681,0.237,0.2198,0.1391,0.0897,0.1211,0.0987,0.0897,0.1302,0.1397,0.1499,0.1661,0.1956,0.2219,0.2573,0.3041,0.3461,0.3623,0.4036,0.439,0.4438,0.4638,0.4784,0.4782,0.4765,0.4683,0.4591,0.4522,0.4516,0.4728,0.4719,0.4775,0.4992,0.5161,0.5228,0.8211,0.8535,0.8535,0.8425,0.8343,0.8462,0.8357,0.8116,0.8496,0.8563,0.8414,0.8393,0.8531,0.8775,0.8775,0.9027,0.948,0.9575,0.9723,0.9871,0.9723,0.9628,0.9583,0.9531,0.9423,0.9305,0.9431,0.9318,0.8989,0.908,0.8864,0.8373,0.8565,0.8829,0.9145,0.9377,0.9515,0.9542,0.8923,0.8672,0.872,0.8295,0.807,0.8095,0.8056,0.7853,0.7503,0.708,0.6797,0.6797,0.6797,0.7067,0.7613,0.7721,0.786,0.8106,0.7979,0.7768,0.7507,0.7017,0.6393,0.5605,0.5286,0.4993,0.4638,0.4476,0.4541,0.4869,0.4842,0.4741,0.4683,0.4283,0.4057,0.4168,0.3853,0.3587,0.3585,0.3314,0.3081,0.2955,0.2473,0.2203,0.2103,0.1525,0.1031,0.1122,0.1121,0.1122,0.1349,0.1458,0.1658,0.1947,0.202,0.225,0.2727,0.309,0.3314,0.3574,0.4038,0.439,0.434,0.4636,0.4784,0.4782,0.4716,0.4681,0.4643,0.4612,0.4661,0.4845,0.4854,0.4854,0.5031,0.4978,0.4888,0.8336,0.8594,0.8604,0.8567,0.8503,0.8408,0.8292,0.8163,0.8449,0.8553,0.8634,0.8482,0.8528,0.8775,0.8627,0.8878,0.9381,0.9381,0.9624,0.9969,0.9723,0.9624,0.9587,0.9414,0.9356,0.9393,0.936,0.9257,0.9038,0.9031,0.8742,0.8343,0.8731,0.9017,0.9183,0.9642,0.9745,0.9523,0.9091,0.8863,0.8924,0.8452,0.8218,0.8363,0.8267,0.7976,0.7589,0.7204,0.7006,0.7009,0.7009,0.7269,0.7866,0.7854,0.782,0.7878,0.7847,0.7672,0.7451,0.6934,0.6304,0.5569,0.5437,0.5374,0.5208,0.5288,0.5305,0.5342,0.5283,0.5158,0.497,0.4418,0.4038,0.4082,0.3765,0.3587,0.3583,0.3469,0.3284,0.3042,0.2625,0.231,0.2195,0.157,0.1166,0.1256,0.1256,0.1301,0.1392,0.1461,0.1567,0.1737,0.1807,0.2079,0.2554,0.2828,0.3062,0.3321,0.3835,0.4137,0.4185,0.4485,0.4734,0.4778,0.4718,0.4702,0.4647,0.4561,0.4654,0.4961,0.4851,0.4867,0.4942,0.4952,0.4884,0.8594,0.8869,0.8831,0.8817,0.8793,0.8484,0.835,0.8412,0.8442,0.8585,0.8728,0.8499,0.8577,0.8775,0.8577,0.873,0.9183,0.9331,0.9628,1.0019,0.9821,0.9673,0.9686,0.9416,0.9371,0.9541,0.9321,0.9176,0.9088,0.8829,0.8649,0.8542,0.8914,0.9148,0.9292,0.9928,1.0028,0.9552,0.9288,0.9139,0.8992,0.8535,0.8432,0.8577,0.8428,0.8084,0.7633,0.7388,0.7288,0.7288,0.7288,0.7588,0.8067,0.7933,0.7776,0.7707,0.7657,0.752,0.729,0.6807,0.6308,0.5781,0.5643,0.5675,0.5712,0.5985,0.6024,0.568,0.5591,0.5423,0.5103,0.4512,0.403,0.3914,0.374,0.3607,0.3499,0.3496,0.3408,0.3138,0.2693,0.2378,0.211,0.1615,0.1256,0.1346,0.1395,0.1445,0.1494,0.1517,0.1478,0.1561,0.1707,0.2022,0.2297,0.2574,0.2865,0.3171,0.3581,0.3883,0.4033,0.4384,0.4736,0.4778,0.4765,0.4714,0.4696,0.4585,0.4676,0.5014,0.5004,0.4831,0.4801,0.5018,0.4877,0.9062,0.9311,0.9204,0.9137,0.9072,0.8691,0.8546,0.8641,0.8656,0.8704,0.8678,0.85,0.8538,0.8775,0.8779,0.8931,0.9236,0.9677,1.0068,1.0314,1.0068,0.9969,0.9937,0.9632,0.9531,0.9565,0.9272,0.9006,0.8829,0.8581,0.8503,0.8686,0.8973,0.9311,0.9723,1.0159,1.0159,0.9675,0.9466,0.9101,0.8503,0.8187,0.8041,0.8038,0.8038,0.7889,0.7593,0.7543,0.7543,0.7543,0.7543,0.7686,0.7941,0.7798,0.7637,0.762,0.7494,0.729,0.7004,0.6706,0.6483,0.61,0.5994,0.5976,0.605,0.6264,0.6171,0.5788,0.5451,0.5228,0.5001,0.4429,0.3988,0.3884,0.3739,0.3574,0.3292,0.3226,0.3139,0.2964,0.2561,0.2244,0.2155,0.1705,0.1436,0.1395,0.1504,0.1565,0.171,0.1643,0.1616,0.1754,0.1902,0.2109,0.2531,0.2741,0.2923,0.3169,0.3433,0.3734,0.3984,0.4236,0.4537,0.4726,0.4728,0.4726,0.47,0.4674,0.4754,0.5065,0.509,0.4947,0.4598,0.4898,0.4905,0.928,0.9644,0.9413,0.9337,0.9258,0.9001,0.8846,0.8681,0.8793,0.8862,0.894,0.8958,0.8871,0.8772,0.877,0.9027,0.9434,0.9677,1.0068,1.0556,1.0364,1.0167,0.9982,0.9693,0.9494,0.9339,0.9049,0.8792,0.8538,0.8283,0.8367,0.8721,0.9072,0.9466,0.989,1.0228,1.0077,0.9496,0.9272,0.8804,0.8225,0.8091,0.7988,0.7988,0.7988,0.7892,0.7646,0.7593,0.7593,0.7593,0.7593,0.7651,0.786,0.7709,0.755,0.7406,0.7388,0.7374,0.7248,0.7232,0.7052,0.6723,0.6541,0.6468,0.6452,0.6384,0.6186,0.5834,0.5498,0.526,0.5056,0.4322,0.3825,0.3755,0.359,0.3379,0.3161,0.3184,0.3151,0.2958,0.2623,0.238,0.2289,0.193,0.1624,0.1548,0.1614,0.1721,0.1693,0.1725,0.1793,0.1749,0.1958,0.2261,0.251,0.2677,0.2899,0.3172,0.3433,0.3685,0.3984,0.4237,0.4487,0.4734,0.475,0.473,0.4738,0.4716,0.4795,0.5058,0.5244,0.5153,0.4977,0.5155,0.4952,0.965,0.986,0.9655,0.9489,0.9478,0.9309,0.9125,0.8857,0.8959,0.9059,0.9124,0.9403,0.9291,0.8984,0.9039,0.9295,0.9594,0.9846,1.0216,1.0659,1.0556,1.0364,1.0117,0.9821,0.9579,0.9282,0.9031,0.8733,0.8432,0.8141,0.8237,0.8775,0.9168,0.9591,0.9946,1.0143,1.0004,0.9368,0.9032,0.8663,0.8133,0.8012,0.7988,0.7988,0.7988,0.7889,0.7743,0.7696,0.7693,0.7693,0.7696,0.7743,0.783,0.7736,0.756,0.7421,0.7465,0.7544,0.7631,0.7536,0.74,0.7113,0.684,0.6655,0.6565,0.64,0.6191,0.598,0.5543,0.523,0.5022,0.426,0.3725,0.3569,0.3354,0.3212,0.3132,0.3148,0.3121,0.3018,0.2722,0.2464,0.2329,0.2013,0.1749,0.1582,0.1642,0.1842,0.168,0.1808,0.1831,0.1831,0.2152,0.2354,0.243,0.2745,0.2975,0.318,0.3433,0.3685,0.3984,0.4237,0.4489,0.4734,0.4784,0.4778,0.476,0.4761,0.4791,0.5054,0.5161,0.5258,0.5261,0.5277,0.4996,1.0249,1.0202,0.9926,0.9816,0.9761,0.953,0.9334,0.9158,0.9187,0.9173,0.9236,0.9617,0.9727,0.9549,0.9761,0.972,0.9645,1.0343,1.0605,1.0511,1.0654,1.0659,1.0364,1.0117,0.9826,0.948,0.9282,0.8882,0.8432,0.8141,0.8285,0.887,0.9216,0.9492,0.9804,1.008,0.9945,0.928,0.898,0.8668,0.831,0.8116,0.8008,0.8005,0.7995,0.7998,0.7992,0.7992,0.7992,0.7988,0.7939,0.7982,0.7958,0.7875,0.7742,0.7749,0.7762,0.783,0.7852,0.7531,0.7229,0.7123,0.6778,0.6434,0.6454,0.6273,0.61,0.6072,0.5453,0.4987,0.4701,0.4142,0.368,0.3406,0.3209,0.3142,0.3108,0.3139,0.3136,0.3044,0.2843,0.2502,0.2039,0.1903,0.1756,0.1623,0.1596,0.1713,0.1866,0.1745,0.1862,0.2113,0.2317,0.2369,0.2468,0.2821,0.3077,0.3232,0.3433,0.3684,0.3935,0.4185,0.4485,0.4684,0.4734,0.4778,0.4768,0.4823,0.4895,0.5013,0.5085,0.5153,0.5225,0.5065,0.4795,1.0308,1.0308,1.0363,1.0253,1.0091,1.004,0.9724,0.9352,0.9508,0.9392,0.9266,0.9831,1.0042,0.9869,1.022,1.0203,1.0074,1.0595,1.0757,1.0659,1.0757,1.0556,1.0162,1.0019,0.9772,0.9385,0.9232,0.8935,0.8432,0.8283,0.8487,0.8848,0.9007,0.9328,0.9702,0.9761,0.9516,0.9205,0.8916,0.8618,0.8354,0.8306,0.8282,0.8194,0.8187,0.814,0.7992,0.8133,0.8143,0.7995,0.7988,0.7944,0.7853,0.765,0.7524,0.7579,0.7612,0.7687,0.7736,0.7743,0.7537,0.7235,0.7039,0.6789,0.6647,0.6418,0.6175,0.5863,0.5573,0.5074,0.436,0.3986,0.368,0.3465,0.3257,0.3198,0.3344,0.3393,0.3352,0.3284,0.298,0.2526,0.225,0.2005,0.1822,0.1651,0.173,0.1798,0.1805,0.1828,0.1893,0.1924,0.202,0.2171,0.2121,0.2775,0.323,0.3282,0.3433,0.3684,0.3986,0.4237,0.4537,0.4734,0.4784,0.4782,0.4774,0.4816,0.4888,0.4897,0.4913,0.4897,0.4995,0.4753,0.4572,1.0417,1.0476,1.0637,1.0527,1.0312,1.0147,0.9926,0.9544,0.9706,0.9643,0.9465,0.9987,1.0241,1.0224,1.0481,1.0654,1.075,1.0816,1.0789,1.0744,1.0789,1.0511,1.0081,1.0086,0.9834,0.9393,0.9236,0.8985,0.8684,0.8482,0.8545,0.8888,0.8898,0.9112,0.9435,0.943,0.93,0.9064,0.8817,0.8584,0.8381,0.8484,0.8438,0.8364,0.8387,0.834,0.814,0.8241,0.8279,0.8123,0.8019,0.7941,0.785,0.774,0.7645,0.7619,0.7825,0.781,0.7667,0.7811,0.761,0.7202,0.7012,0.6889,0.6778,0.6594,0.6345,0.6066,0.5704,0.5181,0.4524,0.4153,0.3823,0.3479,0.3306,0.3283,0.3472,0.3504,0.348,0.3355,0.3012,0.2651,0.2454,0.2173,0.1945,0.1815,0.1889,0.1797,0.174,0.18,0.1959,0.1776,0.1921,0.2122,0.2272,0.2777,0.313,0.323,0.3583,0.3784,0.4036,0.4338,0.4537,0.4734,0.4782,0.4782,0.4784,0.4784,0.4784,0.4784,0.4622,0.4503,0.451,0.4423,0.427,1.0692,1.0692,1.0692,1.0527,1.0312,1.0036,0.9816,0.9816,0.9812,0.9801,0.9786,1.0143,1.041,1.0589,1.0477,1.0843,1.1327,1.1019,1.0748,1.0709,1.078,1.0497,1.0007,1.0176,1.0062,0.9607,0.9339,0.9191,0.9107,0.872,0.8621,0.887,0.8871,0.8919,0.8937,0.921,0.914,0.8869,0.8737,0.8648,0.8506,0.8509,0.8513,0.8503,0.8608,0.8611,0.8472,0.8353,0.8323,0.8231,0.8062,0.7992,0.8008,0.8106,0.8191,0.8019,0.8261,0.8225,0.7817,0.7587,0.7421,0.6998,0.6656,0.6639,0.6775,0.6715,0.6631,0.6418,0.6059,0.5503,0.5006,0.4549,0.3976,0.3344,0.344,0.3525,0.3429,0.3482,0.3534,0.3285,0.3006,0.2897,0.2808,0.2398,0.2101,0.2002,0.1906,0.1742,0.1667,0.177,0.1806,0.1887,0.1925,0.2023,0.2374,0.2826,0.2978,0.318,0.3632,0.4034,0.4237,0.4487,0.4587,0.4734,0.4784,0.4784,0.4784,0.4734,0.4636,0.4585,0.4384,0.4135,0.4085,0.4029,0.3955,1.0692,1.0692,1.0692,1.0637,1.0586,1.0476,1.0308,1.0147,1.0147,1.0033,0.9871,1.0147,1.0366,1.0437,1.0405,1.0717,1.1212,1.0863,1.068,1.0687,1.0671,1.0425,1.0058,1.0147,1.0084,0.9807,0.9581,0.9348,0.9136,0.8953,0.8862,0.8796,0.8745,0.8798,0.8871,0.8992,0.8961,0.8876,0.8866,0.8791,0.8669,0.8743,0.8743,0.8655,0.8689,0.8682,0.8635,0.8496,0.8319,0.8133,0.8015,0.7982,0.7975,0.8187,0.819,0.8095,0.8112,0.8003,0.7685,0.7498,0.7247,0.6856,0.6662,0.6701,0.6781,0.688,0.6663,0.6317,0.6034,0.5695,0.4803,0.4468,0.4196,0.3749,0.382,0.3937,0.3942,0.3888,0.3756,0.354,0.3152,0.2867,0.2687,0.2343,0.2083,0.1925,0.1832,0.1725,0.1699,0.1689,0.169,0.1782,0.1808,0.193,0.2294,0.2699,0.2993,0.33,0.3805,0.421,0.4407,0.4523,0.4667,0.475,0.4746,0.4788,0.4788,0.4686,0.4537,0.4286,0.4034,0.3833,0.3732,0.3671,0.3606,1.0692,1.0692,1.0692,1.0692,1.0692,1.0582,1.0531,1.0421,1.0308,1.0198,1.0036,1.0202,1.0366,1.0398,1.0361,1.0703,1.121,1.0877,1.0682,1.0737,1.0634,1.0402,1.0041,1.0018,1.0099,1.0046,0.9742,0.9466,0.9318,0.9131,0.8943,0.8887,0.8763,0.8788,0.8923,0.8937,0.8937,0.8937,0.8933,0.8834,0.8835,0.8834,0.8869,0.8733,0.8713,0.8655,0.856,0.8452,0.8319,0.816,0.8126,0.8073,0.8057,0.8312,0.8347,0.8121,0.8106,0.8044,0.7615,0.744,0.7252,0.6886,0.6884,0.6944,0.7048,0.7205,0.6926,0.638,0.6232,0.5839,0.4915,0.4636,0.4529,0.438,0.4199,0.4201,0.4269,0.4075,0.3802,0.3494,0.3111,0.282,0.2736,0.2277,0.2062,0.1905,0.1809,0.1811,0.1729,0.171,0.1707,0.1745,0.1807,0.2001,0.2222,0.2573,0.2961,0.3472,0.3987,0.4347,0.4604,0.4597,0.4663,0.4722,0.4755,0.4819,0.4813,0.4595,0.4388,0.4086,0.3784,0.3633,0.3533,0.3381,0.3321,1.0692,1.0692,1.0692,1.0692,1.0692,1.0472,1.0472,1.0637,1.0421,1.0312,1.0312,1.0312,1.0476,1.0582,1.0449,1.0789,1.1341,1.0941,1.0725,1.079,1.0685,1.0491,1.0261,1.0087,1.0148,1.0249,0.9796,0.9598,0.9541,0.9186,0.8948,0.9047,0.8858,0.8794,0.8861,0.8937,0.8937,0.8937,0.8937,0.8875,0.8865,0.8878,0.8811,0.872,0.8686,0.8564,0.8353,0.835,0.8327,0.8303,0.8286,0.8262,0.8333,0.8557,0.8461,0.8133,0.8346,0.8047,0.7611,0.7439,0.7324,0.715,0.7084,0.7187,0.7469,0.7428,0.722,0.667,0.6473,0.6024,0.5295,0.501,0.4957,0.4918,0.4671,0.4407,0.4143,0.3893,0.3717,0.3461,0.2977,0.2736,0.2956,0.2328,0.2062,0.2011,0.19,0.183,0.1811,0.1735,0.1714,0.1746,0.1832,0.2087,0.2369,0.2668,0.3066,0.3745,0.4165,0.4434,0.4782,0.4767,0.4684,0.4694,0.4705,0.482,0.4733,0.4515,0.4246,0.3935,0.3684,0.3484,0.3332,0.318,0.313,1.0692,1.0692,1.0692,1.0692,1.0692,1.0637,1.0637,1.0692,1.0641,1.0594,1.0586,1.0586,1.0645,1.0692,1.0637,1.0747,1.0857,1.0802,1.0735,1.0736,1.0691,1.0662,1.0517,1.0371,1.0331,1.0342,0.9902,0.9601,0.9541,0.9183,0.8993,0.8927,0.8866,0.8834,0.8937,0.8937,0.8937,0.8937,0.8937,0.8937,0.8937,0.8937,0.8807,0.872,0.8604,0.8462,0.8289,0.8323,0.8211,0.8116,0.8265,0.8374,0.8435,0.8611,0.8578,0.8423,0.8149,0.7977,0.7656,0.7468,0.7359,0.7229,0.7275,0.7442,0.7559,0.7394,0.7042,0.6589,0.6239,0.5794,0.5102,0.4975,0.4998,0.5059,0.4946,0.4732,0.4329,0.4181,0.3993,0.3517,0.3165,0.2916,0.2722,0.2402,0.2019,0.1907,0.185,0.1792,0.1774,0.1809,0.1732,0.1853,0.2004,0.2258,0.2514,0.2766,0.3234,0.3979,0.4367,0.4502,0.4796,0.4992,0.4833,0.4755,0.4719,0.4786,0.458,0.4342,0.4067,0.3748,0.3484,0.3232,0.313,0.2978,0.2978,1.0692,1.0692,1.0692,1.0692,1.0692,1.0692,1.0692,1.0708,1.0777,1.0761,1.072,1.0777,1.0765,1.0696,1.0692,1.0692,1.0692,1.0798,1.0798,1.0747,1.0789,1.0789,1.0698,1.0517,1.0415,1.0463,0.988,0.9632,0.9533,0.9124,0.8855,0.8858,0.8768,0.8823,0.8937,0.8937,0.8937,0.8937,0.8937,0.8937,0.8937,0.8937,0.8808,0.8655,0.8516,0.8414,0.8296,0.8326,0.8289,0.8218,0.8333,0.8496,0.8577,0.8723,0.8678,0.8537,0.8156,0.7934,0.7759,0.7529,0.7437,0.7526,0.7552,0.7522,0.755,0.7331,0.6789,0.6292,0.603,0.5599,0.5118,0.5006,0.5012,0.5044,0.5168,0.499,0.4369,0.4308,0.3963,0.3515,0.3097,0.2828,0.2523,0.2243,0.2019,0.1851,0.1795,0.1794,0.1789,0.1824,0.1867,0.1988,0.2197,0.2493,0.2762,0.3078,0.3288,0.3994,0.4397,0.4593,0.485,0.5084,0.4968,0.4845,0.4796,0.4643,0.4445,0.4193,0.3802,0.3528,0.3251,0.3083,0.2932,0.2939,0.2938,1.0692,1.0692,1.0747,1.0747,1.0692,1.0747,1.0747,1.0724,1.0894,1.0882,1.08,1.0918,1.0921,1.0806,1.0857,1.0747,1.0802,1.1072,1.0966,1.0911,1.0911,1.0911,1.0781,1.0612,1.0612,1.0572,0.9919,0.9678,0.9537,0.8965,0.8702,0.8768,0.8654,0.8709,0.8881,0.8937,0.8937,0.8937,0.8937,0.8937,0.8937,0.893,0.8811,0.8598,0.8506,0.8487,0.8377,0.8418,0.8448,0.8378,0.8574,0.8669,0.872,0.8794,0.8754,0.8484,0.8211,0.7992,0.7934,0.7587,0.7538,0.7894,0.7543,0.7371,0.7488,0.7063,0.6492,0.5989,0.5838,0.5536,0.5187,0.5151,0.514,0.5101,0.5252,0.5058,0.457,0.433,0.4024,0.324,0.2858,0.258,0.2244,0.1963,0.1795,0.1851,0.1795,0.1795,0.1848,0.189,0.1998,0.2121,0.2428,0.2767,0.3052,0.3344,0.3563,0.3951,0.4307,0.4554,0.4834,0.5033,0.5025,0.4943,0.4824,0.462,0.4429,0.4067,0.3698,0.3417,0.3194,0.2961,0.2788,0.2853,0.2908,1.0692,1.0692,1.0907,1.0911,1.0747,1.0907,1.0907,1.0696,1.0737,1.0863,1.0928,1.0851,1.1012,1.1345,1.1126,1.1017,1.1072,1.1291,1.135,1.1017,1.0802,1.0911,1.0962,1.0912,1.0874,1.0621,1.0057,0.9783,0.9592,0.9037,0.8654,0.8823,0.8654,0.8654,0.8881,0.8937,0.8937,0.8937,0.8937,0.8937,0.8937,0.8878,0.8845,0.8655,0.855,0.8479,0.8479,0.8581,0.8638,0.8642,0.8676,0.873,0.8754,0.8804,0.8761,0.8543,0.8211,0.7992,0.7937,0.7706,0.7604,0.7798,0.7464,0.7215,0.7087,0.6572,0.6055,0.5758,0.553,0.5409,0.5215,0.516,0.5178,0.5246,0.5326,0.5262,0.4851,0.4566,0.4072,0.3301,0.2861,0.2581,0.2244,0.1963,0.1851,0.1795,0.1795,0.1795,0.1903,0.2009,0.218,0.2356,0.2619,0.2969,0.3361,0.3546,0.3656,0.3768,0.4013,0.4367,0.465,0.4817,0.4738,0.4766,0.4841,0.4642,0.4344,0.4203,0.3819,0.3503,0.3188,0.3059,0.2938,0.2939,0.2926,1.0857,1.1131,1.1131,1.1126,1.1131,1.124,1.1185,1.0928,1.1011,1.1045,1.1109,1.1049,1.1215,1.1568,1.1404,1.135,1.1295,1.1181,1.124,1.1185,1.0966,1.0802,1.094,1.1096,1.1121,1.0767,1.0143,0.9816,0.9596,0.9037,0.8654,0.8881,0.8598,0.8654,0.8881,0.8881,0.8937,0.8937,0.8937,0.8937,0.8937,0.8878,0.8811,0.8737,0.8632,0.8587,0.8601,0.8733,0.875,0.8815,0.8815,0.876,0.8767,0.8838,0.8819,0.8657,0.8211,0.81,0.81,0.7595,0.7271,0.7642,0.7076,0.679,0.6534,0.609,0.5765,0.5507,0.5389,0.5324,0.5288,0.5308,0.5285,0.5194,0.5326,0.5212,0.4819,0.4592,0.4143,0.3361,0.2861,0.2468,0.2132,0.1907,0.1851,0.1795,0.1795,0.1851,0.2019,0.2183,0.2408,0.2635,0.2858,0.324,0.3634,0.3804,0.3744,0.3687,0.3634,0.3979,0.426,0.4372,0.4369,0.4571,0.4722,0.455,0.4294,0.4092,0.4088,0.3895,0.3679,0.3327,0.3098,0.3046,0.3075,1.1131,1.1568,1.135,1.1404,1.1568,1.1623,1.1459,1.1156,1.13,1.1253,1.1232,1.1308,1.1406,1.1704,1.1678,1.1678,1.1514,1.1126,1.1076,1.1295,1.0911,1.0835,1.0943,1.1145,1.1218,1.102,1.0256,0.992,0.9603,0.904,0.8654,0.8823,0.8543,0.8624,0.8856,0.8888,0.8902,0.8988,0.8902,0.8937,0.8937,0.8937,0.8814,0.8791,0.8754,0.8743,0.8764,0.8849,0.8927,0.8888,0.8902,0.8915,0.8971,0.8974,0.8939,0.8893,0.8364,0.8183,0.805,0.7416,0.6982,0.7348,0.6601,0.6197,0.6077,0.5793,0.5463,0.5383,0.5286,0.5259,0.531,0.5369,0.5204,0.51,0.5212,0.51,0.4706,0.4536,0.4032,0.3305,0.2859,0.2468,0.2076,0.1795,0.1795,0.1795,0.1851,0.1907,0.2075,0.2355,0.2635,0.2915,0.3139,0.3585,0.3979,0.3924,0.3868,0.3587,0.3363,0.3587,0.3868,0.3811,0.3924,0.4445,0.455,0.4428,0.4347,0.4277,0.4246,0.4262,0.4016,0.3594,0.3368,0.3209,0.3283,1.1514,1.1623,1.1782,1.1787,1.1623,1.1841,1.1623,1.1185,1.1181,1.1329,1.1472,1.1274,1.1625,1.2005,1.2001,1.1946,1.1787,1.1295,1.1072,1.1185,1.0873,1.0824,1.1119,1.1162,1.1193,1.11,1.0459,1.001,0.9618,0.8985,0.8654,0.8716,0.839,0.8431,0.8762,0.8788,0.8785,0.8999,0.8939,0.894,0.8937,0.8933,0.8927,0.8879,0.8886,0.8899,0.8848,0.8865,0.8937,0.8947,0.9052,0.9103,0.9123,0.9123,0.9071,0.8838,0.851,0.8232,0.7864,0.7296,0.6907,0.67,0.617,0.5787,0.5719,0.5467,0.5292,0.519,0.5186,0.5119,0.4977,0.5212,0.5212,0.51,0.5156,0.527,0.4931,0.4592,0.415,0.3316,0.2922,0.2473,0.2084,0.18,0.1795,0.1851,0.1907,0.1907,0.1963,0.2411,0.2803,0.3139,0.3421,0.3867,0.4369,0.4092,0.3924,0.3477,0.3307,0.3251,0.3419,0.3306,0.3538,0.426,0.4537,0.4394,0.4419,0.4443,0.4431,0.4424,0.4115,0.3808,0.3592,0.3427,0.3614,1.1782,1.2001,1.2001,1.2005,1.2001,1.2114,1.2001,1.1636,1.1669,1.1775,1.1731,1.161,1.1711,1.2083,1.2055,1.2001,1.1782,1.124,1.1021,1.0975,1.0789,1.0815,1.1178,1.1188,1.1098,1.0875,1.0406,1.0036,0.9728,0.893,0.8602,0.8566,0.8276,0.8298,0.8618,0.8642,0.8692,0.8891,0.8907,0.8937,0.8937,0.9047,0.9103,0.9006,0.9119,0.9154,0.9049,0.9049,0.9049,0.9062,0.9169,0.9248,0.9323,0.9344,0.9268,0.8926,0.8571,0.8159,0.7589,0.6989,0.6517,0.6208,0.5795,0.5532,0.5439,0.5314,0.5184,0.5037,0.4996,0.4939,0.4758,0.4989,0.5044,0.4987,0.5216,0.5274,0.5104,0.4765,0.4112,0.3395,0.2986,0.254,0.1988,0.1812,0.1799,0.1851,0.1963,0.1963,0.1963,0.2411,0.297,0.3362,0.3699,0.4091,0.4485,0.4271,0.3871,0.3421,0.3157,0.3156,0.327,0.3277,0.3774,0.4462,0.4488,0.4487,0.4581,0.4729,0.4603,0.4528,0.433,0.4088,0.3819,0.3701,0.3834,1.2001,1.2382,1.2164,1.2219,1.2382,1.2382,1.2251,1.2087,1.2187,1.2118,1.2046,1.1952,1.1921,1.1982,1.1946,1.1891,1.1782,1.1072,1.0911,1.0784,1.0643,1.0626,1.0826,1.1039,1.091,1.0496,1.0201,0.9986,0.9477,0.8871,0.8501,0.8391,0.821,0.8214,0.8286,0.848,0.86,0.8718,0.8847,0.8885,0.8992,0.9158,0.9158,0.895,0.9297,0.9366,0.9193,0.9241,0.9255,0.9268,0.9249,0.931,0.9429,0.9571,0.9417,0.8967,0.8648,0.8043,0.733,0.6807,0.6282,0.5802,0.5524,0.5345,0.5316,0.5314,0.5286,0.5011,0.4955,0.4787,0.4513,0.4658,0.4776,0.4905,0.5079,0.5306,0.51,0.472,0.4121,0.3544,0.306,0.2607,0.2113,0.1982,0.2021,0.2188,0.23,0.2132,0.2187,0.2579,0.3026,0.3529,0.3977,0.4313,0.4491,0.44,0.3882,0.3307,0.312,0.3031,0.3257,0.343,0.4002,0.447,0.4761,0.4763,0.492,0.4947,0.5009,0.4927,0.4648,0.4419,0.4128,0.3956,0.394,1.2332,1.2382,1.2382,1.2382,1.2382,1.2382,1.238,1.2233,1.2133,1.2142,1.2219,1.2078,1.2019,1.1955,1.1732,1.1514,1.1291,1.1017,1.0747,1.0559,1.0484,1.0397,1.0247,1.0348,1.041,1.0141,0.9858,0.942,0.904,0.8618,0.8391,0.8198,0.8028,0.8018,0.8235,0.8326,0.8423,0.8684,0.8847,0.8937,0.8937,0.8995,0.8995,0.8974,0.9135,0.9288,0.9262,0.934,0.9351,0.9367,0.9479,0.9551,0.9605,0.9717,0.9418,0.9051,0.8733,0.8262,0.7166,0.6652,0.6265,0.5732,0.547,0.5375,0.5357,0.54,0.5366,0.5041,0.5036,0.4743,0.4386,0.4407,0.4526,0.4722,0.492,0.496,0.4872,0.4718,0.4113,0.3656,0.311,0.281,0.2412,0.2325,0.2244,0.2468,0.2581,0.2412,0.2468,0.2803,0.3306,0.3864,0.4094,0.4431,0.4518,0.4423,0.3865,0.3217,0.3142,0.3072,0.336,0.3656,0.3945,0.4388,0.4686,0.4837,0.4782,0.4908,0.5205,0.5156,0.4761,0.4592,0.4479,0.4254,0.4029,1.2382,1.2382,1.2382,1.2382,1.2382,1.2382,1.2379,1.2372,1.2571,1.2488,1.2367,1.2366,1.2228,1.1987,1.1509,1.1345,1.1236,1.0907,1.0527,1.0292,1.0249,1.022,1.0149,1.0204,1.015,0.9794,0.9599,0.9147,0.8726,0.8382,0.8201,0.7977,0.7817,0.7802,0.8107,0.8191,0.8384,0.8539,0.8742,0.8892,0.894,0.9051,0.9106,0.895,0.9334,0.9431,0.9374,0.9429,0.9503,0.952,0.971,0.9902,0.9937,0.9971,0.9876,0.9454,0.9092,0.8236,0.7043,0.6702,0.6188,0.5688,0.5435,0.5382,0.54,0.5463,0.5402,0.511,0.4881,0.4599,0.426,0.4225,0.4286,0.4423,0.47,0.4733,0.4645,0.4451,0.415,0.3687,0.3278,0.3024,0.2828,0.2682,0.2596,0.2636,0.275,0.2637,0.2748,0.3083,0.3643,0.4313,0.4433,0.4553,0.4483,0.4346,0.3809,0.3285,0.348,0.3458,0.3636,0.3893,0.4124,0.4386,0.4714,0.476,0.4578,0.4846,0.5244,0.5081,0.4817,0.4597,0.4433,0.4203,0.4089,1.2382,1.2382,1.2382,1.2382,1.2382,1.2382,1.2424,1.2564,1.2767,1.2748,1.2534,1.2427,1.2251,1.19,1.1455,1.1236,1.1404,1.0637,1.0308,1.0145,1.001,0.9901,0.9814,0.9845,0.9745,0.9437,0.9356,0.9013,0.8542,0.8262,0.8148,0.7829,0.7766,0.7768,0.7861,0.8201,0.8482,0.8692,0.8881,0.9015,0.9005,0.9227,0.9168,0.9198,0.942,0.9669,0.9518,0.9581,0.9659,0.9726,0.9849,0.9979,1.012,1.0066,0.9879,0.9518,0.9156,0.8332,0.7313,0.6726,0.625,0.5752,0.5469,0.5439,0.5473,0.5522,0.5462,0.5193,0.5015,0.4662,0.4301,0.418,0.4241,0.4323,0.4474,0.4557,0.4633,0.4508,0.4219,0.3704,0.3451,0.3456,0.3253,0.3105,0.3014,0.2925,0.2861,0.2808,0.3036,0.332,0.3834,0.446,0.4699,0.4665,0.4546,0.4293,0.374,0.3471,0.3609,0.3856,0.4041,0.413,0.424,0.4488,0.4722,0.4582,0.4383,0.4815,0.5173,0.5019,0.4812,0.4562,0.4329,0.4153,0.4148,1.2382,1.2382,1.2382,1.2382,1.2382,1.2382,1.255,1.2668,1.2564,1.2621,1.2631,1.2312,1.2133,1.19,1.1459,1.1181,1.1131,1.0582,1.0143,0.9865,0.9675,0.9447,0.9339,0.9248,0.9226,0.9067,0.9074,0.8893,0.8535,0.8435,0.8143,0.7793,0.7766,0.787,0.799,0.8306,0.8698,0.8976,0.9157,0.9147,0.9137,0.9253,0.9197,0.9258,0.9466,0.9595,0.9602,0.971,0.9758,0.9758,0.9889,1.0049,1.0222,1.0094,0.9879,0.9579,0.9156,0.8337,0.7472,0.681,0.6257,0.5771,0.551,0.5527,0.5518,0.5692,0.5566,0.537,0.5171,0.489,0.4524,0.4277,0.4257,0.4219,0.4248,0.434,0.4531,0.464,0.4352,0.3838,0.3687,0.3741,0.3646,0.3496,0.3308,0.3269,0.3221,0.3168,0.3288,0.3578,0.3933,0.4457,0.4815,0.4854,0.469,0.4372,0.398,0.3709,0.3733,0.4099,0.4462,0.4501,0.4163,0.4536,0.4709,0.4384,0.418,0.4479,0.4764,0.4859,0.4804,0.4538,0.4336,0.4151,0.426,1.2713,1.2713,1.2495,1.2382,1.2382,1.2382,1.2434,1.2573,1.2616,1.2677,1.2748,1.2435,1.2278,1.2055,1.1678,1.1404,1.1295,1.0363,1.0036,0.9662,0.9421,0.9092,0.8971,0.8994,0.9032,0.9049,0.9069,0.8913,0.8564,0.8509,0.8399,0.8133,0.7911,0.7973,0.8129,0.8497,0.8887,0.9205,0.9289,0.935,0.935,0.935,0.935,0.9317,0.9476,0.9602,0.9629,0.9747,0.9751,0.9741,0.9966,1.0194,1.0346,1.0212,0.9997,0.9758,0.9278,0.8392,0.7483,0.6899,0.6398,0.5791,0.5538,0.5554,0.5607,0.5733,0.5772,0.5596,0.5422,0.5068,0.4751,0.4433,0.4249,0.4102,0.4131,0.4224,0.4412,0.4578,0.4576,0.4169,0.407,0.4131,0.3985,0.3844,0.3695,0.3558,0.3519,0.348,0.3606,0.3793,0.4157,0.4467,0.4833,0.4934,0.4826,0.4559,0.4284,0.4069,0.3791,0.4028,0.4326,0.4041,0.3816,0.4256,0.4504,0.4174,0.4032,0.414,0.4324,0.4526,0.4564,0.4502,0.4299,0.41,0.4258,1.2822,1.2713,1.2491,1.2327,1.2273,1.2278,1.2278,1.2306,1.2427,1.2562,1.2548,1.2284,1.2169,1.2005,1.1678,1.1404,1.1147,1.0524,1.0016,0.9695,0.9373,0.9078,0.895,0.8954,0.8994,0.9086,0.9161,0.8982,0.8629,0.8592,0.8438,0.8271,0.8155,0.8216,0.8531,0.8862,0.9195,0.9336,0.9432,0.9408,0.9395,0.9425,0.9398,0.9425,0.9571,0.968,0.9707,0.9774,0.9771,0.9814,0.9939,1.0304,1.041,1.0414,1.0233,0.994,0.9387,0.8436,0.7585,0.671,0.6266,0.5747,0.5684,0.57,0.5735,0.5784,0.5831,0.5831,0.5583,0.5333,0.4972,0.473,0.4551,0.4454,0.4041,0.4064,0.437,0.4606,0.461,0.4495,0.4512,0.4479,0.4188,0.3983,0.3876,0.3746,0.3695,0.3653,0.3782,0.3972,0.4342,0.4599,0.4856,0.4906,0.4841,0.4555,0.4328,0.4032,0.3808,0.3751,0.3752,0.3516,0.3577,0.407,0.4132,0.3887,0.3939,0.4105,0.4174,0.4286,0.4321,0.4344,0.4323,0.418,0.4097,1.2708,1.2441,1.2441,1.2223,1.206,1.2001,1.2055,1.206,1.2028,1.2042,1.2046,1.1841,1.1673,1.1623,1.1404,1.1236,1.1114,1.0624,1.0185,0.9813,0.9548,0.9262,0.9033,0.8944,0.8974,0.8984,0.911,0.905,0.874,0.8757,0.8558,0.842,0.8496,0.8678,0.9079,0.9423,0.9527,0.9432,0.9551,0.952,0.949,0.9551,0.953,0.9537,0.9659,0.9774,0.9785,0.9795,0.9788,0.9758,0.9785,1.0151,1.0549,1.0151,1.0001,1.0061,0.9339,0.8601,0.785,0.646,0.5845,0.5772,0.5778,0.58,0.5874,0.5906,0.5896,0.5882,0.5831,0.5653,0.5352,0.5046,0.4855,0.455,0.413,0.4073,0.4379,0.4539,0.4532,0.4671,0.4735,0.4716,0.4406,0.4118,0.3978,0.389,0.3826,0.3834,0.3966,0.4163,0.4545,0.4556,0.4757,0.4902,0.4823,0.4602,0.4309,0.4069,0.3761,0.3576,0.3391,0.3207,0.3453,0.3883,0.3946,0.3825,0.4009,0.4189,0.4237,0.4221,0.4142,0.4187,0.4224,0.4255,0.4164,1.2851,1.2718,1.2495,1.2223,1.206,1.2164,1.2164,1.2001,1.1837,1.1841,1.1896,1.1732,1.1732,1.1678,1.1345,1.108,1.1008,1.0703,1.0252,0.9861,0.9711,0.9321,0.9033,0.8892,0.8984,0.91,0.9222,0.9167,0.9007,0.897,0.8995,0.8987,0.8994,0.9246,0.9309,0.9506,0.9602,0.9669,0.9727,0.9724,0.968,0.9707,0.9713,0.9652,0.9761,0.9819,0.9819,0.9819,0.9791,0.9741,0.9768,1.0027,1.029,0.9939,0.9758,0.97,0.9037,0.8363,0.7441,0.6335,0.5904,0.5861,0.5867,0.5878,0.5914,0.5919,0.5916,0.5919,0.5919,0.5609,0.5114,0.4991,0.4805,0.4496,0.4256,0.4318,0.4493,0.4448,0.449,0.4704,0.4843,0.4729,0.4506,0.4301,0.4156,0.4146,0.414,0.4098,0.4175,0.4437,0.4701,0.452,0.4592,0.4784,0.4739,0.4441,0.4133,0.3884,0.3515,0.3207,0.3022,0.3022,0.3391,0.3946,0.3884,0.3885,0.4053,0.4212,0.4277,0.4265,0.4187,0.4295,0.4432,0.4407,0.4268,1.2748,1.2612,1.2467,1.2278,1.2169,1.2223,1.2164,1.1951,1.1732,1.1728,1.1732,1.1459,1.135,1.135,1.1185,1.1029,1.1019,1.0852,1.0514,1.0054,0.9896,0.9546,0.922,0.8885,0.8863,0.9053,0.9118,0.9071,0.901,0.9178,0.9207,0.931,0.9515,0.9511,0.9482,0.962,0.969,0.9734,0.9741,0.9771,0.9751,0.9764,0.9781,0.9754,0.9781,0.9819,0.9819,0.9805,0.9785,0.9734,0.9737,0.9895,0.9978,0.9935,0.9761,0.9579,0.8848,0.8058,0.7077,0.6278,0.5959,0.5906,0.5919,0.5919,0.5919,0.5919,0.5919,0.5919,0.5919,0.5671,0.5302,0.5179,0.4933,0.4624,0.4439,0.4562,0.4493,0.4389,0.4381,0.4651,0.46,0.4545,0.4487,0.4488,0.4288,0.4406,0.4464,0.4481,0.443,0.4621,0.4695,0.4515,0.4512,0.4697,0.4572,0.4142,0.3893,0.3702,0.333,0.2899,0.3085,0.3085,0.3515,0.3884,0.4007,0.4059,0.4206,0.4287,0.4292,0.4294,0.4346,0.446,0.4639,0.462,0.4494,1.2414,1.2176,1.2302,1.2382,1.2327,1.2169,1.2055,1.2001,1.1678,1.1568,1.1568,1.1021,1.0857,1.0802,1.0747,1.0841,1.1004,1.1118,1.0834,1.0523,1.0242,0.9818,0.9349,0.8878,0.8843,0.8831,0.8878,0.9036,0.8978,0.9167,0.9237,0.9328,0.9402,0.9533,0.9647,0.9717,0.9737,0.9741,0.9768,0.9771,0.9741,0.9771,0.9761,0.9747,0.9768,0.9812,0.9819,0.9815,0.9812,0.9805,0.9812,0.9997,1.0058,0.994,1.0061,0.9697,0.8662,0.7689,0.6959,0.6285,0.5978,0.5919,0.5919,0.5919,0.5916,0.5916,0.5978,0.5978,0.5978,0.5916,0.5794,0.5546,0.5298,0.4991,0.4622,0.4561,0.4436,0.4363,0.4298,0.4306,0.4246,0.4126,0.4004,0.4009,0.4501,0.474,0.479,0.4794,0.4742,0.4745,0.47,0.4355,0.4414,0.4659,0.4407,0.3963,0.3771,0.3577,0.3022,0.2714,0.2899,0.3208,0.3515,0.3822,0.413,0.4294,0.4311,0.4254,0.4249,0.4373,0.4639,0.4775,0.5023,0.487,0.4801,1.2437,1.2302,1.2358,1.2382,1.2387,1.2332,1.2169,1.1951,1.1459,1.1345,1.1568,1.0966,1.0802,1.0966,1.0802,1.0865,1.0972,1.1045,1.0854,1.0634,1.0376,0.9942,0.9423,0.8989,0.8881,0.8873,0.896,0.9001,0.9131,0.9258,0.9339,0.9386,0.9453,0.9543,0.9663,0.9771,0.9761,0.9771,0.9802,0.9778,0.9761,0.9795,0.9774,0.9781,0.9785,0.9819,0.9819,0.9819,0.9819,0.9819,0.9819,0.9879,0.9883,0.9822,0.9761,0.9214,0.8238,0.7324,0.69,0.6287,0.5916,0.5916,0.5919,0.5919,0.5978,0.6039,0.6101,0.6101,0.6099,0.6099,0.5855,0.5607,0.5362,0.4993,0.4685,0.4501,0.4373,0.4174,0.4174,0.4067,0.3946,0.4007,0.3824,0.4193,0.4685,0.4993,0.5116,0.5119,0.5063,0.5068,0.4773,0.4429,0.4368,0.461,0.4218,0.3773,0.3706,0.3517,0.3022,0.2775,0.3022,0.3331,0.3516,0.3824,0.407,0.4219,0.429,0.43,0.4325,0.4826,0.515,0.5282,0.5299,0.5155,0.5028,1.2316,1.2274,1.2354,1.2441,1.255,1.2441,1.2387,1.2223,1.1728,1.1564,1.1514,1.1076,1.0911,1.0911,1.0755,1.0789,1.1028,1.1045,1.0936,1.075,1.0395,0.9958,0.9554,0.9051,0.8823,0.8866,0.891,0.8917,0.9167,0.93,0.9401,0.9496,0.9544,0.9595,0.9676,0.973,0.9761,0.9791,0.9819,0.9819,0.9819,0.9819,0.9819,0.9819,0.9819,0.9819,0.9819,0.9819,0.9819,0.9819,0.9819,0.9819,0.9822,0.9761,0.9518,0.8973,0.836,0.7569,0.6959,0.6407,0.6101,0.5978,0.6039,0.6099,0.616,0.6283,0.6221,0.6221,0.6283,0.6219,0.5914,0.5546,0.5241,0.4935,0.4749,0.4502,0.4301,0.4039,0.3927,0.3821,0.3825,0.3948,0.4133,0.4504,0.4752,0.488,0.5137,0.5459,0.5402,0.541,0.4988,0.4511,0.4505,0.4557,0.41,0.3711,0.3643,0.3579,0.3393,0.3208,0.3332,0.3457,0.3706,0.3889,0.4071,0.4156,0.4298,0.44,0.455,0.5054,0.5393,0.5381,0.5405,0.5422,0.536,1.209,1.2114,1.2351,1.2604,1.2767,1.2555,1.2604,1.2772,1.2223,1.1841,1.1568,1.1236,1.0966,1.0802,1.0696,1.0798,1.0928,1.1001,1.1013,1.0968,1.048,1.0036,0.9595,0.9054,0.8964,0.884,0.8817,0.8967,0.9167,0.933,0.9391,0.9574,0.9559,0.9662,0.9823,0.983,0.9804,0.9805,0.9819,0.9819,0.9819,0.9819,0.9819,0.9819,0.9819,0.9819,0.9819,0.9819,0.9819,0.9819,0.9819,0.9819,0.9819,0.9758,0.9457,0.897,0.8482,0.7811,0.7202,0.6653,0.6285,0.6221,0.6221,0.6405,0.6467,0.6589,0.665,0.653,0.6589,0.6467,0.616,0.5914,0.5669,0.5302,0.4995,0.4749,0.4433,0.4237,0.4182,0.4077,0.4157,0.4219,0.4229,0.461,0.4959,0.487,0.506,0.5579,0.5691,0.5638,0.5129,0.4579,0.4245,0.4109,0.3984,0.3657,0.3644,0.3579,0.3522,0.3595,0.3668,0.3724,0.3834,0.3892,0.3947,0.4167,0.4317,0.449,0.4779,0.5227,0.5458,0.536,0.5455,0.5527,0.5511,1.2085,1.2162,1.2572,1.2713,1.255,1.2713,1.2659,1.2495,1.2382,1.2055,1.1623,1.1236,1.0962,1.0747,1.0692,1.0789,1.0975,1.0928,1.0964,1.0896,1.055,1.0144,0.982,0.9419,0.9189,0.9005,0.8979,0.9047,0.9217,0.9332,0.9465,0.9792,0.9806,0.9884,0.9936,0.9996,1.0002,0.9815,0.9879,0.9819,0.9819,0.9819,0.9819,0.9819,0.9819,0.9819,0.9819,0.9819,0.9819,0.9819,0.9819,0.9819,0.9819,0.9819,0.9457,0.8973,0.8604,0.7994,0.7444,0.6959,0.6653,0.6528,0.6528,0.6716,0.6839,0.7079,0.7079,0.6959,0.6837,0.665,0.6405,0.6221,0.6037,0.5607,0.5239,0.4933,0.4627,0.4564,0.4441,0.4465,0.4551,0.4566,0.4516,0.4729,0.5088,0.5298,0.5432,0.5749,0.5827,0.5747,0.5062,0.4435,0.3663,0.3469,0.3473,0.3598,0.3584,0.3658,0.3608,0.3745,0.3946,0.3753,0.3617,0.3715,0.382,0.3988,0.4228,0.4666,0.5014,0.5341,0.5581,0.56,0.561,0.5696,0.5555,1.2085,1.2167,1.2523,1.2659,1.2663,1.2659,1.2663,1.2604,1.2436,1.2169,1.1787,1.1459,1.1076,1.0747,1.0696,1.0729,1.0846,1.0838,1.083,1.0783,1.0599,1.0245,0.9965,0.9736,0.9374,0.9132,0.9163,0.9204,0.9405,0.9538,0.9752,0.9985,1.0019,0.9999,1.0021,1.0102,1.0073,0.9815,0.994,0.994,0.9819,0.9819,0.9819,0.9819,0.9819,0.9819,0.9819,0.9819,0.9819,0.9819,0.9819,0.9819,0.9819,0.9819,0.9457,0.9034,0.8668,0.8241,0.763,0.7204,0.6959,0.6834,0.6957,0.7143,0.7447,0.7627,0.7508,0.7388,0.7444,0.7322,0.6589,0.6283,0.5974,0.5544,0.536,0.5116,0.4933,0.4749,0.4773,0.4812,0.4837,0.486,0.4928,0.511,0.5407,0.5505,0.5655,0.5751,0.5847,0.564,0.4959,0.436,0.3593,0.3211,0.3214,0.3339,0.3458,0.3538,0.3687,0.3702,0.3773,0.3464,0.3333,0.348,0.3579,0.3638,0.3946,0.4502,0.487,0.5084,0.5458,0.5845,0.5847,0.5772,0.5596,1.2071,1.2147,1.2365,1.255,1.2772,1.2604,1.2659,1.2827,1.2609,1.2273,1.2005,1.1732,1.1295,1.0911,1.0692,1.0692,1.0704,1.0741,1.072,1.0714,1.0552,1.0436,1.0183,0.9929,0.9702,0.9511,0.9451,0.9617,0.9785,0.9939,1.0054,1.0162,1.0059,0.9982,0.9947,1.0035,1.0137,0.9977,1.0001,1.0061,0.994,0.9819,0.9819,0.9819,0.9819,0.9819,0.9819,0.9819,0.9819,0.9819,0.9819,0.9819,0.9819,0.9758,0.9396,0.9034,0.8854,0.8363,0.7752,0.7508,0.7266,0.7143,0.7324,0.7569,0.7872,0.7997,0.7939,0.7875,0.7872,0.7627,0.6957,0.6405,0.6035,0.5667,0.5544,0.536,0.5177,0.5058,0.5098,0.5209,0.5245,0.527,0.5396,0.5577,0.5672,0.5706,0.5753,0.5772,0.5678,0.5168,0.4579,0.4114,0.3596,0.3277,0.3023,0.3149,0.3274,0.3534,0.3621,0.3643,0.3597,0.3344,0.3202,0.3287,0.3331,0.3394,0.3701,0.4193,0.4561,0.4926,0.5421,0.5855,0.5786,0.5703,0.5466,1.2024,1.233,1.2372,1.2436,1.255,1.2718,1.2881,1.2881,1.2822,1.2495,1.206,1.1951,1.1623,1.1021,1.0802,1.0692,1.0696,1.0704,1.0869,1.0903,1.0815,1.0726,1.0577,1.0216,1.0291,1.0093,0.9938,1.0108,1.0276,1.0395,1.0521,1.0587,1.0601,1.0474,1.0254,1.0322,1.0379,1.0126,1.0082,1.0211,0.99,0.9836,0.9822,0.9819,0.9819,0.9819,0.9819,0.9819,0.9819,0.9819,0.9819,0.9819,0.9761,0.97,0.9396,0.9034,0.8854,0.8424,0.7936,0.775,0.7508,0.7385,0.7569,0.7691,0.8058,0.8424,0.8241,0.8058,0.7994,0.7875,0.7327,0.6898,0.6467,0.616,0.5912,0.5669,0.5423,0.5488,0.5569,0.5632,0.5691,0.5711,0.5787,0.5936,0.5995,0.6001,0.5954,0.5908,0.5421,0.4839,0.426,0.3801,0.3409,0.303,0.2652,0.2908,0.3097,0.3355,0.3494,0.3456,0.3408,0.3282,0.3197,0.3221,0.3208,0.3269,0.3639,0.407,0.4499,0.4928,0.5485,0.5853,0.5786,0.5697,0.552]}]]